     2.10           OBSERVATION DATA    G (GPS)             RINEX VERSION / TYPE
teqc 2000Feb29 simon 20020108 09:29:19UTC                   PGM / RUN BY / DATE
Solaris 2.7|Ultra 2|cc SC5.0|=+-|*Sparc                     COMMENT
BIT 2 OF LLI FLAGS DATA COLLECTED UNDER A/S CONDITION       COMMENT
PION                                                        MARKER NAME
pion                                                        MARKER NUMBER
KEN -Unknown-                                               OBSERVER / AGENCY
486 ASHTECH Z-XII3 4J30                                     REC # / TYPE / VERS
112 ASH701933_M                                             ANT # / TYPE
 -2351353.0000 -4645134.0000  3673723.0000                  APPROX POSITION XYZ
        1.4108        0.0000        0.0000                  ANTENNA: DELTA H/E/N
     1     1                                                WAVELENGTH FACT L1/2
     7    L1    L2    C1    P1    P2    S1    S2            # / TYPES OF OBSERV
    30.0000                                                 INTERVAL
SNR is mapped to RINEX snr flag value [1-9]                 COMMENT
L1: 1 -> 1; 90 -> 5; 210 -> 9                               COMMENT
L2: 1 -> 1; 150 -> 5; 250 -> 9                              COMMENT
Original height was 1.4850                                  COMMENT
New height found assuming measured height 1.4850            COMMENT
and assuming radial 0.1737 vertical -0.0640                 COMMENT
  2001    12    19    20     4   30.0000000     GPS         TIME OF FIRST OBS
                                                            END OF HEADER
 01 12 19 20  4 30.0000000  0  7G27G 2G26G31G28G 8G13
      1824.24859      1095.19757  18949682.651    18949685.271    18949697.507
       239.000         207.000
     -7239.19149     -4849.85447  19276634.020    19276635.795    19276647.954
       237.000         201.000
    -61738.65153                  21886614.274
       218.000          74.000
     33673.40653                  21739729.586
       217.000          74.000
    -42891.67359    -25999.61757  18672249.575    18672251.353    18672261.390
       235.000         203.000
    -34969.81359    -20349.33957  17880025.094    17880026.763    17880037.763
       233.000         204.000
     38974.15953                  22096734.554
       201.000          74.000
 01 12 19 20  5  0.0000000  0  9G27G 2G26G31G28G 7G 8G11G13
      4239.03149      2976.72447  18950143.558    18950144.669    18950157.078
       240.000         205.000
    -14354.27249    -10394.16447  19275281.156    19275281.808    19275294.042
       239.000         206.000
   -226228.17649   -154762.35845  21863897.438    21863896.631    21863917.372
       223.000         161.000
    120518.26749     84670.19956  21752181.720    21752179.157    21752201.561
       216.000         165.000
    -93047.88849    -65082.36347  18662706.158    18662706.826    18662716.996
       237.000         207.000
   -104034.42059    -66304.03556  20318106.027    20318109.414    20318125.937
       225.000         180.000
    -74084.16949    -50828.08947  17872582.742    17872583.437    17872594.678
       235.000         205.000
    -43149.79153                  21843380.011
       223.000          74.000
     97855.18345                  22111111.611
       217.000         144.000
 01 12 19 20  5 30.0000000  0  9G27G 2G26G31G28G 7G 8G11G13
      7092.12149      5199.80547  21349026.653    21349027.333    21349039.683
       240.000         205.000
    -21269.11249    -15782.41247  21672305.319    21672305.643    21672317.903
       239.000         206.000
   -345165.12359   -247440.31355  24239604.607    24239604.856    24239623.678
       210.000         160.000
    186256.63059    135894.67945  24163030.653    24163029.330    24163048.510
       215.000         160.000
   -142859.69249   -103896.74047  21051567.290    21051567.667    21051577.844
       237.000         207.000
   -232315.29849   -166262.97846  22692036.444    22692038.232    22692054.630
       226.000         180.000
   -112747.75949    -80955.57547  20263565.297    20263565.623    20263576.939
       235.000         204.000
   -156921.35849   -108106.00956  24225858.905    24225858.023    24225877.840
       218.000         165.000
    217032.51449    156816.98645  24523849.904    24523849.291    24523869.165
       213.000         145.000
 01 12 19 20  6  0.0000000  0  9G27G 2G26G31G28G 7G 8G11G13
     10405.38549      7781.46447  21349657.393    21349657.852    21349670.238
       239.000         205.000
    -27967.78949    -21002.22847  21671030.858    21671030.992    21671043.190
       240.000         207.000
   -463699.73849   -339804.75045  24217048.273    24217048.556    24217066.800
       219.000         161.000
    252339.81649    187387.78845  24175605.803    24175604.772    24175624.140
       213.000         153.000
   -192334.13849   -142448.24847  21042152.772    21042152.980    21042163.163
       237.000         208.000
   -360279.65549   -265975.27646  22667686.307    22667687.257    22667703.768
       227.000         182.000
   -150960.29749   -110731.58847  20256293.844    20256293.996    20256305.363
       234.000         205.000
   -239896.14659   -172761.59246  24210069.450    24210070.252    24210090.138
       220.000         175.000
    292862.33949    215904.77545  24538279.610    24538279.030    24538299.116
       208.000         147.000
 01 12 19 20  6 30.0000000  0 10G27G 2G26G31G28G 7G 8G10G11G13
     14117.64749     10674.04547  21350363.930    21350364.295    21350376.694
       242.000         204.000
    -34509.87749    -26100.02247  21669786.122    21669786.134    21669798.275
       242.000         206.000
   -581858.70149   -431876.47945  24194563.234    24194563.380    24194581.624
       221.000         157.000
    318686.66649    239086.31145  24188231.262    24188230.342    24188249.782
       213.000         154.000
   -241519.73949   -180774.67147  21032793.143    21032793.281    21032803.442
       239.000         207.000
   -487951.88049   -365459.92446  22643391.333    22643391.994    22643408.494
       229.000         183.000
   -188771.27949   -140194.69647  20249098.714    20249098.802    20249110.185
       236.000         203.000
     19495.18943                  25440707.775
       201.000          85.000
   -322521.86849   -237145.24346  24194346.259    24194346.869    24194365.874
       219.000         165.000
    368770.17459    275053.34155  24552724.222    24552724.869    24552744.316
       218.000         149.000
 01 12 19 20  7  0.0000000  0 10G27G 2G26G31G28G 7G 8G10G11G13
     18198.19449     13853.61247  21351140.541    21351140.824    21351153.234
       239.000         205.000
    -40927.38749    -31100.74247  21668565.029    21668564.925    21668577.105
       239.000         207.000
   -699670.43749   -523677.66145  24172144.379    24172144.634    24172162.703
       222.000         161.000
    385263.41549    290964.07045  24200900.448    24200899.689    24200918.997
       212.000         154.000
   -290448.02449   -218900.58747  21023482.469    21023482.547    21023492.661
       237.000         208.000
   -615360.81049   -464739.40346  22619146.369    22619146.822    22619163.299
       227.000         185.000
   -226210.48149   -169368.08747  20241974.324    20241974.326    20241985.743
       234.000         205.000
     42241.53145                  25446263.246
       203.000         133.000
   -404827.02549   -301279.02046  24178683.919    24178684.616    24178703.934
       215.000         169.000
    444722.50949    334236.56445  24567177.527    24567178.381    24567198.299
       211.000         152.000
 01 12 19 20  7 30.0000000  0 10G27G 2G26G31G28G 7G 8G10G11G13
     22646.08049     17319.41047  21351987.071    21351987.244    21351999.682
       241.000         205.000
    -47221.92249    -36005.63947  21667367.297    21667367.151    21667379.331
       241.000         207.000
   -817133.85149   -615207.42245  24149791.910    24149792.058    24149810.046
       224.000         160.000
    452066.03949    343017.83645  24213612.547    24213611.872    24213631.223
       206.000         148.000
   -339120.94449   -256827.52147  21014220.388    21014220.394    21014230.505
       239.000         208.000
   -742505.67849   -563813.09946  22594951.572    22594951.888    22594968.370
       227.000         184.000
   -263277.88149   -198251.76847  20234920.699    20234920.640    20234932.066
       236.000         205.000
     92294.78549     65091.91545  25451843.976    25451844.040    25451867.817
       208.000         140.000
   -486810.36249   -365162.08346  24163083.087    24163083.614    24163102.833
       221.000         164.000
    520715.74849    393451.64645  24581638.747    24581639.620    24581659.483
       219.000         154.000
 01 12 19 20  8  0.0000000  0 10G27G 2G26G31G28G 7G 8G10G11G13
     27466.60649     21075.59547  21352904.463    21352904.592    21352917.036
       241.000         205.000
    -53389.22149    -40811.39047  21666193.807    21666193.583    21666205.758
       242.000         207.000
   -934241.59049   -706460.05046  24127506.882    24127507.052    24127525.241
       219.000         163.000
    519096.50049    395249.12545  24226368.168    24226367.466    24226386.846
       207.000         144.000
   -387534.42149   -294552.28747  21005007.623    21005007.596    21005017.724
       239.000         207.000
   -869379.48649   -662675.56046  22570808.228    22570808.495    22570825.027
       228.000         185.000
   -299967.83649   -226841.32847  20227938.881    20227938.769    20227950.197
       236.000         205.000
    121754.91649     88047.65245  25457450.378    25457451.666    25457474.911
       208.000         139.000
   -568464.50949   -428788.55446  24147544.858    24147545.263    24147564.529
       215.000         163.000
    596751.93649    452700.21045  24596107.997    24596108.946    24596128.934
       213.000         157.000
 01 12 19 20  8 30.0000000  0 10G27G 2G26G31G28G 7G 8G10G11G13
     32529.14749     25020.35647  21353868.006    21353868.007    21353880.457
       239.000         205.000
    -59561.07649    -45620.69247  21665019.456    21665019.159    21665031.322
       240.000         207.000
  -1051122.04949   -797535.59745  24105265.088    24105265.390    24105283.548
       222.000         161.000
    586221.05349    447553.66745  24239141.555    24239140.916    24239160.354
       205.000         143.000
   -435820.17449   -332177.52947  20995819.156    20995819.116    20995829.237
       237.000         208.000
   -996111.31249   -761427.38246  22546691.887    22546692.146    22546708.693
       226.000         184.000
   -336410.20649   -255237.96647  20221004.184    20221004.027    20221015.420
       234.000         205.000
    151216.58549    111004.63945  25463056.920    25463056.823    25463081.415
       202.000         137.000
   -649917.97049   -492258.74446  24132044.986    24132045.256    24132064.381
       216.000         167.000
    672697.55849    511878.16245  24610560.338    24610560.973    24610581.073
       210.000         157.000
 01 12 19 20  9  0.0000000  0 10G27G 2G26G31G28G 7G 8G10G11G13
     37921.61349     29222.20947  21354894.204    21354894.194    21354906.667
       240.000         205.000
    -65650.27949    -50365.59147  21663860.808    21663860.461    21663872.616
       240.000         207.000
  -1167685.16349   -888363.82645  24083083.705    24083084.050    24083102.319
       219.000         162.000
    653524.50249    499997.66245  24251949.142    24251948.443    24251967.839
       206.000         142.000
   -483890.99149   -369635.30047  20986671.598    20986671.546    20986681.678
       238.000         208.000
  -1122611.13149   -859998.41546  22522619.631    22522619.918    22522636.471
       226.000         184.000
   -372516.05349   -283372.37647  20214133.539    20214133.327    20214144.710
       236.000         205.000
    180764.58449    134028.78345  25468680.002    25468679.722    25468703.843
       200.000         133.000
   -731080.45349   -555502.11345  24116600.431    24116600.574    24116619.619
       214.000         156.000
    748638.12749    571052.18645  24625011.538    24625012.151    24625032.208
       214.000         158.000
 01 12 19 20  9 30.0000000  0 10G27G 2G26G31G28G 7G 8G10G11G13
     43659.93649     33693.56247  21355986.252    21355986.209    21355998.680
       241.000         204.000
    -71641.50149    -55034.13647  21662720.774    21662720.396    21662732.565
       241.000         206.000
  -1283912.63449   -978930.53246  24060966.072    24060966.567    24060984.887
       224.000         164.000
    721019.82449    552591.18145  24264793.189    24264792.414    24264811.795
       210.000         140.000
   -531731.81249   -406913.85047  20977567.798    20977567.735    20977577.867
       239.000         207.000
  -1248861.14549   -958374.78646  22498594.904    22498595.222    22498611.782
       228.000         184.000
   -408268.56349   -311231.45547  20207330.124    20207329.877    20207341.221
       237.000         204.000
    210411.61849    157130.22545  25474321.597    25474321.192    25474345.266
       200.000         138.000
   -811933.71749   -618504.54546  24101214.381    24101214.666    24101233.699
       218.000         165.000
    824586.68049    630232.41745  24639464.393    24639464.868    24639484.896
       209.000         158.000
 01 12 19 20 10  0.0000000  0 10G27G 2G26G31G28G 7G 8G10G11G13
     49752.23849     38440.73947  21357145.654    21357145.572    21357158.084
       239.000         205.000
    -77527.73649    -59620.87247  21661600.693    21661600.311    21661612.490
       240.000         206.000
  -1399794.44549  -1069227.86646  24038914.370    24038914.935    24038933.271
       219.000         164.000
    788711.72049    605337.85045  24277674.652    24277673.833    24277693.098
       206.000         139.000
   -579335.80349   -444007.85947  20968509.092    20968509.001    20968519.115
       237.000         207.000
  -1374851.87749  -1056549.11246  22474619.463    22474619.855    22474636.388
       227.000         185.000
   -443659.01649   -338808.41347  20200595.561    20200595.308    20200606.632
       235.000         205.000
    240162.23149    180312.26145  25479983.176    25479982.841    25480006.764
       196.000         136.000
   -892467.86949   -681258.34345  24085889.399    24085889.569    24085908.451
       216.000         160.000
    900548.52549    689423.00545  24653919.809    24653920.135    24653940.133
       208.000         155.000
 01 12 19 20 10 30.0000000  0 10G27G 2G26G31G28G 7G 8G10G11G13
     56208.18549     43471.27547  21358374.272    21358374.141    21358386.664
       239.000         204.000
    -83300.32949    -64119.04847  21660502.255    21660501.848    21660514.048
       239.000         206.000
  -1515318.92849  -1159246.80646  24016930.743    24016931.283    24016949.553
       220.000         166.000
    856606.91249    658242.89045  24290594.599    24290593.902    24290613.194
       211.000         142.000
   -626694.22249   -480910.51947  20959497.054    20959496.969    20959507.105
       237.000         207.000
  -1500571.70649  -1154512.34646  22450695.625    22450696.017    22450712.553
       228.000         185.000
   -478677.06749   -366095.20047  20193931.852    20193931.590    20193942.923
       235.000         205.000
    270022.84748    203580.05844  25485665.035    25485664.781    25485688.976
       189.000         131.000
   -972671.06949   -743754.18846  24070627.113    24070627.277    24070646.311
       220.000         167.000
    976530.19049    748629.04645  24668379.057    24668379.149    24668399.229
       211.000         155.000
 01 12 19 20 11  0.0000000  0 10G27G 2G26G31G28G 7G 8G10G11G13
     63032.68549     48788.99547  21359672.984    21359672.852    21359685.376
       239.000         205.000
    -88954.99449    -68525.32547  21659426.238    21659425.827    21659438.060
       240.000         206.000
  -1630478.89649  -1248981.66846  23995016.424    23995017.007    23995035.232
       222.000         166.000
    924707.30549    711307.85945  24303553.964    24303553.127    24303572.345
       215.000         146.000
   -673803.10949   -517618.73247  20950532.537    20950532.457    20950542.570
       236.000         207.000
  -1626013.99949  -1252259.33346  22426824.652    22426824.991    22426841.516
       227.000         185.000
   -513317.01549   -393087.35147  20187340.117    20187339.831    20187351.165
       236.000         205.000
    299995.08248    226934.81145  25491369.156    25491368.360    25491392.828
       193.000         136.000
  -1052536.30049   -805986.70746  24055429.613    24055429.520    24055448.496
       218.000         164.000
   1052533.78449    807852.13245  24682842.653    24682842.390    24682862.557
       209.000         154.000
 01 12 19 20 11 30.0000000  0 10G27G 2G26G31G28G 7G 8G10G11G13
     70242.35249     54406.84147  21361045.022    21361044.868    21361057.410
       239.000         204.000
    -94476.15349    -72827.56647  21658375.630    21658375.216    21658387.476
       239.000         206.000
  -1745255.59149  -1338417.90346  23973175.111    23973175.675    23973193.885
       225.000         172.000
    993026.42749    764543.27745  24316554.765    24316553.983    24316573.235
       217.000         147.000
   -720646.87649   -554120.35747  20941618.466    20941618.371    20941628.497
       237.000         207.000
  -1751160.33449  -1349775.69246  22403009.941    22403010.283    22403026.774
       227.000         186.000
   -547561.49049   -419771.35347  20180823.650    20180823.337    20180834.645
       235.000         205.000
    330092.45349    250387.03445  25497096.786    25497095.827    25497120.391
       195.000         133.000
  -1132044.80649   -867941.27645  24040298.997    24040299.296    24040318.284
       222.000         162.000
   1128573.30449    867103.20845  24697312.407    24697312.432    24697332.735
       201.000         149.000
 01 12 19 20 12  0.0000000  0 10G27G 2G26G31G28G 7G 8G10G11G13
     77832.84049     60321.42247  21362489.485    21362489.311    21362501.895
       240.000         203.000
    -99869.01349    -77029.83947  21657349.467    21657349.026    21657361.299
       241.000         205.000
  -1859651.35649  -1427557.32346  23951406.318    23951406.820    23951425.038
       222.000         168.000
   1061556.91649    817943.36345  24329595.717    24329595.045    24329614.293
       218.000         148.000
   -767231.01649   -590419.68147  20932753.801    20932753.704    20932763.824
       239.000         207.000
  -1876013.45049  -1447063.59146  22379251.058    22379251.364    22379267.809
       229.000         185.000
   -581414.17349   -446150.07747  20174381.708    20174381.386    20174392.690
       237.000         205.000
    360307.30849    273930.84945  25502846.532    25502845.635    25502870.247
       199.000         135.000
  -1211198.74849   -929619.57045  24025236.494    24025236.864    24025255.870
       205.000         157.000
   1204641.49649    926376.59745  24711788.147    24711787.958    24711808.273
       205.000         145.000
 01 12 19 20 12 30.0000000  0 10G27G 2G26G31G28G 7G 8G10G11G13
     85810.81849     66537.96847  21364007.706    21364007.533    21364020.124
       238.000         203.000
   -105127.58349    -81127.44447  21656348.807    21656348.370    21656360.674
       239.000         205.000
  -1973656.97349  -1516392.67546  23929711.601    23929712.165    23929730.421
       222.000         169.000
   1130302.64949    871511.15845  24342677.727    24342677.067    24342696.409
       215.000         148.000
   -813549.47649   -626511.96147  20923939.667    20923939.586    20923949.707
       237.000         206.000
  -2000564.61949  -1544116.19146  22355549.609    22355549.924    22355566.319
       228.000         186.000
   -614867.33649   -472217.47047  20168015.769    20168015.468    20168026.771
       235.000         204.000
    390643.23448    297568.93045  25508619.438    25508618.572    25508643.186
       191.000         132.000
  -1289989.45149   -991014.75245  24010242.769    24010243.235    24010262.449
       218.000         157.000
   1280743.09049    985676.00445  24726270.438    24726269.959    24726290.165
       215.000         143.000
 01 12 19 20 13  0.0000000  0 10G27G 2G26G31G28G 7G 8G10G11G13
     94165.44449     73047.99047  21365597.578    21365597.402    21365610.010
       239.000         203.000
   -110263.33249    -85129.35847  21655371.570    21655371.111    21655383.407
       240.000         206.000
  -2087281.24649  -1604930.92846  23908089.487    23908090.029    23908108.308
       217.000         168.000
   1199249.78349    925235.95145  24355798.234    24355797.459    24355816.829
       215.000         153.000
   -859613.86449   -662406.27547  20915173.890    20915173.824    20915183.946
       237.000         207.000
  -2124823.06049  -1640940.71446  22331903.842    22331904.161    22331920.515
       228.000         187.000
   -647931.05749   -497981.42447  20161723.934    20161723.655    20161734.965
       235.000         205.000
    421086.40449    321290.64045  25514412.704    25514411.806    25514436.444
       199.000         139.000
  -1368425.46149  -1052133.68945  23995317.151    23995317.428    23995336.344
       207.000         160.000
   1356863.45449   1044990.04345  24740756.107    24740755.565    24740775.640
       196.000         144.000
 01 12 19 20 13 30.0000000  0  9G27G 2G26G31G28G 7G 8G11G13
    102894.99949     79850.16547  21367258.790    21367258.633    21367271.268
       238.000         204.000
   -115278.82249    -89037.55747  21654417.189    21654416.724    21654429.033
       239.000         205.000
  -2200523.87549  -1693171.71146  23886539.868    23886540.525    23886558.956
       224.000         172.000
   1268393.53449    979113.91045  24368956.059    24368955.293    24368974.701
       218.000         156.000
   -905427.07749   -698104.85847  20906455.903    20906455.847    20906465.981
       236.000         207.000
  -2248788.69549  -1737537.08346  22308313.822    22308314.129    22308330.421
       229.000         187.000
   -680606.32049   -523442.68147  20155506.043    20155505.751    20155517.078
       236.000         205.000
  -1446506.29749  -1112975.71746  23980458.806    23980459.001    23980478.281
       221.000         163.000
   1432998.55149   1104315.53445  24755244.751    24755243.816    24755264.090
       206.000         142.000
 01 12 19 20 14  0.0000000  0  9G27G 2G26G31G28G 7G 8G11G13
    112008.96949     86951.88447  21368993.184    21368993.021    21369005.681
       238.000         204.000
   -120165.36949    -92845.27347  21653487.338    21653486.882    21653499.187
       240.000         205.000
  -2313373.18649  -1781106.08846  23865065.159    23865065.875    23865084.353
       217.000         171.000
   1337740.29749   1033150.03345  24382152.512    24382151.767    24382171.286
       218.000         161.000
   -950980.69849   -733601.15347  20897787.328    20897787.275    20897797.424
       237.000         207.000
  -2372450.22449  -1833896.49547  22284781.634    22284781.955    22284798.183
       227.000         189.000
   -712882.98249   -548593.33947  20149364.002    20149363.725    20149375.036
       235.000         205.000
  -1524220.37149  -1173532.06345  23965670.126    23965670.445    23965689.576
       209.000         153.000
   1509155.12249   1163657.77345  24769737.173    24769736.290    24769756.644
       199.000         137.000
 01 12 19 20 14 30.0000000  0  9G27G 2G26G31G28G 7G 8G11G13
    121489.20449     94339.00447  21370797.317    21370797.111    21370809.785
       239.000         204.000
   -124941.89349    -96567.26347  21652578.434    21652577.969    21652590.274
       239.000         205.000
  -2425845.16449  -1868746.38946  23843662.306    23843663.052    23843681.540
       220.000         168.000
   1407269.04049   1087327.99345  24395383.628    24395382.836    24395402.442
       216.000         157.000
   -996293.49549   -768909.79547  20889164.571    20889164.524    20889174.674
       237.000         207.000
  -2495824.10849  -1930031.77447  22261304.169    22261304.528    22261320.712
       229.000         189.000
   -744778.28649   -573446.83847  20143294.506    20143294.249    20143305.569
       235.000         205.000
  -1601583.74449  -1233815.12045  23950948.748    23950948.625    23950967.643
       214.000         160.000
   1585312.20249   1223000.39045  24784229.408    24784228.794    24784249.108
       209.000         139.000
 01 12 19 20 15  0.0000000  0  9G27G 2G26G31G28G 7G 8G11G13
    131340.14149    102014.97547  21372671.972    21372671.744    21372684.429
       238.000         204.000
   -129604.44449   -100200.44047  21651691.201    21651690.743    21651703.064
       240.000         205.000
  -2537932.99149  -1956087.37346  23822332.522    23822333.347    23822351.717
       221.000         170.000
   1476981.55449   1141649.14845  24408649.696    24408648.914    24408668.610
       213.000         159.000
  -1041361.95549   -804028.04147  20880588.339    20880588.279    20880598.447
       237.000         208.000
  -2618903.82949  -2025937.85747  22237882.672    22237883.081    22237899.225
       228.000         189.000
   -776286.72249   -597998.88747  20137298.640    20137298.388    20137309.738
       235.000         205.000
  -1678589.62349  -1293819.59545  23936294.714    23936294.748    23936313.886
       210.000         153.000
   1661471.98349   1282345.14645  24798722.554    24798721.755    24798742.206
       212.000         135.000
 01 12 19 20 15 30.0000000  0  9G27G 2G26G31G28G 7G 8G11G13
    141578.86749    109993.11547  21374620.413    21374620.169    21374632.886
       238.000         204.000
   -134136.62549   -103732.03047  21650828.769    21650828.325    21650840.651
       239.000         205.000
  -2649617.57149  -2043114.14846  23801079.428    23801080.290    23801098.754
       218.000         170.000
   1546891.91649   1196124.47545  24421953.406    24421952.649    24421972.434
       215.000         159.000
  -1086169.88349   -838943.27347  20872061.670    20872061.623    20872071.785
       237.000         208.000
  -2741670.68049  -2121600.15347  22214520.759    22214521.180    22214537.271
       229.000         190.000
   -807390.63149   -622235.72647  20131379.770    20131379.531    20131390.883
       235.000         206.000
  -1755218.97449  -1353530.69345  23921712.374    23921712.482    23921731.466
       217.000         153.000
   1737648.49049   1341702.94545  24813218.762    24813218.091    24813238.512
       214.000         136.000
 01 12 19 20 16  0.0000000  0  9G27G 2G26G31G28G 7G 8G11G13
    152195.19949    118265.51147  21376640.637    21376640.445    21376653.189
       238.000         204.000
   -138549.39549   -107170.56947  21649989.085    21649988.630    21650000.962
       239.000         205.000
  -2760906.80549  -2129832.85546  23779901.779    23779902.535    23779921.010
       219.000         170.000
   1616986.79649   1250743.52945  24435292.599    24435291.427    24435311.378
       215.000         158.000
  -1130728.31449   -873664.08547  20863582.486    20863582.412    20863592.575
       237.000         208.000
  -2864133.06649  -2217025.21747  22191216.777    22191217.191    22191233.251
       228.000         190.000
   -838099.23349   -646164.52347  20125536.161    20125535.896    20125547.247
       235.000         205.000
  -1831479.57449  -1412954.42845  23907200.627    23907200.580    23907219.611
       216.000         159.000
   1813829.17849   1401063.98545  24827716.025    24827715.179    24827735.573
       213.000         137.000
 01 12 19 20 16 30.0000000  0  9G27G 2G26G31G28G 7G 8G11G13
    163173.56249    126819.99947  21378729.764    21378729.596    21378742.367
       238.000         204.000
   -142858.89249   -110528.64047  21649169.031    21649168.578    21649180.931
       240.000         205.000
  -2871814.05949  -2216253.92646  23758796.641    23758797.432    23758815.844
       219.000         169.000
   1687247.71449   1305492.04045  24448662.796    24448661.837    24448681.878
       206.000         155.000
  -1175053.65049   -908203.27847  20855147.626    20855147.569    20855157.730
       236.000         207.000
  -2986304.60049  -2312223.66147  22167968.170    22167968.548    22167984.592
       229.000         189.000
   -868427.45849   -669796.92447  20119764.924    20119764.647    20119775.981
       236.000         205.000
  -1907385.24349  -1472101.59345  23892756.329    23892756.197    23892775.178
       210.000         157.000
   1889995.77749   1460414.05045  24842210.041    24842209.574    24842230.093
       216.000         132.000
 01 12 19 20 17  0.0000000  0  9G27G 2G26G31G28G 7G 8G11G13
    174527.28249    135666.96547  21380890.406    21380890.209    21380903.000
       239.000         204.000
   -147052.42349   -113796.34347  21648371.056    21648370.614    21648382.976
       239.000         205.000
  -2982323.99049  -2302365.36446  23737767.136    23737767.949    23737786.310
       222.000         169.000
   1757685.03549   1360377.94945  24462066.606    24462065.823    24462085.951
       209.000         157.000
  -1219133.39349   -942551.09047  20846759.478    20846759.444    20846769.610
       237.000         207.000
  -3108170.42549  -2407183.89847  22144777.703    22144778.099    22144794.110
       229.000         190.000
   -898361.02249   -693121.79747  20114068.779    20114068.497    20114079.817
       235.000         205.000
  -1982920.33149  -1530959.98845  23878382.590    23878382.359    23878401.157
       216.000         159.000
   1966159.06949   1519761.55045  24856703.702    24856703.188    24856723.855
       214.000         132.000
 01 12 19 20 17 30.0000000  0  9G27G 2G26G31G28G 7G 8G11G13
    186254.16849    144804.72047  21383122.018    21383121.822    21383134.630
       238.000         203.000
   -151132.88149   -116975.94447  21647594.621    21647594.165    21647606.523
       240.000         205.000
  -3092436.49449  -2388167.11746  23716813.328    23716814.106    23716832.514
       224.000         171.000
   1828293.90149   1415397.53145  24475503.370    24475502.377    24475522.614
       206.000         146.000
  -1262970.58349   -976709.90547  20838417.515    20838417.499    20838427.653
       237.000         208.000
  -3229730.78849  -2501906.12347  22121645.337    22121645.787    22121661.762
       229.000         190.000
   -927901.42249   -716140.30247  20108447.452    20108447.152    20108458.449
       235.000         205.000
  -2058084.85649  -1589529.54145  23864079.348    23864078.977    23864097.855
       218.000         159.000
   2042313.85649   1579102.43145  24871196.143    24871195.332    24871216.147
       215.000         134.000
 01 12 19 20 18  0.0000000  0  9G27G 2G26G31G28G 7G 8G11G13
    198355.57749    154234.30847  21385424.934    21385424.719    21385437.541
       238.000         204.000
   -155099.54049   -120066.86947  21646839.824    21646839.378    21646851.742
       239.000         206.000
  -3202147.98749  -2473656.41646  23695935.804    23695936.588    23695954.882
       222.000         169.000
   1899072.82149   1470549.67845  24488972.589    24488971.363    24488991.683
       204.000         149.000
  -1306564.74649  -1010679.34447  20830121.810    20830121.789    20830131.938
       237.000         207.000
  -3350982.42449  -2596387.77947  22098571.801    22098572.249    22098588.157
       229.000         190.000
   -957046.28649   -738850.59947  20102901.381    20102901.078    20102912.369
       236.000         204.000
  -2132875.30749  -1647807.61745  23849846.733    23849846.621    23849865.387
       213.000         151.000
   2118459.26049   1638435.95245  24885686.306    24885685.697    24885706.671
       214.000         138.000
 01 12 19 20 18 30.0000000  0  9G27G 2G26G31G28G 7G 8G11G13
    210848.90549    163969.28547  21387802.416    21387802.188    21387815.042
       238.000         203.000
   -158935.45249   -123055.92247  21646109.879    21646109.455    21646121.833
       240.000         205.000
  -3311438.91749  -2558817.99946  23675138.309    23675139.085    23675157.369
       224.000         171.000
   1970036.66149   1525845.81445  24502476.417    24502475.475    24502495.913
       206.000         147.000
  -1349899.21649  -1044446.43847  20821875.514    20821875.508    20821885.648
       237.000         207.000
  -3471906.17449  -2690613.95147  22075560.669    22075561.086    22075576.967
       230.000         191.000
   -985777.50549   -761238.57147  20097433.992    20097433.716    20097444.993
       236.000         205.000
  -2207272.22949  -1705779.09145  23835689.302    23835689.392    23835708.057
       206.000         160.000
   2194609.92449   1697773.56745  24900178.033    24900177.111    24900198.284
       214.000         145.000
 01 12 19 20 19  0.0000000  0  9G27G 2G26G31G28G 7G 8G11G13
    223706.81649    173988.35647  21390249.268    21390249.052    21390261.891
       238.000         203.000
   -162668.58349   -125964.88147  21645399.521    21645399.103    21645411.466
       239.000         205.000
  -3420334.36949  -2643671.40546  23654416.112    23654416.871    23654435.185
       224.000         171.000
   2041155.02349   1581262.42845  24516009.609    24516009.042    24516029.614
       200.000         144.000
  -1393002.01049  -1078032.99947  20813673.335    20813673.305    20813683.436
       237.000         208.000
  -3592527.48949  -2784604.45547  22052607.056    22052607.481    22052623.315
       230.000         191.000
  -1014121.47349   -783324.77947  20092040.361    20092040.065    20092051.323
       236.000         205.000
  -2281300.74549  -1763463.32246  23821601.588    23821601.982    23821621.084
       219.000         165.000
   2270736.10049   1757092.06945  24914664.740    24914663.893    24914685.360
       211.000         148.000
 01 12 19 20 19 30.0000000  0  9G27G 2G26G31G28G 7G 8G11G13
    236936.33849    184296.99847  21392766.863    21392766.620    21392779.473
       238.000         203.000
   -166292.44749   -128788.70147  21644709.957    21644709.534    21644721.892
       239.000         205.000
  -3528825.19449  -2728209.54646  23633770.885    23633771.625    23633789.895
       225.000         170.000
   2112432.24949   1636802.75645  24529573.478    24529572.828    24529593.544
       212.000         147.000
  -1435867.00149  -1111434.26947  20805516.402    20805516.365    20805526.489
       237.000         208.000
  -3712837.65149  -2878352.51247  22029712.662    22029713.093    22029728.883
       230.000         191.000
  -1042070.35349   -805103.13347  20086721.898    20086721.592    20086732.822
       237.000         205.000
  -2354951.50849  -1820853.46745  23807586.893    23807586.935    23807605.344
       220.000         160.000
   2346842.28149   1816394.99445  24929147.514    24929146.851    24929168.517
       208.000         148.000
 01 12 19 20 20  0.0000000  0  9G27G 2G26G31G28G 7G 8G11G13
    250554.35849    194908.35747  21395358.349    21395358.117    21395370.984
       238.000         202.000
   -169790.78049   -131514.71447  21644044.260    21644043.832    21644056.202
       239.000         205.000
  -3636892.22849  -2812417.45146  23613206.389    23613207.067    23613225.240
       225.000         171.000
   2183882.40149   1692477.91545  24543170.392    24543169.569    24543190.301
       208.000         143.000
  -1478478.04749  -1144637.66347  20797407.778    20797407.740    20797417.844
       236.000         207.000
  -3832817.90849  -2971843.49647  22006881.037    22006881.480    22006897.233
       230.000         190.000
  -1069606.50749   -826559.87647  20081481.947    20081481.647    20081492.863
       237.000         205.000
  -2428205.96249  -1877934.46746  23793646.321    23793646.730    23793665.838
       221.000         169.000
   2422942.70049   1875693.43345  24943629.372    24943628.658    24943650.515
       207.000         149.000
 01 12 19 20 20 30.0000000  0  9G27G 2G26G31G28G 7G 8G11G13
    264551.31249    205814.99347  21398021.936    21398021.717    21398034.599
       237.000         202.000
   -173173.45949   -134150.60647  21643400.569    21643400.165    21643412.531
       240.000         205.000
  -3744542.72449  -2896300.77046  23592721.022    23592721.724    23592739.872
       223.000         170.000
   2255493.49649   1748278.36645  24556797.667    24556796.978    24556817.724
       217.000         145.000
  -1520845.21849  -1177651.01847  20789345.564    20789345.519    20789355.631
       236.000         207.000
  -3952475.91349  -3065083.36547  21984110.749    21984111.185    21984126.909
       230.000         191.000
  -1096738.40349   -847701.60447  20076318.931    20076318.638    20076329.857
       237.000         205.000
  -2501071.06249  -1934712.19845  23779780.881    23779780.986    23779800.125
       225.000         156.000
   2499025.48449   1934978.12245  24958107.882    24958107.140    24958129.190
       200.000         147.000
 01 12 19 20 21  0.0000000  0  9G27G 2G26G31G28G 7G 8G11G13
    278939.86649    217026.77147  21400760.014    21400759.830    21400772.720
       237.000         202.000
   -176428.28649   -136686.87547  21642781.198    21642780.815    21642793.178
       239.000         205.000
  -3851761.86049  -2979847.99046  23572317.699    23572318.434    23572336.579
       218.000         172.000
   2327275.40849   1804212.09245  24570457.717    24570456.876    24570477.510
       212.000         132.000
  -1562956.45649  -1210464.95547  20781332.036    20781331.986    20781342.112
       236.000         207.000
  -4071797.12749  -3158060.80347  21961404.667    21961404.999    21961420.685
       230.000         192.000
  -1123452.61349   -868517.86147  20071235.405    20071235.080    20071246.306
       237.000         205.000
  -2573532.27449  -1991175.21345  23765991.606    23765991.929    23766010.686
       219.000         161.000
   2575100.90349   1994257.06045  24972584.550    24972584.229    24972606.455
       195.000         141.000
 01 12 19 20 21 30.0000000  0  9G27G 2G26G31G28G 7G 8G11G13
    293724.91949    228547.50147  21403573.565    21403573.372    21403586.290
       238.000         202.000
   -179550.82449   -139120.06647  21642187.028    21642186.628    21642199.005
       240.000         206.000
  -3958542.35449  -3063053.36646  23551997.896    23551998.669    23552016.767
       224.000         172.000
   2399230.20849   1860280.40845  24584150.628    24584149.746    24584170.252
       220.000         144.000
  -1604807.81949  -1243076.39747  20773367.964    20773367.907    20773378.035
       237.000         208.000
  -4190774.70849  -3250770.46347  21938763.937    21938764.213    21938779.872
       230.000         192.000
  -1149743.29049   -889004.09947  20066232.434    20066232.144    20066243.373
       236.000         205.000
  -2645582.31149  -2047317.86346  23752281.268    23752281.368    23752299.640
       224.000         164.000
   2651171.45248   2053532.19445  24987060.624    24987060.406    24987082.898
       190.000         135.000
 01 12 19 20 22  0.0000000  0  9G27G 2G26G31G28G 7G 8G11G13
    308902.17949    240373.83847  21406461.781    21406461.568    21406474.496
       239.000         201.000
   -182546.00749   -141454.03047  21641617.044    21641616.695    21641629.074
       242.000         205.000
  -4064886.54849  -3145918.79646  23531761.127    23531761.916    23531779.939
       227.000         172.000
   2471350.80349   1916477.95245  24597875.096    24597874.105    24597894.529
       215.000         135.000
  -1646404.37449  -1275489.29747  20765452.414    20765452.350    20765462.478
       239.000         208.000
  -4309411.40349  -3343214.50547  21916188.070    21916188.288    21916203.896
       234.000         193.000
  -1175614.12549   -909163.18847  20061309.343    20061309.095    20061320.337
       239.000         205.000
  -2717223.75849  -2103141.98945  23738647.798    23738648.122    23738666.619
       218.000         159.000
   2727230.25048   2112798.13845  25001535.455    25001536.507    25001557.018
       186.000         133.000
 01 12 19 20 22 30.0000000  0  9G27G 2G26G31G28G 7G 8G11G13
    324455.17549    252492.96847  21409421.468    21409421.259    21409434.226
       239.000         202.000
   -185430.48149   -143701.71547  21641068.225    21641067.818    21641080.210
       241.000         205.000
  -4170808.56949  -3228455.26846  23511604.768    23511605.530    23511623.493
       222.000         174.000
   2543618.32949   1972790.06644  24611627.114    24611626.395    24611646.539
       215.000         130.000
  -1687763.10949  -1307716.86647  20757582.138    20757582.038    20757592.144
       238.000         208.000
  -4427721.55349  -3435404.07047  21893674.330    21893674.519    21893690.081
       233.000         194.000
  -1201080.52749   -929007.11647  20056463.222    20056462.993    20056474.247
       238.000         205.000
  -2788470.50949  -2158658.73645  23725090.098    23725090.301    23725108.339
       225.000         159.000
   2803258.31349   2172040.14145  25016003.187    25016003.886    25016025.189
       197.000         138.000
 01 12 19 20 23  0.0000000  0  9G27G 2G26G31G28G 7G 8G11G13
    340384.64749    264905.44947  21412452.775    21412452.601    21412465.585
       237.000         202.000
   -188203.95549   -145862.91247  21640540.472    21640540.073    21640552.464
       239.000         205.000
  -4276305.57549  -3310660.50146  23491529.255    23491530.036    23491547.902
       227.000         173.000
   2616030.70049   2029215.02145  24625406.912    24625406.268    24625426.325
       216.000         140.000
  -1728884.00149  -1339759.11747  20749757.098    20749756.976    20749767.082
       237.000         209.000
  -4545702.73749  -3527337.29647  21871223.212    21871223.357    21871238.858
       232.000         195.000
  -1226141.02049   -948534.76147  20051694.377    20051694.132    20051705.395
       237.000         205.000
  -2859319.81349  -2213865.74645  23711607.305    23711607.762    23711625.496
       216.000         160.000
   2879253.98349   2231256.95245  25030465.294    25030466.176    25030487.300
       204.000         143.000
 01 12 19 20 23 30.0000000  0  9G27G 2G26G31G28G 7G 8G11G13
    356713.29349    277628.97847  21415560.125    21415559.917    21415572.914
       237.000         201.000
   -190844.07649   -147920.20147  21640038.110    21640037.712    21640050.102
       239.000         205.000
  -4381352.45149  -3392515.02746  23471539.423    23471540.152    23471557.936
       222.000         172.000
   2688608.01749   2085768.48344  24639218.399    24639217.450    24639237.504
       207.000         129.000
  -1769745.06649  -1371598.89847  20741981.485    20741981.378    20741991.466
       236.000         208.000
  -4663330.47049  -3618995.09447  21848839.286    21848839.435    21848854.900
       232.000         194.000
  -1250771.81749   -967727.57647  20047007.306    20047007.049    20047018.300
       237.000         204.000
  -2929746.93149  -2268743.68546  23698204.606    23698205.436    23698223.855
       219.000         163.000
   2955237.56649   2290464.35445  25044925.114    25044925.821    25044947.093
       206.000         146.000
 01 12 19 20 24  0.0000000  0  9G27G 2G26G31G28G 7G 8G11G13
    373412.37849    290641.14447  21418737.943    21418737.713    21418750.742
       239.000         201.000
   -193380.09649   -149896.37847  21639555.561    21639555.152    21639567.553
       241.000         205.000
  -4485975.87749  -3474039.56946  23451630.091    23451630.851    23451648.547
       228.000         174.000
   2761319.03349   2142426.13045  24653055.348    24653054.122    24653074.430
       213.000         137.000
  -1810375.80849  -1403259.22047  20734249.742    20734249.631    20734259.695
       238.000         208.000
  -4780631.64749  -3710398.43747  21826517.537    21826517.671    21826533.077
       234.000         194.000
  -1275000.97749   -986607.44347  20042396.669    20042396.414    20042407.625
       238.000         204.000
  -2999778.52649  -2323313.56746  23684878.658    23684879.063    23684897.070
       227.000         165.000
   3031177.97549   2349638.12845  25059376.790    25059377.121    25059398.722
       206.000         146.000
 01 12 19 20 24 30.0000000  0  9G27G 2G26G31G28G 7G 8G11G13
    390503.28749    303958.64147  21421990.325    21421990.087    21422003.122
       237.000         201.000
   -195790.87449   -151774.95547  21639096.844    21639096.428    21639108.836
       239.000         205.000
  -4590152.36049  -3555215.86146  23431805.873    23431806.642    23431824.245
       222.000         172.000
   2834182.40349   2199202.50745  24666921.149    24666919.771    24666940.291
       211.000         146.000
  -1850755.22749  -1434723.69747  20726565.802    20726565.678    20726575.735
       237.000         208.000
  -4897583.07349  -3801529.23347  21804262.326    21804262.456    21804277.804
       232.000         194.000
  -1298806.25749  -1005157.00147  20037866.681    20037866.409    20037877.605
       238.000         204.000
  -3069391.23349  -2377557.04746  23671631.731    23671632.065    23671649.820
       222.000         168.000
   3107093.97949   2408792.87045  25073823.246    25073823.704    25073845.646
       208.000         148.000
 01 12 19 20 24 59.9990000  0  9G27G 2G26G31G28G 7G 8G11G13
    408002.56049    317594.33647  21425320.410    21425320.168    21425333.211
       237.000         201.000
   -198059.50449   -153542.77147  21638665.210    21638664.768    21638677.175
       239.000         205.000
  -4693858.97949  -3636025.98846  23412071.014    23412071.799    23412089.354
       223.000         171.000
   2907210.38649   2256107.11945  24680817.858    24680816.741    24680837.530
       200.000         141.000
  -1890865.69549  -1465978.60647  20718933.047    20718932.914    20718942.963
       237.000         208.000
  -5014161.77249  -3892369.58647  21782078.032    21782078.161    21782093.458
       232.000         194.000
  -1322168.63549  -1023361.43747  20033420.952    20033420.703    20033431.874
       238.000         204.000
  -3138563.30149  -2431457.11046  23658468.430    23658468.999    23658486.801
       225.000         169.000
   3182997.93349   2467938.25345  25088267.604    25088268.045    25088290.316
       210.000         147.000
 01 12 19 20 25 29.9990000  0  9G27G 2G26G31G28G 7G 8G11G13
    425884.91949    331528.53447  21428723.360    21428723.129    21428736.213
       237.000         201.000
   -200212.93749   -155220.81647  21638255.463    21638255.022    21638267.427
       239.000         204.000
  -4797126.88949  -3716494.30346  23392419.654    23392420.438    23392437.912
       222.000         173.000
   2980378.88649   2313121.18945  24694740.967    24694740.419    24694761.529
       198.000         136.000
  -1930736.78349  -1497046.98647  20711345.839    20711345.692    20711355.736
       237.000         208.000
  -5130400.28449  -3982944.85247  21759958.464    21759958.583    21759973.831
       232.000         194.000
  -1345115.66249  -1041242.23047  20029054.281    20029054.030    20029065.179
       238.000         205.000
  -3207323.87849  -2485036.62445  23645383.668    23645384.129    23645401.712
       215.000         162.000
   3258866.42049   2527055.99645  25102705.161    25102705.595    25102728.219
       206.000         144.000
 01 12 19 20 25 59.9990000  0  9G27G 2G26G31G28G 7G 8G11G13
    444149.56449    345760.63747  21432199.134    21432198.868    21432211.966
       237.000         200.000
   -202251.44249   -156809.30947  21637867.592    21637867.143    21637879.566
       239.000         204.000
  -4899950.44349  -3796616.36946  23372852.888    23372853.658    23372871.048
       223.000         173.000
   3053682.89749   2370240.96145  24708690.778    24708689.902    24708711.231
       201.000         138.000
  -1970367.86549  -1527928.34947  20703804.297    20703804.144    20703814.191
       236.000         207.000
  -5246292.92649  -4073250.60247  21737904.701    21737904.828    21737920.020
       232.000         193.000
  -1367645.44449  -1058797.89747  20024767.031    20024766.769    20024777.893
       238.000         204.000
  -3275668.58249  -2538292.02046  23632377.731    23632378.318    23632396.216
       222.000         171.000
   3334694.11049   2586141.94845  25117134.840    25117135.366    25117158.322
       210.000         142.000
 01 12 19 20 26 29.9990000  0  9G27G 2G26G31G28G 7G 8G11G13
    462792.38049    360287.41947  21435746.800    21435746.556    21435759.651
       237.000         201.000
   -204179.62749   -158311.83747  21637500.706    21637500.262    21637512.696
       239.000         205.000
  -5002331.79349  -3876393.85246  23353370.225    23353370.984    23353388.353
       222.000         172.000
   3127115.62848   2427461.03245  24722665.349    24722663.957    24722685.360
       193.000         135.000
  -2009763.99949  -1558626.63447  20696307.434    20696307.317    20696317.349
       236.000         207.000
  -5361842.05649  -4163288.67747  21715916.320    21715916.441    21715931.585
       232.000         194.000
  -1389761.46849  -1076031.16147  20020558.519    20020558.242    20020569.356
       238.000         205.000
  -3343599.36749  -2591224.96946  23619451.065    23619451.393    23619469.179
       222.000         164.000
   3410474.59149   2645191.09745  25131555.589    25131556.228    25131579.515
       207.000         136.000
 01 12 19 20 26 59.9990000  0  9G27G 2G26G31G28G 7G 8G11G13
    481825.23349    375118.11947  21439368.687    21439368.476    21439381.585
       237.000         201.000
   -205985.78149   -159719.27447  21637157.063    21637156.590    21637169.033
       239.000         204.000
  -5104256.63649  -3955815.61846  23333974.273    23333975.167    23333992.444
       223.000         174.000
   3200686.68948   2484788.75844  24736666.037    24736664.705    24736686.134
       181.000         127.000
  -2048913.35649  -1589132.63647  20688857.530    20688857.428    20688867.467
       237.000         208.000
  -5477033.79749  -4253048.27147  21693995.894    21693996.039    21694011.136
       232.000         195.000
  -1411450.78849  -1092931.93747  20016431.178    20016430.890    20016441.990
       238.000         205.000
  -3411102.08549  -2643824.30545  23606605.379    23606605.689    23606623.236
       219.000         159.000
   3486217.52449   2704210.99145  25145969.803    25145969.909    25145993.547
       215.000         137.000
 01 12 19 20 27 29.9990000  0  9G27G 2G26G31G28G 7G 8G11G13
    501243.02749    390248.77847  21443063.857    21443063.631    21443076.737
       237.000         200.000
   -207675.28749   -161035.81147  21636835.588    21636835.113    21636847.576
       238.000         204.000
  -5205727.83549  -4034883.88746  23314664.767    23314665.653    23314682.936
       224.000         174.000
   3274388.31959   2542218.23255  24750690.906    24750691.795    24750714.356
       197.000         142.000
  -2087821.79749  -1619450.90147  20681453.482    20681453.397    20681463.434
       236.000         208.000
  -5591871.36949  -4342531.88347  21672142.877    21672143.021    21672158.087
       232.000         195.000
  -1432717.71549  -1109503.56547  20012384.231    20012383.937    20012395.034
       238.000         205.000
  -3478179.79349  -2696092.47646  23593840.792    23593841.163    23593858.388
       217.000         164.000
   3561915.59749   2763195.95344  25160375.409    25160375.124    25160398.961
       210.000         127.000
 01 12 19 20 27 59.9990000  0  9G27G 2G26G31G28G 7G 8G11G13
    521054.82149    405686.46247  21446833.986    21446833.787    21446846.859
       237.000         201.000
   -209239.18949   -162254.48247  21636537.996    21636537.560    21636550.009
       240.000         204.000
  -5306734.10649  -4113589.90546  23295443.723    23295444.606    23295461.853
       221.000         173.000
   3348227.23649   2599754.80345  24764742.101    24764742.982    24764764.918
       206.000         153.000
  -2126480.58949  -1649574.64247  20674096.971    20674096.868    20674106.901
       237.000         208.000
  -5706343.91349  -4431731.06147  21650359.281    21650359.475    21650374.494
       233.000         196.000
  -1453552.12549  -1125738.16847  20008419.574    20008419.290    20008430.380
       239.000         205.000
  -3544821.37249  -2748020.83146  23581159.107    23581159.469    23581176.676
       226.000         167.000
   3637575.82449   2822151.43544  25174773.811    25174773.101    25174797.435
       198.000         108.000
 01 12 19 20 28 29.9990000  0  9G27G 2G26G31G28G 7G 8G11G13
    541245.08949    421419.04847  21450676.099    21450675.925    21450689.037
       237.000         200.000
   -210693.25249   -163387.55847  21636261.283    21636260.887    21636273.349
       238.000         204.000
  -5407289.03549  -4191944.22046  23276308.602    23276309.470    23276326.719
       221.000         174.000
   3422185.11849   2657384.09145  24778815.763    24778816.626    24778838.700
       209.000         156.000
  -2164906.04849  -1679516.56047  20666784.862    20666784.732    20666794.779
       237.000         208.000
  -5820465.30849  -4520656.61447  21628642.535    21628642.743    21628657.725
       233.000         196.000
  -1473968.74349  -1141647.22047  20004534.431    20004534.127    20004545.232
       238.000         206.000
  -3611040.31749  -2799619.85446  23568558.341    23568558.458    23568575.342
       221.000         167.000
                   2881063.37544  25189160.930
       185.000          96.000
 01 12 19 20 28 59.9990000  0  9G27G 2G26G31G28G 7G 8G11G13
    561830.61249    437459.63347  21454593.554    21454593.306    21454606.406
       237.000         200.000
   -212020.86449   -164422.10047  21636008.711    21636008.272    21636020.752
       238.000         204.000
  -5507373.36949  -4269931.84046  23257263.069    23257263.901    23257281.054
       221.000         173.000
   3496276.67249   2715117.53145  24792914.891    24792915.729    24792937.940
       210.000         154.000
  -2203081.80449  -1709263.90747  20659520.281    20659520.138    20659530.194
       237.000         208.000
  -5934216.63549  -4609293.81547  21606996.183    21606996.430    21607011.367
       233.000         196.000
  -1493949.98549  -1157217.02447  20000732.091    20000731.827    20000742.916
       238.000         205.000
  -3676817.80349  -2850874.85546  23556041.001    23556041.296    23556058.240
       222.000         169.000
                   2939943.31253  25203540.855
       173.000          88.000
 01 12 19 20 29 29.9990000  0  8G27G 2G26G31G28G 7G 8G11
    582802.28849    453801.11747  21458584.390    21458584.152    21458597.268
       238.000         200.000
   -213231.17049   -165365.23547  21635778.405    21635777.989    21635790.481
       240.000         203.000
  -5606993.93949  -4347558.09646  23238305.747    23238306.609    23238323.613
       224.000         176.000
   3570490.43849   2772946.18545  24807037.533    24807038.192    24807060.362
       210.000         147.000
  -2241017.30149  -1738824.04047  20652301.395    20652301.268    20652311.330
       238.000         208.000
  -6047605.07149  -4697648.23747  21585418.908    21585419.185    21585434.072
       236.000         196.000
  -1513503.68749  -1172453.67947  19997011.140    19997010.896    19997021.981
       240.000         205.000
  -3742160.60549  -2901791.19546  23543606.703    23543607.009    23543624.051
       225.000         175.000
 01 12 19 20 29 59.9990000  0  8G27G 2G26G31G28G 7G 8G11
    604167.47249    470449.23647  21462650.145    21462649.895    21462663.030
       238.000         200.000
   -214316.89249   -166211.29547  21635571.819    21635571.408    21635583.909
       240.000         203.000
  -5706141.09049  -4424815.45346  23219438.630    23219439.444    23219456.381
       225.000         178.000
   3644831.23649   2830873.83645  24821184.663    24821184.737    24821206.964
       209.000         140.000
  -2278705.60549  -1768191.54747  20645129.547    20645129.414    20645139.497
       238.000         208.000
  -6160621.46149  -4785712.76347  21563912.482    21563912.736    21563927.569
       236.000         197.000
  -1532621.76549  -1187350.88847  19993373.054    19993372.835    19993383.936
       239.000         205.000
  -3807059.32049  -2952361.46646  23531256.677    23531257.058    23531274.167
       216.000         166.000
 01 12 19 20 30 29.9990000  0  8G27G 2G26G31G28G 7G 8G11
    625921.24749    487400.15447  21466789.795    21466789.554    21466802.724
       236.000         200.000
   -215283.19349   -166964.29147  21635387.988    21635387.535    21635400.068
       238.000         203.000
  -5804817.53549  -4501706.01546  23200660.963    23200661.807    23200678.742
       225.000         177.000
   3719291.95649   2888894.90645  24835354.563    24835354.107    24835376.413
       200.000         132.000
  -2316152.13049  -1797370.65447  20638003.690    20638003.565    20638013.663
       236.000         208.000
  -6273269.02749  -4873489.89147  21542476.240    21542476.465    21542491.257
       235.000         197.000
  -1551308.39449  -1201911.91347  19989817.117    19989816.882    19989827.984
       238.000         205.000
  -3871516.81649  -3002587.95746  23518990.337    23518990.940    23519008.193
       222.000         169.000
 01 12 19 20 30 59.9990000  0  8G27G 2G26G31G28G 7G 8G11
    648068.27349    504657.47647  21471004.340    21471004.082    21471017.277
       237.000         200.000
   -216125.43349   -167620.62847  21635227.718    21635227.306    21635239.839
       238.000         203.000
  -5903016.61749  -4578224.62646  23181974.262    23181975.055    23181992.002
       223.000         179.000
   3793875.19449   2947011.47944  24849547.395    24849546.934    24849569.117
       196.000         123.000
  -2353352.75449  -1826358.15747  20630924.640    20630924.517    20630934.628
       237.000         208.000
  -6385541.08949  -4960974.42647  21521111.408    21521111.651    21521126.416
       234.000         198.000
  -1569557.93349  -1216132.34647  19986344.388    19986344.126    19986355.219
       238.000         206.000
  -3935526.41949  -3052465.44646  23506809.316    23506810.147    23506827.305
       213.000         164.000
 01 12 19 20 31 29.9990000  0  8G27G 2G26G31G28G 7G 8G11
    670596.45749    522211.80547  21475291.417    21475291.128    21475304.341
       236.000         200.000
   -216855.79949   -168189.78747  21635088.766    21635088.361    21635100.891
       238.000         203.000
  -6000747.99949  -4654378.77546  23163376.440    23163377.269    23163394.214
       228.000         179.000
   3868566.31648   3005212.14944  24863759.709    24863760.194    24863782.615
       184.000         113.000
  -2390320.02549  -1855163.81447  20623889.999    20623889.873    20623899.997
       236.000         208.000
  -6497448.00249  -5048174.43047  21499816.067    21499816.324    21499831.051
       235.000         198.000
  -1587381.45749  -1230020.81847  19982952.702    19982952.419    19982963.519
       238.000         205.000
  -3999097.96849  -3102001.62846  23494711.928    23494712.699    23494729.796
       225.000         168.000
 01 12 19 20 31 59.9990000  0  8G27G 2G26G31G28G 7G 8G11
    693517.27049    540072.07847  21479653.213    21479652.894    21479666.114
       236.000         199.000
   -217463.00449   -168662.97147  21634973.277    21634972.850    21634985.391
       238.000         202.000
  -6097998.30949  -4730158.10246  23144870.246    23144871.049    23144887.924
       227.000         176.000
                   3063503.81344  24877995.326                    24878018.150
       186.000         107.000
  -2427042.94549  -1883779.07047  20616901.869    20616901.742    20616911.853
       236.000         208.000
  -6608976.54449  -5135079.60847  21478592.769    21478593.000    21478607.695
       235.000         198.000
  -1604766.74649  -1243567.80347  19979644.430    19979644.130    19979655.220
       239.000         206.000
  -4062218.28549  -3151186.23346  23482700.650    23482701.292    23482718.046
       214.000         166.000
 01 12 19 20 32 29.9990000  0  8G27G 2G26G31G28G 7G 8G11
    716834.39249    558241.16147  21484090.323    21484090.071    21484103.292
       237.000         199.000
   -217943.33149   -169037.29647  21634881.914    21634881.478    21634894.027
       238.000         202.000
  -6194761.39749  -4805557.78246  23126456.783    23126457.508    23126474.368
       225.000         178.000
                   3121887.83244  24892254.524
       181.000         101.000
  -2463518.27849  -1912201.39847  20609960.814    20609960.723    20609970.818
       236.000         208.000
  -6720121.05649  -5221685.54147  21457442.535    21457442.757    21457457.412
       236.000         199.000
  -1621709.10449  -1256769.66147  19976420.427    19976420.118    19976431.216
       239.000         206.000
  -4124881.38449  -3200014.48346  23470775.487    23470776.505    23470793.754
       224.000         172.000
 01 12 19 20 32 59.9990000  0  8G27G 2G26G31G28G 7G 8G11
    740543.84249    576715.95147  21488602.122    21488601.887    21488615.126
       236.000         198.000
   -218300.62349   -169315.74547  21634813.949    21634813.519    21634826.093
       238.000         203.000
  -6291038.90049  -4880579.06246  23108135.666    23108136.392    23108153.266
       227.000         181.000
                   3180359.65753  24906534.449
       180.000          88.000
  -2499750.06349  -1940433.94347  20603066.120    20603066.056    20603076.142
       236.000         208.000
  -6830883.41249  -5307993.69847  21436365.057    21436365.229    21436379.855
       235.000         199.000
  -1638211.47149  -1269628.67247  19973280.178    19973279.841    19973290.904
       238.000         205.000
  -4187088.99849  -3248487.88546  23458938.160    23458938.879    23458955.735
       217.000         164.000
 01 12 19 20 33 29.9990000  0  7G27G 2G26G28G 7G 8G11
    764637.89849    595490.41947  21493187.218    21493186.891    21493200.142
       237.000         197.000
   -218542.68249   -169504.40647  21634767.892    21634767.486    21634780.104
       240.000         202.000
  -6386836.46549  -4955226.38646  23089905.925    23089906.631    23089923.478
       228.000         178.000
  -2535746.52649  -1968483.12047  20596216.208    20596216.140    20596226.244
       238.000         207.000
  -6941269.68749  -5394008.81847  21415359.131    21415359.283    21415373.856
       238.000         198.000
  -1654280.77449  -1282150.23447  19970222.307    19970221.975    19970233.018
       240.000         205.000
  -4248846.92649  -3296610.86246  23447185.970    23447186.603    23447203.539
       221.000         169.000
 01 12 19 20 33 59.9990000  0  7G27G 2G26G28G 7G 8G11
    789124.68449    614570.92547  21497846.931    21497846.643    21497859.887
       236.000         197.000
   -218661.36249   -169596.91747  21634745.355    21634744.931    21634757.581
       239.000         203.000
  -6482143.75449  -5029491.66546  23071769.388    23071770.137    23071786.954
       228.000         178.000
  -2571499.98449  -1996342.93347  20589412.560    20589412.487    20589422.600
       237.000         208.000
  -7051269.81949  -5479723.03947  21394426.720    21394426.819    21394441.354
       236.000         200.000
  -1669908.00549  -1294327.32247  19967248.533    19967248.208    19967259.259
       239.000         205.000
  -4310144.86249  -3344375.36046  23435520.964    23435521.761    23435538.865
       223.000         167.000
 01 12 19 20 34 29.9990000  0  7G27G 2G26G28G 7G 8G11
    813997.95449    633952.56947  21502580.188    21502579.921    21502593.194
       237.000         198.000
   -218662.75449   -169598.04447  21634745.096    21634744.691    21634757.383
       238.000         203.000
  -6576964.80049  -5103378.06046  23053725.340    23053726.122    23053742.929
       229.000         179.000
  -2607016.87449  -2024018.40847  20582653.933    20582653.831    20582663.972
       237.000         208.000
  -7160888.21649  -5565139.81347  21373566.853    21373566.989    21373581.482
       235.000         200.000
  -1685098.44249  -1306164.06447  19964357.900    19964357.576    19964368.604
       238.000         205.000
  -4370987.10149  -3391784.84546  23423943.556    23423944.029    23423960.591
       219.000         168.000
 01 12 19 20 34 59.9990000  0  7G27G 2G26G28G 7G 8G11
    839271.79149    653646.34147  21507389.769    21507389.457    21507402.744
       235.000         197.000
   -218532.93849   -169496.92847  21634769.823    21634769.420    21634782.136
       238.000         203.000
  -6671283.25949  -5176872.81246  23035777.032    23035777.820    23035794.593
       228.000         179.000
  -2642283.36249  -2051498.76247  20575942.961    20575942.829    20575952.976
       236.000         208.000
  -7270108.96149  -5650246.73047  21352782.701    21352782.856    21352797.278
       236.000         200.000
  -1699837.00849  -1317648.68947  19961553.228    19961552.922    19961563.952
       238.000         205.000
  -4431357.59549  -3438826.63546  23412454.727    23412455.617    23412472.457
       220.000         169.000
 01 12 19 20 35 29.9990000  0  7G27G 2G26G28G 7G 8G11
    864925.05249    673635.76447  21512271.508    21512271.192    21512284.511
       236.000         197.000
   -218292.83349   -169309.87347  21634815.543    21634815.148    21634827.876
       238.000         202.000
  -6765118.08549  -5249990.72546  23017920.696    23017921.529    23017938.283
       226.000         177.000
  -2677320.97449  -2078800.77047  20569275.506    20569275.402    20569285.545
       236.000         208.000
  -7378951.16249  -5735058.69147  21332070.579    21332070.760    21332085.122
       237.000         200.000
  -1714143.83149  -1328796.89447  19958830.767    19958830.455    19958841.475
       239.000         205.000
  -4491275.22049  -3485515.57446  23401052.422    23401053.375    23401070.402
       216.000         165.000
 01 12 19 20 35 59.9990000  0  7G27G 2G26G28G 7G 8G11
    890978.56649    693937.07047  21517229.440    21517229.109    21517242.465
       235.000         197.000
   -217921.62049   -169020.65547  21634886.227    21634885.816    21634898.547
       237.000         202.000
  -6858446.23549  -5322713.82346  23000160.855    23000161.669    23000178.383
       229.000         177.000
  -2712109.05749  -2105908.33847  20562655.494    20562655.420    20562665.595
       235.000         208.000
  -7487392.16549  -5819558.02647  21311434.836    21311435.003    21311449.300
       237.000         200.000
  -1727997.34649  -1339591.87047  19956194.568    19956194.252    19956205.254
       239.000         206.000
  -4550716.88949  -3531833.70946  23389741.485    23389742.088    23389758.899
       223.000         170.000
 01 12 19 20 36 29.9990000  0  7G27G 2G26G28G 7G 8G11
    917409.75549    714532.67047  21522259.178    21522258.883    21522272.263
       235.000         197.000
   -217441.42149   -168646.51747  21634977.653    21634977.226    21634989.969
       238.000         202.000
  -6951287.84749  -5395057.81546  22982493.611    22982494.413    22982511.072
       226.000         180.000
  -2746670.47749  -2132839.28747  20556078.645    20556078.581    20556088.773
       235.000         208.000
  -7595452.74249  -5903760.93047  21290871.514    21290871.659    21290885.876
       237.000         200.000
  -1741418.85049  -1350050.21847  19953640.608    19953640.261    19953651.250
       239.000         206.000
  -4609703.56449  -3577797.21646  23378517.158    23378517.453    23378534.111
       226.000         175.000
 01 12 19 20 36 59.9990000  0  7G27G 2G26G28G 7G 8G11
    944207.49049    735413.88747  21527358.719    21527358.411    21527371.833
       235.000         197.000
   -216863.42049   -168196.17147  21635087.680    21635087.246    21635099.989
       238.000         202.000
  -7043652.17849  -5467029.87646  22964917.187    22964917.973    22964934.561
       230.000         179.000
  -2781016.58849  -2159602.45747  20549542.743    20549542.697    20549552.921
       235.000         208.000
  -7703142.11949  -5987674.59647  21270378.828    21270378.942    21270393.083
       236.000         201.000
  -1754418.86649  -1360180.13747  19951166.817    19951166.464    19951177.459
       239.000         206.000
  -4668244.28449  -3623413.19946  23367377.574    23367377.607    23367394.124
       224.000         169.000
 01 12 19 20 37 29.9990000  0  7G27G 2G26G28G 7G 8G11
    971412.96849    756612.82247  21532535.768    21532535.531    21532548.991
       234.000         196.000
   -216146.19549   -167637.34047  21635224.178    21635223.759    21635236.515
       238.000         203.000
  -7135495.69249  -5538596.10946  22947439.820    22947440.641    22947457.125
       230.000         179.000
  -2815106.42349  -2186165.93947  20543055.643    20543055.602    20543065.831
       236.000         208.000
  -7810417.26149  -6071265.48447  21249964.908    21249965.051    21249979.125
       236.000         201.000
  -1766955.18149  -1369948.72947  19948781.260    19948780.917    19948791.903
       240.000         206.000
  -4726295.79149  -3668648.04546  23356330.959    23356330.876    23356347.120
       221.000         167.000
 01 12 19 20 37 59.9990000  0  7G27G 2G26G28G 7G 8G11
    999004.17949    778112.32747  21537786.328    21537786.070    21537799.559
       234.000         196.000
   -215311.60049   -166987.05547  21635383.025    21635382.617    21635395.384
       238.000         203.000
  -7226838.13549  -5609771.91946  22930057.878    22930058.641    22930075.075
       230.000         180.000
  -2848962.34749  -2212547.15747  20536613.068    20536613.015    20536623.260
       236.000         208.000
  -7917298.08749  -6154549.11247  21229626.100    21229626.210    21229640.209
       236.000         201.000
  -1779048.83149  -1379372.37947  19946479.952    19946479.601    19946490.581
       239.000         206.000
  -4783877.75549  -3713516.99146  23345372.085    23345372.830    23345389.517
       212.000         164.000
 01 12 19 20 38 29.9990000  0  7G27G 2G26G28G 7G 8G11
   1026979.82049    799911.38947  21543109.999    21543109.750    21543123.281
       235.000         196.000
   -214360.76649   -166246.19447  21635564.004    21635563.588    21635576.362
       238.000         202.000
  -7317678.65449  -5680556.60546  22912771.403    22912772.169    22912788.574
       229.000         180.000
  -2882585.66049  -2238747.11847  20530214.746    20530214.693    20530224.940
       236.000         208.000
  -8023784.09249  -6237525.08947  21209362.375    21209362.485    21209376.444
       236.000         201.000
  -1790700.01649  -1388451.24447  19944262.841    19944262.488    19944273.450
       239.000         206.000
  -4840989.54849  -3758019.59146  23334503.506    23334504.556    23334521.393
       219.000         166.000
 01 12 19 20 38 59.9990000  0  7G27G 2G26G28G 7G 8G11
   1055344.70949    822013.75247  21548507.778    21548507.531    21548521.070
       235.000         196.000
   -213288.57349   -165410.76947  21635768.062    21635767.634    21635780.440
       238.000         202.000
  -7408010.10949  -5750944.61046  22895581.753    22895582.556    22895598.970
       229.000         180.000
  -2915971.78549  -2264762.25547  20523861.575    20523861.520    20523871.758
       237.000         208.000
  -8129868.72349  -6320188.30847  21189175.041    21189175.137    21189189.055
       235.000         201.000
  -1801903.13649  -1397180.98347  19942130.978    19942130.632    19942141.597
       239.000         206.000
  -4897624.64549  -3802150.74746  23323726.553    23323727.210    23323743.629
       226.000         168.000
 01 12 19 20 39 29.9990000  0  7G27G 2G26G28G 7G 8G11
   1084105.39849    844424.54347  21553980.910    21553980.612    21553994.191
       234.000         196.000
   -212088.27349   -164475.52547  21635996.506    21635996.094    21636008.879
       238.000         202.000
  -7497823.97849  -5820929.29246  22878490.656    22878491.396    22878507.871
       226.000         180.000
  -2949114.29349  -2290587.56947  20517554.806    20517554.707    20517564.927
       236.000         208.000
  -8235543.39749  -6402532.07847  21169065.790    21169065.818    21169079.685
       236.000         201.000
  -1812650.61049  -1405555.66047  19940085.793    19940085.491    19940096.446
       239.000         206.000
  -4953774.07449  -3845903.43046  23313042.109    23313042.477    23313058.952
       226.000         177.000
 01 12 19 20 39 59.9990000  0  7G27G 2G26G28G 7G 8G11
   1113240.12449    867126.78347  21559525.177    21559524.881    21559538.489
       234.000         196.000
   -210781.40349   -163457.24147  21636245.252    21636244.809    21636257.620
       238.000         202.000
  -7587139.74049  -5890525.83546  22861494.319    22861495.079    22861511.526
       226.000         180.000
  -2982035.14749  -2316240.15947  20511290.154    20511290.081    20511300.268
       236.000         208.000
  -8340828.10549  -6484571.97547  21149030.684    21149030.690    21149044.530
       236.000         201.000
  -1822963.26249  -1413591.50547  19938123.386    19938123.063    19938134.043
       239.000         206.000
  -5009457.85949  -3889293.26446  23302445.880    23302446.212    23302462.723
       224.000         169.000
 01 12 19 20 40 29.9990000  0  7G27G 2G26G28G 7G 8G11
   1142752.51349    890123.30547  21565141.383    21565141.011    21565154.653
       235.000         196.000
   -209364.06049   -162352.87447  21636514.991    21636514.558    21636527.364
       237.000         201.000
  -7675951.51849  -5959729.68446  22844593.890    22844594.652    22844611.006
       228.000         179.000
  -3014730.87649  -2341717.33747  20505068.356    20505068.272    20505078.447
       236.000         207.000
  -8445717.29249  -6566303.67047  21129070.841    21129070.839    21129084.646
       237.000         201.000
  -1832836.66749  -1421285.08347  19936244.536    19936244.239    19936255.234
       239.000         206.000
  -5064670.27449  -3932315.77946  23291939.620    23291939.695    23291955.761
       225.000         167.000
 01 12 19 20 40 59.9990000  0  7G27G 2G26G28G 7G 8G11
   1172651.81049    913421.31847  21570831.136    21570830.759    21570844.445
       234.000         196.000
   -207826.53449   -161154.85447  21636807.621    21636807.187    21636819.973
       237.000         201.000
  -7764247.94649  -6028531.95646  22827791.490    22827792.264    22827808.568
       227.000         180.000
  -3047192.26149  -2367011.91047  20498891.158    20498891.047    20498901.231
       236.000         208.000
  -8550199.85349  -6647718.51447  21109188.326    21109188.341    21109202.136
       236.000         202.000
  -1842260.36249  -1428628.23947  19934451.246    19934450.962    19934461.990
       238.000         206.000
  -5119399.89249  -3974962.11246  23281525.138    23281525.083    23281540.983
       222.000         169.000
 01 12 19 20 41 29.9990000  0  7G27G 2G26G28G 7G 8G11
   1202939.88849    937022.27347  21576594.910    21576594.493    21576608.218
       236.000         196.000
   -206166.70049   -159861.53847  21637123.533    21637123.077    21637135.863
       239.000         201.000
  -7852024.94249  -6096929.46046  22811087.913    22811088.717    22811105.017
       228.000         180.000
  -3079417.63549  -2392122.58447  20492758.821    20492758.756    20492768.928
       237.000         208.000
  -8654271.95949  -6728813.52547  21089383.941    21089383.979    21089397.743
       237.000         202.000
  -1851231.81249  -1435618.99047  19932744.040    19932743.767    19932754.807
       240.000         206.000
  -5173642.99849  -4017229.32546  23271202.069    23271202.627    23271218.764
       210.000         163.000
 01 12 19 20 41 59.9990000  0  7G27G 2G26G28G 7G 8G11
   1233612.51049    960922.87947  21582431.863    21582431.421    21582445.174
       235.000         196.000
   -204388.68649   -158476.13147  21637461.938    21637461.462    21637474.228
       237.000         201.000
  -7939284.80549  -6164923.99046  22794482.831    22794483.628    22794499.854
       228.000         180.000
  -3111411.34449  -2417052.74047  20486670.614    20486670.548    20486680.717
       237.000         208.000
  -8757936.28149  -6809590.77847  21069657.170    21069657.186    21069670.948
       236.000         202.000
  -1859754.39449  -1442259.97447  19931122.280    19931121.982    19931133.039
       239.000         206.000
  -5227401.88749  -4059119.26746  23260971.022    23260972.148    23260988.775
       217.000         167.000
 01 12 19 20 42 29.9990000  0  7G27G 2G26G28G 7G 8G11
   1264684.00649    985134.29347  21588344.638    21588344.236    21588358.005
       232.000         196.000
   -202477.76449   -156987.15947  21637825.616    21637825.133    21637837.895
       237.000         201.000
  -8026010.75349  -6232502.51346  22777979.360    22777980.123    22777996.275
       226.000         180.000
  -3143159.25649  -2441791.36447  20480629.176    20480629.120    20480639.296
       236.000         208.000
  -8861176.30849  -6890037.40847  21050011.143    21050011.142    21050024.891
       236.000         202.000
  -1867812.57249  -1448539.08647  19929588.868    19929588.572    19929599.646
       239.000         206.000
  -5280660.46049  -4100619.33946  23250836.740    23250837.518    23250853.802
       226.000         172.000
 01 12 19 20 42 59.9990000  0  7G27G 2G26G28G 7G 8G11
   1296143.08449   1009647.71447  21594331.183    21594330.832    21594344.616
       234.000         195.000
   -200444.77949   -155403.07147  21638212.540    21638212.047    21638224.797
       237.000         200.000
  -8112212.08549  -6299672.22446  22761575.740    22761576.480    22761592.532
       228.000         180.000
  -3174672.35849  -2466347.03147  20474632.452    20474632.384    20474642.548
       237.000         208.000
  -8964001.60849  -6970160.87947  21030444.015    21030444.018    21030457.764
       236.000         202.000
  -1875416.91549  -1454464.55947  19928141.800    19928141.547    19928152.627
       239.000         206.000
  -5333427.94949  -4141736.69546  23240795.752    23240796.287    23240812.328
       220.000         168.000
 01 12 19 20 43 29.9990000  0  7G27G 2G26G28G 7G 8G11
   1327971.58349   1034448.99447  21600388.102    21600387.709    21600401.529
       234.000         195.000
   -198307.35049   -153737.59947  21638619.282    21638618.820    21638631.588
       236.000         200.000
  -8197904.73549  -6366445.58046  22745268.906    22745269.619    22745285.567
       228.000         181.000
  -3205968.98449  -2490734.01047  20468676.929    20468676.822    20468686.985
       237.000         208.000
  -9066428.46249  -7049973.86747  21010952.747    21010952.717    21010966.465
       236.000         203.000
  -1882584.42649  -1460049.64147  19926777.872    19926777.622    19926788.726
       238.000         206.000
  -5385720.37049  -4182483.88346  23230844.783    23230845.206    23230861.315
       224.000         174.000
 01 12 19 20 43 59.9990000  0  7G27G 2G26G28G 7G 8G11
   1360181.31049   1059547.34647  21606517.520    21606517.138    21606530.971
       233.000         195.000
   -196053.27849   -151981.23247  21639048.295    21639047.783    21639060.564
       236.000         200.000
  -8283074.65149  -6432811.59846  22729061.529    22729062.233    22729078.164
       229.000         182.000
  -3237037.26649  -2514943.05847  20462764.865    20462764.741    20462774.873
       236.000         208.000
  -9168442.98249  -7129465.56047  20991539.856    20991539.879    20991553.626
       236.000         203.000
  -1889302.14949  -1465284.24647  19925499.504    19925499.292    19925510.417
       239.000         206.000
  -5437523.91449  -4222850.14146  23220987.013    23220987.361    23221003.599
       221.000         170.000
 01 12 19 20 44 29.9990000  0  7G27G 2G26G28G 7G 8G11
   1392771.71149   1084942.31547  21612719.416    21612718.990    21612732.867
       233.000         195.000
   -193682.76849   -150134.13847  21639499.436    21639498.927    21639511.711
       237.000         200.000
  -8367720.28149  -6498769.09346  22712953.900    22712954.605    22712970.501
       229.000         182.000
  -3267877.76549  -2538974.61847  20456896.100    20456895.980    20456906.125
       237.000         208.000
  -9270044.04049  -7208635.08047  20972205.674    20972205.731    20972219.455
       236.000         203.000
  -1895570.06549  -1470168.34247  19924306.823    19924306.548    19924317.707
       239.000         207.000
  -5488837.28249  -4262834.45046  23211222.404    23211222.628    23211238.692
       223.000         167.000
 01 12 19 20 44 59.9990000  0  7G27G 2G26G28G 7G 8G11
   1425740.14149   1110631.86247  21618993.250    21618992.790    21619006.698
       232.000         194.000
   -191197.98249   -148197.99647  21639972.298    21639971.812    21639984.614
       237.000         200.000
  -8451842.19749  -6564318.47946  22696945.965    22696946.667    22696962.486
       227.000         182.000
  -3298493.34749  -2562830.91747  20451070.164    20451070.034    20451080.167
       237.000         208.000
  -9371232.43849  -7287483.04447  20952950.075    20952950.110    20952963.820
       237.000         203.000
  -1901389.64549  -1474703.09147  19923199.387    19923199.131    19923210.305
       238.000         207.000
  -5539661.35849  -4302437.51146  23201550.819    23201551.050    23201567.146
       222.000         170.000
 01 12 19 20 45 29.9990000  0  7G27G 2G26G28G 7G 8G11
   1459086.30849   1136615.74247  21625338.861    21625338.462    21625352.408
       233.000         193.000
   -188598.69949   -146172.63447  21640466.985    21640466.491    21640479.302
       237.000         200.000
  -8535438.49449  -6629458.29346  22681037.928    22681038.681    22681054.523
       228.000         181.000
  -3328884.00649  -2586511.94747  20445287.016    20445286.881    20445297.003
       237.000         208.000
  -9472006.61849  -7366008.23847  20933773.253    20933773.316    20933786.990
       237.000         203.000
  -1906760.45249  -1478888.15747  19922177.421    19922177.118    19922188.295
       239.000         206.000
  -5589994.02949  -4341657.69346  23191972.212    23191972.797    23191989.128
       219.000         166.000
 01 12 19 20 45 59.9990000  0  7G27G 2G26G28G 7G 8G11
   1492812.23149   1162895.52147  21631756.773    21631756.412    21631770.374
       233.000         193.000
   -185882.33049   -144056.04447  21640983.947    21640983.434    21640996.278
       239.000         200.000
  -8618505.01249  -6694185.30446  22665230.696    22665231.518    22665247.345
       232.000         181.000
  -3359047.60649  -2610016.05947  20439547.072    20439546.939    20439557.059
       238.000         208.000
  -9572362.54749  -7444207.53047  20914676.053    20914676.108    20914689.761
       238.000         203.000
  -1911679.45349  -1482721.17547  19921241.391    19921241.079    19921252.268
       242.000         207.000
  -5639831.41349  -4380491.85346  23182488.401    23182488.988    23182505.320
       223.000         172.000
 01 12 19 20 46 29.9980000  0  7G27G 2G26G28G 7G 8G11
   1526913.41549   1189467.74347  21638246.087    21638245.745    21638259.725
       231.000         192.000
   -183051.78649   -141850.47247  21641522.608    21641522.117    21641534.983
       237.000         200.000
  -8701040.14149  -6758498.22546  22649524.666    22649525.480    22649541.227
       228.000         183.000
  -3388986.55749  -2633345.10347  20433849.853    20433849.731    20433859.856
       236.000         208.000
  -9672298.28049  -7522079.38247  20895658.829    20895658.876    20895672.488
       237.000         204.000
  -1916148.77049  -1486203.77547  19920390.918    19920390.625    19920401.812
       239.000         207.000
  -5689173.38749  -4418940.09746  23173098.342    23173099.216    23173116.018
       216.000         168.000
 01 12 19 20 46 59.9980000  0  7G27G 2G26G28G 7G 8G11
   1561398.32249   1216338.94147  21644808.497    21644808.117    21644822.107
       234.000         192.000
   -180100.26449   -139550.64447  21642084.327    21642083.828    21642096.706
       238.000         200.000
  -8783041.17549  -6822394.98746  22633920.335    22633921.110    22633936.821
       230.000         182.000
  -3418696.63949  -2656495.82447  20428196.265    20428196.108    20428206.227
       239.000         208.000
  -9771812.72149  -7599622.97247  20876721.789    20876721.808    20876735.378
       239.000         204.000
  -1920161.50049  -1489330.60447  19919627.378    19919627.051    19919638.242
       242.000         207.000
  -5738015.30349  -4456998.65946  23163804.224    23163804.906    23163821.685
       223.000         170.000
 01 12 19 20 47 29.9980000  0  7G27G 2G26G28G 7G 8G11
   1596261.56749   1243504.96547  21651442.852    21651442.490    21651456.515
       232.000         193.000
   -177031.53249   -137159.46847  21642668.343    21642667.833    21642680.730
       237.000         200.000
  -8864507.63749  -6885875.19546  22618417.691    22618418.477    22618434.116
       229.000         184.000
  -3448180.95749  -2679470.61347  20422585.579    20422585.419    20422595.553
       237.000         208.000
  -9870904.90949  -7676837.52347  20857865.115    20857865.098    20857878.629
       238.000         205.000
  -1923721.16349  -1492104.39147  19918950.004    19918949.691    19918960.883
       240.000         207.000
  -5786357.86549  -4494668.09146  23154605.238    23154605.742    23154622.434
       224.000         172.000
 01 12 19 20 47 59.9980000  0  7G27G 2G26G28G 7G 8G11
   1631514.95749   1270975.00147  21658151.484    21658151.098    21658165.150
       232.000         193.000
   -173833.11349   -134667.24247  21643277.021    21643276.519    21643289.413
       238.000         200.000
  -8945425.34349  -6948927.79746  22603019.427    22603020.220    22603035.827
       229.000         182.000
  -3477428.01949  -2702260.52947  20417020.042    20417019.900    20417030.026
       237.000         208.000
  -9969560.91849  -7753712.19847  20839091.404    20839091.392    20839104.875
       238.000         204.000
  -1926814.82249  -1494515.06247  19918361.362    19918361.017    19918372.198
       239.000         207.000
  -5834187.46149  -4531937.84646  23145503.574    23145503.933    23145520.685
       222.000         167.000
 01 12 19 20 48 29.9980000  0  7G27G 2G26G28G 7G 8G11
   1667130.67649   1298727.36047  21664929.063    21664928.657    21664942.755
       232.000         191.000
   -170532.59349   -132095.46447  21643905.114    21643904.633    21643917.519
       236.000         199.000
  -9025820.30249  -7011573.06646  22587720.571    22587721.410    22587736.990
       229.000         182.000
  -3506465.00049  -2724886.75347  20411494.480    20411494.354    20411504.480
       237.000         208.000
 -10067807.10949  -7830267.54647  20820395.681    20820395.662    20820409.100
       237.000         204.000
  -1929469.35449  -1496583.57047  19917856.218    19917855.900    19917867.095
       240.000         207.000
  -5881529.84449  -4568827.96246  23136494.736    23136494.885    23136511.771
       224.000         170.000
 01 12 19 20 48 59.9980000  0  7G27G 2G26G28G 7G 8G11
   1703121.88649   1326772.32047  21671778.028    21671777.653    21671791.814
       232.000         192.000
   -167115.99549   -129433.23447  21644555.289    21644554.809    21644567.711
       237.000         200.000
  -9105677.14049  -7073799.01246  22572524.222    22572525.049    22572540.599
       230.000         183.000
  -3535278.68349  -2747338.97347  20406011.415    20406011.285    20406021.424
       237.000         208.000
 -10165628.20149  -7906491.64047  20801780.795    20801780.815    20801794.222
       237.000         204.000
  -1931670.53849  -1498298.80947  19917437.368    19917437.040    19917448.246
       239.000         207.000
  -5928369.74949  -4605326.56746  23127580.959    23127581.377    23127598.285
       219.000         167.000
 01 12 19 20 49 29.9980000  0  7G27G 2G26G28G 7G 8G11
   1739504.38149   1355122.16147  21678701.489    21678701.111    21678715.332
       231.000         191.000
   -163567.13749   -126667.95247  21645230.674    21645230.177    21645243.075
       237.000         199.000
  -9184977.92749  -7135591.68446  22557433.655    22557434.478    22557449.989
       229.000         182.000
  -3563853.03349  -2769604.70447  20400573.891    20400573.770    20400583.916
       237.000         208.000
 -10263006.78049  -7982370.92747  20783250.127    20783250.198    20783263.563
       237.000         205.000
  -1933401.96349  -1499648.00247  19917107.898    19917107.588    19917118.795
       240.000         207.000
  -5974689.75449  -4641420.02346  23118766.356    23118766.831    23118783.692
       220.000         166.000
 01 12 19 20 49 59.9980000  0  7G27G 2G26G28G 7G 8G11
   1776262.02849   1383764.33647  21685696.338    21685695.954    21685710.246
       231.000         191.000
   -159901.15449   -123811.39647  21645928.330    21645927.836    21645940.738
       236.000         200.000
  -9263736.78049  -7196962.07246  22542446.184    22542447.022    22542462.537
       230.000         182.000
  -3592204.00349  -2791696.36847  20395178.886    20395178.761    20395188.908
       237.000         208.000
 -10359956.80749  -8057916.27547  20764801.020    20764801.122    20764814.440
       237.000         205.000
  -1934678.42849  -1500642.68147  19916865.035    19916864.694    19916875.929
       240.000         207.000
  -6020504.20349  -4677119.55946  23110047.436    23110048.388    23110065.304
       219.000         166.000
 01 12 19 20 50 29.9980000  0  7G27G 2G26G28G 7G 8G11
   1813392.01849   1412696.65447  21692762.031    21692761.666    21692776.020
       229.000         191.000
   -156120.17249   -120865.24047  21646647.883    21646647.388    21646660.294
       237.000         199.000
  -9341954.15449  -7257910.53146  22527561.825    22527562.671    22527578.132
       229.000         183.000
  -3620333.69849  -2813615.61647  20389826.016    20389825.876    20389835.994
       237.000         208.000
 -10456479.22849  -8133128.42447  20746433.304    20746433.425    20746446.713
       237.000         206.000
  -1935501.81449  -1501284.30647  19916708.355    19916708.046    19916719.276
       240.000         208.000
  -6065813.09449  -4712425.14046  23101425.632    23101426.290    23101443.227
       223.000         170.000
 01 12 19 20 50 59.9980000  0  7G27G 2G26G28G 7G 8G11
   1850902.31449   1441925.30947  21699900.107    21699899.749    21699914.152
       231.000         191.000
   -152215.66249   -117822.83047  21647390.907    21647390.431    21647403.351
       236.000         199.000
  -9419620.27049  -7318429.44446  22512782.369    22512783.192    22512798.582
       229.000         182.000
  -3648234.55849  -2835356.55147  20384516.677    20384516.536    20384526.625
       237.000         208.000
 -10552564.34849  -8207999.82347  20728148.857    20728148.937    20728162.189
       238.000         206.000
  -1935863.27749  -1501565.99247  19916639.631    19916639.278    19916650.519
       240.000         207.000
  -6110607.27549  -4747329.65646  23092901.878    23092902.316    23092919.260
       226.000         171.000
 01 12 19 20 51 29.9980000  0  7G27G 2G26G28G 7G 8G11
   1888765.57449   1471429.02247  21707105.306    21707104.974    21707119.433
       230.000         191.000
   -148214.14349   -114704.81847  21648152.408    21648151.938    21648164.880
       236.000         200.000
  -9496760.24149  -7378538.37846  22498102.976    22498103.802    22498119.104
       229.000         182.000
  -3675933.70549  -2856940.30847  20379245.744    20379245.567    20379255.644
       238.000         208.000
 -10648237.55949  -8282550.25847  20709942.785    20709942.840    20709956.048
       238.000         206.000
  -1935789.13349  -1501508.23347  19916653.771    19916653.408    19916664.645
       240.000         208.000
  -6154912.29049  -4781853.01046  23084471.397    23084471.452    23084488.251
       226.000         170.000
 01 12 19 20 51 59.9980000  0  7G27G 2G26G28G 7G 8G11
   1926988.32349   1501212.84547  21714378.928    21714378.636    21714393.122
       234.000         191.000
   -144108.64349   -111505.79547  21648933.676    21648933.228    21648946.197
       238.000         199.000
  -9573365.71949  -7438230.85546  22483525.290    22483526.126    22483541.356
       229.000         181.000
  -3703424.27649  -2878361.53747  20374014.434    20374014.303    20374024.366
       239.000         208.000
 -10743490.70549  -8356773.37947  20691816.624    20691816.670    20691829.850
       240.000         206.000
  -1935272.08749  -1501105.36747  19916752.131    19916751.817    19916763.042
       241.000         207.000
  -6198719.91449  -4815988.77846  23076135.629    23076135.330    23076151.703
       230.000         169.000
 01 12 19 20 52 29.9980000  0  7G27G 2G26G28G 7G 8G11
   1965588.17449   1531290.53547  21721724.387    21721724.065    21721738.580
       231.000         189.000
   -139880.69749   -108211.34047  21649738.311    21649737.830    21649750.833
       238.000         199.000
  -9649416.89849  -7497491.37846  22469053.074    22469053.930    22469069.179
       231.000         182.000
  -3730688.83149  -2899606.64947  20368826.200    20368826.048    20368836.076
       238.000         207.000
 -10838304.18949  -8430653.90147  20673774.117    20673774.162    20673787.307
       240.000         205.000
  -1934293.60049  -1500342.92747  19916938.385    19916938.045    19916949.232
       242.000         207.000
  -6242011.11749  -4849722.11646  23067897.526    23067897.227    23067913.466
       222.000         166.000
 01 12 19 20 52 59.9980000  0  7G27G 2G26G28G 7G 8G11
   2004561.63549   1561659.33747  21729140.923    21729140.578    21729155.098
       231.000         191.000
   -135533.01749   -104823.59347  21650565.744    21650565.220    21650578.245
       235.000         200.000
  -9724915.21249  -7556321.11346  22454686.230    22454686.989    22454702.229
       229.000         185.000
  -3757729.94149  -2920677.64347  20363680.439    20363680.306    20363690.325
       237.000         208.000
 -10932679.74549  -8504193.18947  20655814.926    20655814.998    20655828.093
       237.000         205.000
  -1932856.08349  -1499222.79647  19917211.933    19917211.611    19917222.821
       240.000         208.000
  -6284786.80449  -4883053.76146  23059757.193    23059757.088    23059773.458
       221.000         167.000
 01 12 19 20 53 29.9980000  0  7G27G 2G26G28G 7G 8G11
   2043878.80249   1592295.95547  21736622.910    21736622.514    21736637.029
       231.000         189.000
   -131094.60549   -101365.14947  21651410.365    21651409.873    21651422.929
       238.000         199.000
  -9799888.64949  -7614741.85246  22440419.190    22440419.930    22440435.178
       232.000         184.000
  -3784577.07749  -2941597.48547  20358571.568    20358571.463    20358581.489
       239.000         208.000
 -11026645.56249  -8577413.20447  20637933.741    20637933.793    20637946.846
       240.000         205.000
  -1930988.76849  -1497767.75847  19917567.298    19917566.979    19917578.177
       242.000         208.000
  -6327074.75849  -4916005.35746  23051709.939    23051709.964    23051726.144
       226.000         166.000
 01 12 19 20 53 59.9980000  0  7G27G 2G26G28G 7G 8G11
   2083572.31149   1623225.83547  21744176.441    21744176.030    21744190.593
       229.000         190.000
   -126531.99849    -97809.90747  21652278.644    21652278.155    21652291.224
       236.000         199.000
  -9874302.40249  -7672726.47846  22426258.620    22426259.344    22426274.592
       228.000         185.000
  -3811197.59049  -2962340.73047  20353505.867    20353505.745    20353515.767
       237.000         208.000
 -11120166.92249  -8650286.87747  20620137.095    20620137.179    20620150.196
       237.000         206.000
  -1928657.75649  -1495951.38547  19918010.900    19918010.589    19918021.779
       241.000         208.000
  -6368841.07849  -4948550.44346  23043762.252    23043762.150    23043778.156
       227.000         170.000
 01 12 19 20 54 29.9980000  0  7G27G 2G26G28G 7G 8G11
   2123613.31649   1654426.47647  21751796.102    21751795.709    21751810.258
       231.000         189.000
   -121873.25249    -94179.77447  21653165.226    21653164.741    21653177.821
       238.000         198.000
  -9948183.20349  -7730295.81746  22412199.517    22412200.211    22412215.414
       231.000         182.000
  -3837619.72549  -2982929.40647  20348477.905    20348477.787    20348487.802
       240.000         208.000
 -11213270.67349  -8722835.16047  20602420.021    20602420.050    20602433.014
       240.000         205.000
  -1925890.87249  -1493795.39047  19918537.461    19918537.134    19918548.334
       242.000         208.000
  -6410112.62249  -4980710.00146  23035908.496    23035908.510    23035924.259
       226.000         167.000
 01 12 19 20 54 59.9980000  0  7G27G 2G26G28G 7G 8G11
   2164027.57349   1685917.98947  21759486.774    21759486.397    21759500.966
       232.000         189.000
   -117092.07949    -90454.21447  21654075.102    21654074.614    21654087.698
       238.000         198.000
 -10021503.53549  -7787428.41446  22398246.920    22398247.687    22398262.830
       231.000         184.000
  -3863817.80749  -3003343.46847  20343492.560    20343492.453    20343502.488
       239.000         208.000
 -11305929.66649  -8795036.85747  20584787.513    20584787.534    20584800.463
       240.000         205.000
  -1922661.82049  -1491279.24647  19919151.971    19919151.626    19919162.823
       243.000         208.000
  -6450862.07549  -5012462.71246  23028154.446    23028154.213    23028169.868
       230.000         171.000
 01 12 19 20 55 29.9980000  0  7G27G 2G26G28G 7G 8G11
   2204791.91749   1717682.27647  21767244.092    21767243.708    21767258.306
       231.000         189.000
   -112210.61449    -86650.50347  21655004.062    21655003.567    21655016.671
       238.000         198.000
 -10094284.48349  -7844140.71246  22384397.134    22384397.868    22384412.946
       231.000         184.000
  -3889814.51749  -3023600.63047  20338545.574    20338545.435    20338555.495
       238.000         208.000
 -11398164.98349  -8866908.42547  20567235.594    20567235.651    20567248.547
       240.000         205.000
  -1918992.75449  -1488420.24847  19919850.212    19919849.837    19919861.044
       243.000         208.000
  -6491110.60649  -5043825.09546  23020495.343    23020495.202    23020510.789
       227.000         169.000
 01 12 19 20 55 59.9980000  0  7G27G 2G26G28G 7G 8G11
   2245916.54849   1749727.30047  21775069.992    21775069.583    21775084.198
       231.000         189.000
   -107217.68449    -82759.94647  21655954.230    21655953.736    21655966.830
       236.000         199.000
 -10166513.88749  -7900423.24546  22370652.298    22370652.993    22370668.049
       230.000         186.000
  -3915599.15649  -3043692.53947  20333638.900    20333638.755    20333648.849
       237.000         208.000
 -11489964.73649  -8938440.59347  20549766.609    20549766.640    20549779.504
       238.000         205.000
  -1914872.33049  -1485209.53147  19920634.306    19920633.946    19920645.141
       240.000         208.000
  -6530846.42349  -5074787.98846  23012933.505    23012933.602    23012949.139
       223.000         166.000
 01 12 19 20 56 29.9980000  0  7G27G 2G26G28G 7G 8G11
   2287398.46649   1782050.72647  21782963.819    21782963.424    21782978.081
       229.000         189.000
   -102115.23549    -78784.04247  21656925.248    21656924.749    21656937.842
       237.000         199.000
 -10238192.53949  -7956276.60946  22357012.175    22357012.904    22357027.970
       229.000         186.000
  -3941174.22749  -3063621.14447  20328772.109    20328771.976    20328782.081
       237.000         208.000
 -11581329.92849  -9009634.14347  20532380.298    20532380.329    20532393.157
       237.000         205.000
  -1910302.67749  -1481648.77647  19921503.850    19921503.525    19921514.718
       242.000         208.000
  -6570070.62049  -5105352.20946  23005469.069    23005469.290    23005485.109
       222.000         170.000
 01 12 19 20 56 59.9980000  0  7G27G 2G26G28G 7G 8G11
   2329240.99349   1814655.16247  21790926.320    21790925.901    21790940.568
       229.000         188.000
    -96899.25749    -74719.66247  21657917.818    21657917.348    21657930.445
       237.000         199.000
 -10309315.22149  -8011696.75346  22343477.841    22343478.587    22343493.674
       229.000         185.000
  -3966536.03649  -3083383.57147  20323945.895    20323945.764    20323955.883
       236.000         208.000
 -11672255.47949  -9080485.11547  20515077.640    20515077.685    20515090.473
       238.000         205.000
  -1905279.47149  -1477734.60347  19922459.779    19922459.434    19922470.615
       241.000         208.000
  -6608778.05049  -5135513.75046  22998102.704    22998103.262    22998119.521
       220.000         168.000
 01 12 19 20 57 29.9980000  0  7G27G 2G26G28G 7G 8G11
   2371444.49149   1847540.86747  21798957.471    21798957.068    21798971.774
       229.000         188.000
    -91568.60549    -70565.94147  21658932.257    21658931.781    21658944.895
       236.000         199.000
 -10379879.71349  -8066681.94646  22330049.738    22330050.502    22330065.586
       230.000         186.000
  -3991683.78449  -3102979.20047  20319160.444    20319160.299    20319170.412
       237.000         208.000
 -11762739.27649  -9150991.86547  20497859.050    20497859.101    20497871.852
       238.000         206.000
  -1899801.59149  -1473466.14047  19923502.178    19923501.852    19923513.006
       241.000         208.000
  -6646966.79449  -5165271.12146  22990835.528    22990836.060    22990852.720
       221.000         172.000
 01 12 19 20 57 59.9980000  0  7G27G 2G26G28G 7G 8G11
   2413987.66349   1880691.23446  21807053.229    21807052.843    21807067.608
       230.000         186.000
    -86143.66049    -66338.73447  21659964.636    21659964.153    21659977.272
       237.000         198.000
 -10449905.31249  -8121247.22046  22316724.212    22316724.964    22316740.052
       233.000         186.000
  -4016638.48449  -3122424.39847  20314411.692    20314411.561    20314421.682
       239.000         208.000
 -11852800.72449  -9221169.51547  20480720.878    20480720.893    20480733.623
       240.000         206.000
  -1893889.50749  -1468859.33647  19924627.227    19924626.906    19924638.072
       242.000         207.000
  -6684656.23849  -5194639.43146  22983663.162    22983663.806    22983680.889
       222.000         169.000
 01 12 19 20 58 29.9980000  0  7G27G 2G26G28G 7G 8G11
   2456900.17549   1914129.42446  21815219.233    21815218.951    21815233.727
       229.000         186.000
    -80593.41349    -62013.88847  21661020.818    21661020.355    21661033.514
       235.000         197.000
 -10519360.38249  -8175367.93846  22303507.216    22303507.985    22303523.053
       230.000         184.000
  -4041369.52649  -3141695.32147  20309705.518    20309705.391    20309715.504
       236.000         208.000
 -11942408.34849  -9290993.53047  20463669.013    20463669.056    20463681.742
       238.000         206.000
  -1887512.28549  -1463890.08447  19925840.756    19925840.450    19925851.638
       241.000         208.000
  -6721814.68649  -5223593.98646  22976591.596    22976592.376    22976609.884
       216.000         165.000
 01 12 19 20 58 59.9980000  0  7G27G 2G26G28G 7G 8G11
   2500174.84249   1947849.79346  21823454.272    21823453.967    21823468.778
       226.000         186.000
    -74924.29249    -57596.40647  21662099.671    21662099.196    21662112.345
       235.000         198.000
 -10588250.21549  -8229048.20346  22290397.760    22290398.564    22290413.598
       230.000         185.000
  -4065884.09149  -3160797.56647  20305040.542    20305040.417    20305050.520
       237.000         208.000
 -12031567.64249  -9360468.20347  20446702.482    20446702.523    20446715.178
       238.000         206.000
  -1880676.40449  -1458563.44647  19927141.562    19927141.283    19927152.491
       240.000         207.000
  -6758448.04049  -5252139.37846  22969619.891    22969620.960    22969638.707
       221.000         165.000
 01 12 19 20 59 29.9980000  0  7G27G 2G26G28G 7G 8G11
   2543799.43749   1981842.83046  21831755.868    21831755.537    21831770.430
       228.000         186.000
    -69147.67749    -53095.16747  21663198.931    21663198.473    21663211.644
       235.000         197.000
 -10656585.24649  -8282296.16046  22277393.982    22277394.738    22277409.778
       230.000         186.000
  -4090193.94549  -3179740.29347  20300414.503    20300414.395    20300424.504
       237.000         208.000
 -12120289.16649  -9429601.75247  20429819.286    20429819.294    20429831.931
       238.000         207.000
  -1873393.33749  -1452888.35747  19928527.523    19928527.209    19928538.438
       241.000         208.000
  -6794567.00849  -5280283.97146  22962746.769    22962747.639    22962765.315
       223.000         166.000
 01 12 19 20 59 59.9980000  0  7G27G 2G26G28G 7G 8G11
   2587766.67449   2016102.86846  21840122.729    21840122.332    21840137.248
       228.000         183.000
    -63269.66849    -48514.92147  21664317.481    21664317.064    21664330.224
       235.000         195.000
 -10724370.60249  -8335115.81746  22264494.872    22264495.553    22264510.533
       230.000         184.000
  -4114305.56349  -3198528.56347  20295826.178    20295826.096    20295836.191
       238.000         207.000
 -12208578.12949  -9498398.24647  20413018.402    20413018.376    20413030.998
       239.000         206.000
  -1865669.17149  -1446869.55947  19929997.363    19929997.072    19930008.317
       241.000         207.000
  -6830176.81549  -5308031.80846  22955970.786    22955971.314    22955988.699
       223.000         165.000
 01 12 19 21  0 29.9980000  0  7G27G 2G26G28G 7G 8G11
   2632080.37449   2050632.88746  21848555.410    21848555.056    21848570.000
       226.000         183.000
    -57285.54849    -43851.99447  21665456.245    21665455.815    21665468.985
       235.000         196.000
 -10791600.59649  -8387502.69146  22251701.381    22251702.052    22251716.958
       229.000         184.000
  -4138214.54149  -3217158.91947  20291276.446    20291276.358    20291286.462
       237.000         207.000
 -12296428.87649  -9566853.26347  20396300.911    20396300.865    20396313.457
       238.000         206.000
  -1857499.20049  -1440503.37747  19931552.063    19931551.784    19931563.044
       241.000         207.000
  -6865271.76449  -5335378.45846  22949292.865    22949293.152    22949310.104
       226.000         168.000
 01 12 19 21  0 59.9980000  0  7G27G 2G26G28G 7G 8G11
   2676740.91349   2085433.15446  21857054.113    21857053.783    21857068.753
       227.000         184.000
    -51193.62149    -39105.06247  21666615.535    21666615.110    21666628.235
       236.000         196.000
 -10858272.88649  -8439455.02346  22239014.016    22239014.665    22239029.481
       230.000         185.000
  -4161919.89549  -3235630.62447  20286765.476    20286765.372    20286775.457
       237.000         208.000
 -12383839.28249  -9634965.16947  20379667.229    20379667.150    20379679.699
       238.000         207.000
  -1848881.96049  -1433788.67847  19933191.902    19933191.611    19933202.856
       241.000         207.000
  -6899849.94349  -5362322.42346  22942713.186    22942713.304    22942729.939
       226.000         169.000
 01 12 19 21  1 29.9980000  0  7G27G 2G26G28G 7G 8G11
   2721766.63749   2120517.99246  21865622.295    21865621.999    21865636.988
       227.000         183.000
    -44974.70649    -34259.17047  21667798.964    21667798.540    21667811.683
       235.000         196.000
 -10924367.17449  -8490956.97346  22226436.640    22226437.261    22226451.990
       229.000         184.000
  -4185402.84549  -3253929.02547  20282296.806    20282296.704    20282306.789
       237.000         208.000
 -12470789.23749  -9702718.28147  20363121.154    20363121.052    20363133.570
       238.000         207.000
  -1839798.38649  -1426710.60347  19934920.460    19934920.183    19934931.410
       240.000         207.000
  -6933891.41149  -5388848.19146  22936235.614    22936235.553    22936251.992
       227.000         171.000
 01 12 19 21  1 59.9980000  0  7G27G 2G26G28G 7G 8G11
   2767120.61449   2155858.62146  21874253.064    21874252.684    21874267.698
       227.000         183.000
    -38664.47649    -29342.13647  21668999.766    21668999.354    21669012.486
       234.000         196.000
 -10989918.71749  -8542035.98646  22213962.488    22213963.146    22213977.830
       230.000         186.000
  -4208699.73349  -3272082.44247  20277863.575    20277863.464    20277873.532
       238.000         208.000
 -12557313.97249  -9770140.06447  20346655.963    20346655.867    20346668.361
       238.000         207.000
  -1830284.59749  -1419297.29247  19936730.934    19936730.630    19936741.835
       241.000         207.000
  -6967431.41149  -5414983.18746  22929853.232    22929853.142    22929869.635
       224.000         170.000
 01 12 19 21  2 29.9980000  0  7G27G 2G26G28G 7G 8G11
   2812807.54549   2191458.69246  21882947.121    21882946.721    21882961.779
       227.000         182.000
    -32257.01249    -24349.33347  21670219.122    21670218.688    21670231.802
       236.000         195.000
 -11054920.92549  -8592686.95346  22201592.944    22201593.580    22201608.251
       231.000         185.000
  -4231805.13349  -3290086.64747  20273466.752    20273466.646    20273476.711
       240.000         207.000
 -12643406.91449  -9837225.37847  20330272.952    20330272.857    20330285.328
       240.000         207.000
  -1820334.79049  -1411544.23047  19938624.388    19938624.040    19938635.244
       243.000         207.000
  -7000463.52449  -5440722.42746  22923567.440    22923567.342    22923583.820
       228.000         167.000
 01 12 19 21  2 59.9980000  0  7G27G 2G26G28G 7G 8G11
   2858842.42149   2227329.88846  21891707.395    21891706.972    21891722.070
       225.000         184.000
    -25736.37149    -19268.36047  21671459.952    21671459.551    21671472.685
       234.000         197.000
 -11119356.77149  -8642896.60246  22189331.068    22189331.740    22189346.434
       229.000         185.000
  -4254703.57349  -3307929.58747  20269109.329    20269109.199    20269119.259
       237.000         207.000
 -12729051.28949  -9903961.16447  20313975.273    20313975.203    20313987.656
       238.000         207.000
  -1809933.23549  -1403439.16447  19940603.755    19940603.418    19940614.635
       241.000         208.000
  -7032971.01149  -5466052.87046  22917381.356    22917381.339    22917397.513
       225.000         163.000
 01 12 19 21  3 29.9980000  0  7G27G 2G26G28G 7G 8G11
   2905241.72749   2263485.06246  21900536.936    21900536.562    21900551.704
       225.000         183.000
    -19085.16549    -14085.63647  21672725.639    21672725.242    21672738.401
       235.000         196.000
 -11183208.05149  -8692650.74646  22177180.423    22177181.137    22177195.818
       231.000         186.000
  -4277377.97149  -3325597.94547  20264794.527    20264794.394    20264804.443
       238.000         207.000
 -12814228.93249  -9970333.26147  20297766.391    20297766.357    20297778.798
       239.000         207.000
  -1799062.41549  -1394968.43647  19942672.417    19942672.083    19942683.322
       241.000         208.000
  -7064935.80149  -5490960.40346  22911298.627    22911298.652    22911314.380
       223.000         164.000
 01 12 19 21  3 59.9980000  0  7G27G 2G26G28G 7G 8G11
   2951983.91649   2299907.40546  21909431.803    21909431.389    21909446.577
       227.000         183.000
    -12323.45649     -8816.81747  21674012.375    21674011.987    21674025.167
       235.000         196.000
 -11246494.46149  -8741964.74046  22165137.386    22165138.064    22165152.677
       231.000         185.000
  -4299848.87349  -3343107.73047  20260518.397    20260518.318    20260528.367
       237.000         207.000
 -12898959.55649 -10036357.03647  20281642.590    20281642.580    20281655.011
       238.000         207.000
  -1787742.94549  -1386148.10647  19944826.484    19944826.153    19944837.372
       241.000         208.000
  -7096377.83149  -5515460.63845  22905315.056    22905315.290    22905330.589
       223.000         161.000
 01 12 19 21  4 29.9980000  0  7G27G 2G26G28G 7G 8G11
   2999060.94349   2336590.67846  21918390.362    21918389.945    21918405.178
       227.000         183.000
     -5458.17149     -3467.28847  21675318.822    21675318.415    21675331.638
       234.000         196.000
 -11309222.00849  -8790843.25846  22153200.778    22153201.385    22153215.903
       231.000         187.000
  -4322123.80049  -3360464.81147  20256279.590    20256279.512    20256289.565
       237.000         206.000
 -12983249.29949 -10102037.27147  20265602.699    20265602.692    20265615.117
       238.000         207.000
  -1775981.92949  -1376983.71947  19947064.554    19947064.234    19947075.446
       241.000         208.000
  -7127303.50749  -5539558.47846  22899429.905    22899430.204    22899445.283
       223.000         165.000
 01 12 19 21  4 59.9980000  0  7G27G 2G26G28G 7G 8G11
   3046488.81649   2373547.32246  21927415.645    21927415.283    21927430.574
       228.000         183.000
      1527.76349      1976.24847  21676648.227    21676647.826    21676661.072
       237.000         196.000
 -11371373.10549  -8839272.59146  22141373.800    22141374.367    22141388.856
       233.000         186.000
  -4344186.12649  -3377656.23047  20252081.253    20252081.184    20252091.243
       239.000         206.000
 -13067080.64349 -10167360.31447  20249650.074    20249650.051    20249662.453
       240.000         207.000
  -1763762.63649  -1367462.23547  19949389.857    19949389.530    19949400.725
       243.000         207.000
  -7157695.03849  -5563240.12246  22893646.747    22893646.859    22893661.905
       229.000         166.000
 01 12 19 21  5 29.9980000  0  7G27G 2G26G28G 7G 8G11
   3094250.39849   2410763.98646  21936504.528    21936504.121    21936519.461
       229.000         183.000
      8618.45949      7501.41247  21677997.552    21677997.164    21678010.430
       235.000         196.000
 -11432963.00549  -8887264.63446  22129653.486    22129654.107    22129668.576
       229.000         186.000
  -4366052.21649  -3394694.73247  20247920.256    20247920.188    20247930.262
       237.000         206.000
 -13150468.76849 -10232337.98147  20233781.778    20233781.755    20233794.136
       238.000         208.000
  -1751101.31749  -1357596.31947  19951799.252    19951798.938    19951810.107
       241.000         208.000
  -7187568.22649  -5586517.87046  22887962.165    22887962.242    22887977.178
       226.000         167.000
 01 12 19 21  5 59.9980000  0  7G27G 2G26G28G 7G 8G11
   3142354.40149   2448247.49646  21945658.639    21945658.132    21945673.519
       226.000         182.000
     15824.07949     13116.12447  21679368.804    21679368.414    21679381.661
       236.000         196.000
 -11493980.99349  -8934811.03546  22118042.068    22118042.699    22118057.111
       233.000         186.000
  -4387712.58149  -3411572.92747  20243798.421    20243798.358    20243808.440
       239.000         207.000
 -13233403.17549 -10296962.11047  20217999.874    20217999.804    20218012.159
       240.000         207.000
  -1737988.20749  -1347378.35947  19954294.673    19954294.326    19954305.503
       244.000         208.000
  -7216912.72449  -5609383.66846  22882378.240    22882378.156    22882393.175
       226.000         168.000
 01 12 19 21  6 29.9980000  0  7G27G 2G26G28G 7G 8G11
   3190787.02449   2485987.04846  21954875.122    21954874.667    21954890.110
       227.000         183.000
     23131.80849     18810.39347  21680759.446    21680759.054    21680772.297
       234.000         196.000
 -11554439.28049  -8981921.29346  22106537.115    22106537.810    22106552.166
       231.000         187.000
  -4409180.11349  -3428300.86047  20239713.279    20239713.217    20239723.300
       237.000         207.000
 -13315895.97549 -10361242.12847  20202301.935    20202301.870    20202314.209
       238.000         208.000
  -1724436.13349  -1336818.34647  19956873.536    19956873.226    19956884.396
       241.000         208.000
  -7245740.77549  -5631847.06746  22876892.406    22876892.380    22876907.485
       225.000         168.000
 01 12 19 21  6 59.9980000  0  7G27G 2G26G28G 7G 8G11
   3239551.45049   2523985.15646  21964154.823    21964154.351    21964169.829
       225.000         183.000
     30545.96549     24587.60047  21682170.397    21682169.973    21682183.213
       234.000         196.000
 -11614332.99449  -9028591.63146  22095139.708    22095140.360    22095154.693
       230.000         187.000
  -4430451.12549  -3444875.66247  20235665.566    20235665.471    20235675.557
       238.000         207.000
 -13397942.41449 -10425174.32347  20186688.969    20186688.887    20186701.213
       238.000         208.000
  -1710441.23249  -1325913.27547  19959536.769    19959536.419    19959547.575
       242.000         208.000
  -7274047.77049  -5653904.44446  22871505.970    22871505.756    22871520.886
       224.000         167.000
 01 12 19 21  7 29.9980000  0  7G27G 2G26G28G 7G 8G11
   3288636.85949   2562233.37246  21973495.627    21973495.116    21973510.641
       226.000         183.000
     38057.14849     30440.40047  21683599.743    21683599.323    21683612.593
       234.000         196.000
 -11673671.19549  -9074829.10246  22083847.889    22083848.598    22083862.905
       231.000         186.000
  -4451535.72649  -3461305.20547  20231653.308    20231653.191    20231663.311
       238.000         207.000
 -13479551.57049 -10488765.78147  20171159.154    20171159.111    20171171.411
       238.000         208.000
  -1696013.50149  -1314670.94447  19962282.335    19962281.980    19962293.118
       242.000         208.000
  -7301842.81249  -5675562.91446  22866216.526    22866216.457    22866231.551
       225.000         165.000
 01 12 19 21  7 59.9980000  0  7G27G 2G26G28G 7G 8G11
   3338055.51849   2600741.26446  21982899.805    21982899.279    21982914.853
       226.000         181.000
     45678.94249     36379.38847  21685050.213    21685049.744    21685062.997
       234.000         194.000
 -11732439.76449  -9120622.71246  22072664.554    22072665.250    22072679.527
       232.000         187.000
  -4472420.88549  -3477579.34647  20227678.992    20227678.881    20227688.999
       238.000         207.000
 -13560709.32749 -10552005.49647  20155715.270    20155715.224    20155727.516
       238.000         208.000
  -1681139.69749  -1303081.01747  19965112.790    19965112.415    19965123.535
       242.000         208.000
  -7329111.99149  -5696811.61646  22861027.361    22861027.357    22861042.261
       227.000         165.000
 01 12 19 21  8 29.9980000  0  7G27G 2G26G28G 7G 8G11
   3387811.54649   2639512.03146  21992368.154    21992367.650    21992383.274
       226.000         181.000
     53416.78749     42408.79547  21686522.691    21686522.246    21686535.490
       235.000         194.000
 -11790632.65749  -9165967.72446  22061590.732    22061591.431    22061605.710
       232.000         186.000
  -4493101.36049  -3493693.98947  20223743.588    20223743.504    20223753.617
       239.000         207.000
 -13641409.72249 -10614888.82147  20140358.433    20140358.365    20140370.656
       239.000         208.000
  -1665814.84549  -1291139.62447  19968029.055    19968028.677    19968039.789
       243.000         208.000
  -7355849.62549  -5717646.13145  22855938.973    22855939.176    22855953.809
       222.000         159.000
 01 12 19 21  8 59.9970000  0  7G27G 2G26G28G 7G 8G11
   3437889.17949   2678533.40546  22001897.757    22001897.203    22001912.896
       226.000         182.000
     61257.66049     48518.49347  21688014.828    21688014.350    21688027.607
       234.000         195.000
 -11848260.61849  -9210872.55046  22050624.474    22050625.138    22050639.367
       231.000         187.000
  -4513589.82649  -3509659.01847  20219844.791    20219844.682    20219854.796
       237.000         208.000
 -13721662.56749 -10677423.40547  20125086.772    20125086.679    20125098.968
       238.000         208.000
  -1650052.69549  -1278857.47947  19971028.520    19971028.151    19971039.274
       242.000         208.000
  -7382067.55449  -5738075.68646  22850949.460    22850949.845    22850964.413
       222.000         164.000
 01 12 19 21  9 29.9970000  0  7G27G 2G26G28G 7G 8G11
   3488310.68549   2717822.71646  22011492.596    22011492.222    22011507.962
       226.000         182.000
     69222.06949     54724.44047  21689530.442    21689529.970    21689543.229
       236.000         195.000
 -11905306.78249  -9255324.03746  22039768.876    22039769.543    22039783.751
       233.000         187.000
  -4533867.97649  -3525460.17347  20215985.972    20215985.894    20215995.965
       240.000         207.000
 -13801452.67349 -10739597.42147  20109903.153    20109903.070    20109915.325
       240.000         208.000
  -1633832.32749  -1266218.29147  19974115.179    19974114.821    19974125.946
       243.000         208.000
  -7407747.15849  -5758085.79846  22846062.770    22846063.092    22846077.793
       226.000         167.000
 01 12 19 21  9 59.9970000  0  7G27G 2G26G28G 7G 8G11
   3539064.45649   2757370.94946  22021150.816    22021150.460    22021166.251
       222.000         180.000
     77301.23249     61019.81947  21691067.915    21691067.428    21691080.698
       235.000         194.000
 -11961777.56749  -9299327.16346  22029022.773    22029023.431    22029037.605
       233.000         187.000
  -4553944.27549  -3541104.04347  20212165.607    20212165.491    20212175.559
       239.000         207.000
 -13880785.57249 -10801415.16647  20094806.564    20094806.452    20094818.700
       239.000         208.000
  -1617163.53849  -1253229.67047  19977287.199    19977286.813    19977297.985
       243.000         208.000
  -7432896.06349  -5777682.38746  22841277.271    22841277.481    22841292.221
       227.000         168.000
 01 12 19 21 10 29.9970000  0  7G27G 2G26G28G 7G 8G11
   3590149.67749   2797177.43846  22030872.096    22030871.780    22030887.613
       221.000         180.000
     85496.05749     67405.31347  21692627.431    21692626.914    21692640.181
       235.000         194.000
 -12017671.88249  -9342881.09447  22018386.418    22018387.055    22018401.182
       231.000         188.000
  -4573818.45149  -3556590.41147  20208383.664    20208383.567    20208393.625
       238.000         207.000
 -13959660.38349 -10862875.96047  20079797.112    20079797.014    20079809.236
       240.000         208.000
  -1600046.10849  -1239891.46647  19980544.588    19980544.191    19980555.384
       242.000         209.000
  -7457513.49249  -5796864.81946  22836592.889    22836592.983    22836607.784
       226.000         167.000
 01 12 19 21 10 59.9970000  0  7G27G 2G26G28G 7G 8G11
   3641551.56349   2837230.67746  22040653.519    22040653.363    22040669.217
       223.000         179.000
     93793.04749     73870.40947  21694206.313    21694205.816    21694219.104
       233.000         194.000
 -12073003.01449  -9385996.18046  22007857.188    22007857.815    22007871.914
       231.000         187.000
  -4593504.51449  -3571930.19747  20204637.490    20204637.424    20204647.476
       238.000         207.000
 -14038090.03849 -10923989.87647  20064872.356    20064872.279    20064884.470
       240.000         208.000
  -1582493.93249  -1226214.50647  19983884.677    19983884.303    19983895.503
       242.000         209.000
  -7481612.45249  -5815643.28346  22832006.891    22832007.008    22832021.869
       223.000         164.000
 01 12 19 21 11 29.9970000  0  7G27G 2G26G28G 7G 8G11
   3693282.06749   2877539.98646  22050497.741    22050497.472    22050513.365
       220.000         178.000
    102205.43549     80425.43447  21695807.195    21695806.695    21695819.986
       233.000         194.000
 -12127757.30049  -9428661.77547  21997437.803    21997438.368    21997452.455
       231.000         188.000
  -4612989.70349  -3587113.46947  20200929.591    20200929.507    20200939.549
       238.000         207.000
 -14116061.06649 -10984746.42547  20050034.859    20050034.818    20050046.979
       239.000         208.000
  -1564494.21449  -1212188.79847  19987309.979    19987309.583    19987320.787
       242.000         209.000
  -7505179.83049  -5834007.49446  22827521.950    22827522.169    22827536.965
       226.000         164.000
 01 12 19 21 11 59.9970000  0  7G27G 2G26G28G 7G 8G11
   3745332.21649   2918098.36546  22060402.675    22060402.360    22060418.304
       219.000         177.000
    110725.65049     87064.48447  21697428.655    21697428.084    21697441.391
       234.000         193.000
 -12181942.13449  -9470883.63946  21987126.614    21987127.258    21987141.323
       231.000         187.000
  -4632282.10849  -3602146.50647  20197258.339    20197258.260    20197268.344
       238.000         207.000
 -14193580.79749 -11045151.30947  20035283.249    20035283.234    20035295.367
       239.000         208.000
  -1546055.28049  -1197820.84447  19990818.865    19990818.441    19990829.654
       243.000         209.000
  -7528223.25849  -5851963.42146  22823137.222    22823137.287    22823151.770
       225.000         166.000
 01 12 19 21 12 29.9970000  0  7G27G 2G26G28G 7G 8G11
   3797695.68849   2958900.89346  22070367.174    22070366.906    22070382.882
       221.000         176.000
    119349.02449     93783.90447  21699069.647    21699069.115    21699082.433
       233.000         193.000
 -12235561.97249  -9512665.26747  21976923.075    21976923.691    21976937.692
       233.000         188.000
  -4651386.90449  -3617033.36447  20193622.828    20193622.732    20193632.819
       237.000         207.000
 -14270653.60249 -11105207.94447  20020616.685    20020616.685    20020628.799
       239.000         208.000
  -1527182.44949  -1183114.78247  19994410.290    19994409.863    19994421.082
       242.000         209.000
  -7550747.11249  -5869514.49846  22818851.291    22818851.266    22818865.695
       224.000         166.000
 01 12 19 21 12 59.9970000  0  7G27G 2G26G28G 7G 8G11
   3850366.86849   2999943.18846  22080390.375    22080390.027    22080406.028
       224.000         178.000
    128071.15449    100580.29647  21700729.531    21700728.943    21700742.266
       233.000         193.000
 -12288620.88449  -9554009.78647  21966826.283    21966826.870    21966840.841
       233.000         189.000
  -4670308.73649  -3631777.65447  20190022.099    20190022.014    20190032.109
       238.000         207.000
 -14347283.45649 -11164919.42247  20006034.387    20006034.429    20006046.527
       239.000         208.000
  -1507880.44349  -1168074.29847  19998083.338    19998082.952    19998094.185
       242.000         209.000
  -7572755.77049  -5886664.16146  22814662.679    22814662.948    22814677.767
       221.000         166.000
 01 12 19 21 13 29.9970000  0  7G27G 2G26G28G 7G 8G11
   3903348.59049   3041227.46746  22090472.594    22090472.245    22090488.270
       224.000         177.000
    136896.36749    107456.98547  21702408.919    21702408.389    21702421.718
       235.000         192.000
 -12341114.35649  -9594913.71847  21956837.096    21956837.661    21956851.591
       233.000         188.000
  -4689043.76849  -3646376.38447  20186456.908    20186456.842    20186466.947
       239.000         207.000
 -14423465.87449 -11224282.25447  19991537.306    19991537.331    19991549.395
       240.000         208.000
  -1488145.43049  -1152696.41247  20001838.849    20001838.438    20001849.681
       244.000         209.000
  -7594244.96949  -5903409.04446  22810573.582    22810573.699    22810588.695
       225.000         168.000
 01 12 19 21 13 59.9970000  0  7G27G 2G26G28G 7G 8G11
   3956645.52349   3082757.37046  22100614.805    22100614.448    22100630.520
       222.000         176.000
    145830.94949    114418.92047  21704109.205    21704108.659    21704121.991
       232.000         192.000
 -12393036.05749  -9635372.10946  21946956.630    21946957.231    21946971.117
       232.000         187.000
  -4707586.29849  -3660825.10347  20182928.414    20182928.316    20182938.438
       237.000         207.000
 -14499194.48249 -11283291.46047  19977126.571    19977126.590    19977138.617
       239.000         208.000
  -1467972.03849  -1136976.91947  20005677.744    20005677.354    20005688.616
       242.000         209.000
  -7615208.74649  -5919744.46846  22806584.718    22806584.615    22806599.324
       228.000         168.000
 01 12 19 21 14 29.9970000  0  7G27G 2G26G28G 7G 8G11
   4010244.96949   3124522.99746  22110814.560    22110814.228    22110830.305
       223.000         175.000
    154863.67449    121457.32147  21705828.123    21705827.585    21705840.915
       234.000         191.000
 -12444397.16449  -9675393.69146  21937182.866    21937183.470    21937197.317
       231.000         186.000
  -4725948.08049  -3675132.98947  20179434.303    20179434.203    20179444.296
       238.000         206.000
 -14574480.36349 -11341955.69847  19962800.112    19962800.093    19962812.076
       239.000         207.000
  -1447372.06549  -1120925.04347  20009597.860    20009597.443    20009608.729
       242.000         209.000
  -7635658.33849  -5935679.20446  22802693.605    22802693.382    22802707.834
       228.000         169.000
 01 12 19 21 14 59.9970000  0  7G27G 2G26G28G 7G 8G11
   4064162.09849   3166536.16246  22121074.849    22121074.462    22121090.542
       224.000         175.000
    164011.17149    128585.15347  21707568.906    21707568.367    21707581.694
       233.000         193.000
 -12495181.08049  -9714965.50347  21927518.952    21927519.562    21927533.327
       232.000         188.000
  -4744112.95949  -3689287.43847  20175977.644    20175977.540    20175987.633
       238.000         207.000
 -14649306.62549 -11400261.78847  19948561.117    19948561.077    19948573.018
       239.000         208.000
  -1426329.50349  -1104528.28947  20013602.157    20013601.747    20013613.059
       242.000         209.000
  -7655577.17549  -5951200.40846  22798903.114    22798902.945    22798917.685
       222.000         170.000
 01 12 19 21 15 29.9970000  0  7G27G 2G26G28G 7G 8G11
   4118376.03249   3208780.60846  22131391.615    22131391.170    22131407.268
       225.000         174.000
    173254.09749    135787.34447  21709327.808    21709327.291    21709340.633
       233.000         191.000
 -12545406.90349  -9754102.43546  21917961.259    21917961.826    21917975.606
       232.000         187.000
  -4762100.70049  -3703303.85747  20172554.704    20172554.577    20172564.668
       238.000         207.000
 -14723692.67849 -11458224.86647  19934405.866    19934405.809    19934417.706
       239.000         207.000
  -1404864.53549  -1087802.38647  20017686.884    20017686.443    20017697.761
       242.000         209.000
  -7674984.56849  -5966323.09146  22795209.779    22795209.732    22795224.760
       225.000         166.000
 01 12 19 21 15 59.9970000  0  7G27G 2G26G28G 7G 8G11
   4172919.42149   3251281.76846  22141771.053    22141770.587    22141786.710
       225.000         175.000
    182626.70449    143090.59847  21711111.513    21711110.912    21711124.255
       232.000         192.000
 -12595040.53649  -9792777.91647  21908516.244    21908516.818    21908530.592
       232.000         189.000
  -4779877.50949  -3717155.90947  20169171.872    20169171.760    20169181.856
       238.000         207.000
 -14797603.90249 -11515817.94347  19920340.980    19920340.900    19920352.774
       238.000         207.000
  -1382943.67949  -1070721.24447  20021858.296    20021857.882    20021869.214
       242.000         208.000
  -7693846.68849  -5981020.83346  22791620.446    22791620.398    22791635.543
       223.000         168.000
 01 12 19 21 16 29.9970000  0  7G27G 2G26G28G 7G 8G11
   4227763.92149   3294017.55946  22152207.802    22152207.310    22152223.471
       220.000         175.000
    192102.20649    150473.98747  21712914.619    21712914.092    21712927.475
       232.000         191.000
 -12644108.69849  -9831012.77347  21899178.806    21899179.399    21899193.200
       232.000         188.000
  -4797470.82649  -3730864.98347  20165823.980    20165823.863    20165833.961
       238.000         207.000
 -14871067.22149 -11573062.00547  19906361.277    19906361.231    19906373.061
       239.000         207.000
  -1360594.43149  -1053306.29847  20026111.245    20026110.837    20026122.182
       242.000         208.000
  -7712190.47749  -5995314.71446  22788129.620    22788129.646    22788144.964
       225.000         167.000
 01 12 19 21 16 59.9970000  0  7G27G 2G26G28G 7G 8G11
   4282910.45649   3336988.70446  22162701.963    22162701.518    22162717.679
       224.000         174.000
    201682.96349    157939.42847  21714737.920    21714737.302    21714750.716
       233.000         191.000
 -12692609.01849  -9868805.14546  21889949.428    21889950.014    21889963.841
       233.000         187.000
  -4814878.52349  -3744429.41147  20162511.418    20162511.293    20162521.387
       239.000         207.000
 -14944080.10149 -11629955.08047  19892467.362    19892467.270    19892479.070
       239.000         207.000
  -1337815.06749  -1035556.19447  20030446.051    20030445.647    20030457.000
       241.000         208.000
  -7730013.73549  -6009202.92046  22784738.051    22784738.050    22784753.166
       225.000         165.000
 01 12 19 21 17 29.9970000  0  7G27G 2G26G28G 7G 8G11
   4338382.23249   3380213.28546  22173258.113    22173257.617    22173273.783
       222.000         175.000
    211393.95149    165506.32547  21716585.885    21716585.307    21716598.757
       232.000         192.000
 -12740516.69349  -9906135.73346  21880832.838    21880833.431    21880847.228
       230.000         187.000
  -4832076.26049  -3757830.23947  20159238.801    20159238.672    20159248.776
       238.000         208.000
 -15016617.61549 -11686477.74447  19878663.886    19878663.778    19878675.550
       239.000         208.000
  -1314581.46249  -1017452.14247  20034867.305    20034866.894    20034878.255
       242.000         208.000
  -7747291.78649  -6022666.30246  22781449.759    22781449.982    22781465.390
       218.000         168.000
 01 12 19 21 17 59.9970000  0  7G27G 2G26G28G 7G 8G11
   4394151.39049   3423669.57646  22183870.778    22183870.305    22183886.482
       225.000         175.000
    221208.71549    173154.09047  21718453.585    21718453.068    21718466.536
       232.000         192.000
 -12787858.27149  -9943025.19347  21871823.926    21871824.538    21871838.337
       231.000         189.000
  -4849090.79449  -3771088.30447  20156001.044    20156000.918    20156011.037
       238.000         207.000
 -15088705.89549 -11742650.35747  19864945.899    19864945.767    19864957.520
       238.000         207.000
  -1290920.64949   -999015.20447  20039369.866    20039369.440    20039380.814
       241.000         207.000
  -7764051.08649  -6035725.46746  22778260.844    22778260.852    22778276.311
       229.000         173.000
 01 12 19 21 18 29.9970000  0  7G27G 2G26G28G 7G 8G11
   4450218.22349   3467357.80046  22194540.057    22194539.607    22194555.847
       224.000         175.000
    231129.29449    180884.29847  21720341.454    21720340.949    21720354.471
       234.000         191.000
 -12834631.84249  -9979472.05346  21862923.190    21862923.788    21862937.567
       233.000         187.000
  -4865920.83149  -3784202.61547  20152798.412    20152798.275    20152808.380
       240.000         207.000
 -15160343.20049 -11798471.57147  19851313.715    19851313.572    19851325.297
       241.000         207.000
  -1266831.67349   -980244.63747  20043953.876    20043953.463    20043964.828
       243.000         207.000
  -7780290.31149  -6048379.32646  22775170.932    22775170.725    22775186.121
       227.000         168.000
 01 12 19 21 18 59.9970000  0  7G27G 2G26G28G 7G 8G11
   4506572.79049   3511270.26846  22205264.291    22205263.676    22205279.960
       222.000         175.000
    241147.55849    188690.65247  21722247.962    21722247.441    21722260.985
       232.000         192.000
 -12880845.80149 -10015482.84847  21854128.838    21854129.472    21854143.245
       231.000         188.000
  -4882574.96149  -3797179.83747  20149629.211    20149629.100    20149639.193
       239.000         207.000
 -15231537.62549 -11853947.66847  19837765.799    19837765.648    19837777.360
       238.000         207.000
  -1242323.51649   -961147.42647  20048617.662    20048617.256    20048628.624
       241.000         208.000
  -7796017.56849  -6060634.28846  22772177.976    22772177.891    22772193.463
       223.000         174.000
 01 12 19 21 19 29.9970000  0  7G27G 2G26G28G 7G 8G11
   4563204.19349   3555398.44746  22216040.980    22216040.434    22216056.728
       218.000         173.000
    251253.89949    196565.61147  21724171.215    21724170.704    21724184.262
       232.000         192.000
 -12926509.74149 -10051065.06446  21845439.169    21845439.836    21845453.567
       232.000         187.000
  -4899063.21449  -3810027.80647  20146491.602    20146491.475    20146501.580
       238.000         208.000
 -15302298.70549 -11909086.09847  19824300.316    19824300.203    19824311.901
       238.000         207.000
  -1217406.40249   -941731.55047  20053359.317    20053358.871    20053370.255
       242.000         207.000
  -7811242.95449  -6072498.16946  22769280.948    22769280.774    22769296.314
       223.000         171.000
 01 12 19 21 19 59.9970000  0  7G27G 2G26G28G 7G 8G11
   4620129.36649   3599755.49246  22226873.815    22226873.079    22226889.418
       224.000         172.000
    261466.94649    204523.72847  21726114.802    21726114.269    21726127.855
       233.000         192.000
 -12971605.22549 -10086204.31846  21836857.750    21836858.401    21836872.084
       231.000         187.000
  -4915367.29749  -3822732.26947  20143389.037    20143388.912    20143399.011
       238.000         207.000
 -15372608.00949 -11963872.49547  19810920.844    19810920.731    19810932.403
       238.000         207.000
  -1192062.49149   -921983.10947  20058182.112    20058181.709    20058193.091
       242.000         207.000
  -7825948.26149  -6083956.81946  22766482.311    22766482.372    22766497.884
       220.000         168.000
 01 12 19 21 20 29.9970000  0  7G27G 2G26G28G 7G 8G11
   4677362.40549   3644352.45746  22237764.936    22237764.309    22237780.677
       226.000         173.000
    271802.61749    212577.40847  21728081.785    21728081.177    21728094.775
       234.000         192.000
 -13016116.78549 -10120888.57047  21828387.369    21828388.049    21828401.758
       233.000         188.000
  -4931471.79649  -3835281.20647  20140324.441    20140324.330    20140334.433
       240.000         207.000
 -15442449.66949 -12018294.49547  19797630.343    19797630.252    19797641.907
       239.000         207.000
  -1166277.12249   -901890.67547  20063088.952    20063088.542    20063099.938
       243.000         207.000
  -7840118.06749  -6094998.15046  22763785.928    22763785.985    22763801.292
       227.000         169.000
 01 12 19 21 20 59.9970000  0  7G27G 2G26G28G 7G 8G11
   4734894.54549   3689182.50146  22248713.324    22248712.485    22248728.864
       221.000         171.000
    282253.53449    220720.87147  21730070.591    21730069.974    21730083.636
       233.000         191.000
 -13060051.94149 -10155123.68146  21820026.711    21820027.399    21820041.107
       233.000         187.000
  -4947384.57749  -3847680.76147  20137296.311    20137296.206    20137306.313
       240.000         207.000
 -15511830.87949 -12072357.71247  19784427.497    19784427.380    19784439.033
       238.000         207.000
  -1140058.20249   -881460.41947  20068078.280    20068077.865    20068089.279
       243.000         207.000
  -7853760.22549  -6105628.35246  22761190.261    22761190.089    22761205.266
       226.000         170.000
 01 12 19 21 21 29.9970000  0  7G27G 2G26G28G 7G 8G11
   4792724.86849   3734244.88546  22259718.097    22259717.364    22259733.797
       224.000         172.000
    292820.66649    228954.92247  21732081.540    21732080.926    21732094.599
       234.000         190.000
 -13103410.08249 -10188909.15546  21811775.906    21811776.554    21811790.264
       233.000         187.000
  -4963105.32349  -3859930.66447  20134304.751    20134304.632    20134314.747
       241.000         207.000
 -15580751.21549 -12126061.78947  19771312.358    19771312.229    19771323.863
       239.000         207.000
  -1113405.87749   -860692.42947  20073150.096    20073149.690    20073161.108
       243.000         206.000
  -7866873.94149  -6115846.81246  22758694.764    22758694.627    22758709.859
       227.000         170.000
 01 12 19 21 21 59.9970000  0  7G27G 2G26G28G 7G 8G11
   4850848.61349   3779535.92846  22270778.806    22270778.087    22270794.556
       214.000         173.000
    303501.16049    237277.29347  21734113.949    21734113.421    21734127.104
       231.000         190.000
 -13146194.54849 -10222247.61847  21803634.222    21803634.874    21803648.550
       232.000         188.000
  -4978637.27549  -3872033.47147  20131349.158    20131349.017    20131359.090
       241.000         208.000
 -15649213.49549 -12179408.94847  19758284.419    19758284.245    19758295.857
       239.000         208.000
  -1086324.14549   -839589.84447  20078303.608    20078303.206    20078314.650
       243.000         207.000
  -7879462.87749  -6125656.35946  22756299.385    22756299.148    22756314.314
       223.000         173.000
 01 12 19 21 22 29.9970000  0  8G27G 2G26G 4G28G 7G 8G11
   4909273.43849   3825061.49846  22281896.951    22281896.169    22281912.645
       227.000         173.000
    314304.29349    245695.23947  21736169.840    21736169.253    21736182.975
       231.000         190.000
 -13188396.31349 -10255132.04347  21795603.414    21795604.097    21795617.727
       232.000         188.000
    -70485.09953                  24148156.445
       213.000          74.000
  -4993971.63649  -3883982.31347  20128431.140    20128430.988    20128441.046
       241.000         207.000
 -15717208.64349 -12232392.11447  19745345.334    19745345.153    19745356.744
       238.000         208.000
  -1058804.42049   -818145.97447  20083540.489    20083540.084    20083551.538
       242.000         206.000
  -7891518.18349  -6135050.14646  22754005.168    22754005.022    22754020.483
       214.000         171.000
 01 12 19 21 22 59.9970000  0  8G27G 2G26G 4G28G 7G 8G11
   4967981.49049   3870807.85546  22293068.962    22293068.101    22293084.650
       218.000         172.000
    325213.87349    254196.13847  21738245.981    21738245.333    21738259.072
       232.000         188.000
 -13230031.78749 -10287575.18447  21787680.357    21787681.068    21787694.675
       231.000         188.000
   -177165.58643                  24122108.237
       206.000          81.000
  -5009124.83149  -3895789.98347  20125547.541    20125547.420    20125557.487
       239.000         207.000
 -15784752.87949 -12285023.91047  19732492.081    19732491.869    19732503.450
       237.000         208.000
  -1030863.83449   -796374.14947  20088857.421    20088857.050    20088868.511
       240.000         206.000
  -7903056.42249  -6144041.05446  22751808.719    22751809.015    22751825.024
       214.000         168.000
 01 12 19 21 23 29.9970000  0  8G27G 2G26G 4G28G 7G 8G11
   5026994.74849   3916791.99046  22304298.915    22304298.088    22304314.689
       221.000         173.000
    336253.59149    262798.44147  21740346.794    21740346.192    21740359.905
       232.000         189.000
 -13271077.78449 -10319559.01247  21779869.514    21779870.204    21779883.819
       233.000         189.000
   -283933.66043                  24096038.968
       211.000          85.000
  -5024073.72249  -3907438.46047  20122702.854    20122702.726    20122712.807
       239.000         207.000
 -15851822.80749 -12337286.12347  19719728.999    19719728.827    19719740.401
       237.000         208.000
  -1002479.77949   -774256.77347  20094258.760    20094258.396    20094269.876
       240.000         206.000
  -7914054.59949  -6152611.10446  22749715.383    22749715.830    22749732.141
       212.000         163.000
 01 12 19 21 23 59.9970000  0  8G27G 2G26G 4G28G 7G 8G11
   5086293.68149   3962998.74046  22315583.252    22315582.470    22315599.097
       222.000         171.000
    347405.78749    271488.38547  21742469.048    21742468.454    21742482.180
       233.000         189.000
 -13311552.42649 -10351097.62347  21772167.472    21772168.109    21772181.695
       233.000         189.000
    -63551.01643                  24069945.566
       213.000          74.000
  -5038836.39149  -3918941.83947  20119893.588    20119893.477    20119903.558
       240.000         207.000
 -15918436.20449 -12389192.60047  19707052.777    19707052.661    19707064.222
       237.000         208.000
   -973670.89649   -751808.35747  20099740.950    20099740.590    20099752.089
       240.000         206.000
  -7924530.98949  -6160774.60046  22747721.418    22747721.930    22747738.413
       218.000         166.000
 01 12 19 21 24 29.9970000  0  8G27G 2G26G 4G28G 7G 8G11
   5145862.52549   4009415.82946  22326919.030    22326918.201    22326934.890
       208.000         171.000
    358656.42349    280255.05347  21744610.011    21744609.438    21744623.159
       233.000         189.000
 -13351470.06749 -10382202.21747  21764571.315    21764571.978    21764585.530
       233.000         188.000
   -170503.70045                  24043826.450
       214.000         146.000
  -5053427.30849  -3930311.38147  20117116.992    20117116.893    20117126.990
       239.000         207.000
 -15984607.34749 -12440754.45847  19694460.776    19694460.661    19694472.213
       236.000         208.000
   -944452.12549   -729040.55647  20105301.091    20105300.772    20105312.309
       239.000         206.000
  -7934499.94249  -6168542.69646  22745824.588    22745824.957    22745841.304
       219.000         168.000
 01 12 19 21 24 59.9970000  0  8G27G 2G26G 4G28G 7G 8G11
   5205698.89849   4056041.30146  22338305.705    22338304.887    22338321.574
       219.000         168.000
    370004.85949    289097.92747  21746769.631    21746769.054    21746782.779
       233.000         189.000
 -13390832.04349 -10412873.83347  21757080.960    21757081.597    21757095.094
       232.000         188.000
   -277560.07745                  24017681.803                    24017710.584
       211.000         149.000
  -5067847.74849  -3941548.09747  20114372.840    20114372.763    20114382.858
       240.000         207.000
 -16050337.26349 -12491972.51047  19681952.750    19681952.612    19681964.147
       238.000         208.000
   -914825.30849   -705954.79147  20110938.983    20110938.623    20110950.175
       241.000         206.000
  -7943963.06749  -6175916.65946  22744024.093    22744024.341    22744040.629
       220.000         170.000
 01 12 19 21 25 29.9970000  0  8G27G 2G26G 4G28G 7G 8G11
   5265821.21749   4102889.64446  22349746.781    22349745.959    22349762.742
       226.000         169.000
    381471.39049    298032.81447  21748951.717    21748951.113    21748964.884
       232.000         189.000
 -13429618.48549 -10443096.98047  21749700.120    21749700.731    21749714.195
       232.000         188.000
   -959269.07349   -384703.11345  23991515.922    23991514.805    23991543.618
       206.000         149.000
  -5082077.73549  -3952636.41347  20111664.983    20111664.873    20111674.965
       238.000         207.000
 -16115605.67949 -12542830.95247  19669532.503    19669532.398    19669543.925
       237.000         208.000
   -884771.06549   -682535.96847  20116658.166    20116657.797    20116669.378
       240.000         207.000
  -7952900.52449  -6182881.02246  22742323.646    22742323.724    22742339.753
       217.000         165.000
 01 12 19 21 25 59.9970000  0  8G27G 2G26G 4G28G 7G 8G11
   5326226.07649   4149958.19646  22361241.785    22361240.840    22361257.611
       213.000         168.000
    393054.45649    307058.50347  21751155.957    21751155.383    21751169.127
       233.000         188.000
 -13467831.50549 -10472873.31846  21742428.363    21742428.998    21742442.417
       234.000         187.000
  -1096880.60859   -491932.10455  23965329.031    23965328.855    23965356.370
       206.000         150.000
  -5096119.44749  -3963578.03247  20108992.930    20108992.836    20109002.927
       241.000         206.000
 -16180414.71349 -12593331.44147  19657199.758    19657199.609    19657211.119
       239.000         207.000
   -854292.15549   -658786.23747  20122458.218    20122457.801    20122469.384
       242.000         206.000
  -7961314.58249  -6189437.54646  22740722.582    22740722.644    22740738.400
       225.000         168.000
 01 12 19 21 26 29.9970000  0  8G27G 2G26G 4G28G 7G 8G11
   5386904.92249   4197240.15846  22372788.649    22372787.813    22372804.689
       224.000         168.000
    404747.24849    316169.71447  21753381.053    21753380.510    21753394.267
       231.000         188.000
 -13505478.46949 -10502208.55946  21735264.382    21735264.981    21735278.355
       232.000         187.000
  -1234606.99449   -599250.53545  23939120.129    23939119.560    23939147.661
       206.000         151.000
  -5109979.77749  -3974378.30347  20106355.400    20106355.296    20106365.394
       239.000         207.000
 -16244771.26749 -12643479.34147  19644953.060    19644952.904    19644964.408
       236.000         207.000
   -823396.30049   -634711.60747  20128337.579    20128337.141    20128348.739
       239.000         206.000
  -7969212.88349  -6195592.17846  22739220.244    22739219.914    22739235.501
       224.000         169.000
 01 12 19 21 26 59.9970000  0  8G27G 2G26G 4G28G 7G 8G11
   5447858.64849   4244736.37146  22384387.833    22384387.062    22384403.998
       221.000         168.000
    416552.56749    325368.60847  21755627.635    21755627.036    21755640.832
       232.000         188.000
 -13542557.30349 -10531101.11746  21728208.424    21728209.038    21728222.393
       232.000         187.000
  -1372443.08049   -706654.39845  23912890.433    23912890.276    23912918.334
       205.000         149.000
  -5123656.75849  -3985035.71547  20103752.761    20103752.649    20103762.746
       239.000         207.000
 -16308673.11449 -12693272.93147  19632792.914    19632792.733    19632804.228
       237.000         208.000
   -792082.20049   -610311.07747  20134296.472    20134296.062    20134307.690
       239.000         206.000
  -7976593.11749  -6201343.17246  22737816.101    22737815.635    22737831.234
       223.000         168.000
 01 12 19 21 27 29.9970000  0  8G27G 2G26G 4G28G 7G 8G11
   5509095.52949   4292453.22346  22396041.293    22396040.308    22396057.253
       210.000         164.000
    428480.58849    334663.10247  21757897.455    21757896.928    21757910.706
       231.000         188.000
 -13579058.34749 -10559543.44347  21721262.496    21721263.087    21721276.420
       232.000         189.000
  -1510376.56049   -814134.12545  23886641.930    23886641.974    23886670.047
       205.000         148.000
  -5137140.72749  -3995542.73547  20101186.857    20101186.752    20101196.841
       239.000         207.000
 -16372110.23749 -12742704.40547  19620721.170    19620721.019    19620732.481
       236.000         208.000
   -760340.39449   -585577.26247  20140336.820    20140336.387    20140348.003
       239.000         206.000
  -7983445.97649  -6206683.18946  22736512.164    22736511.738    22736527.072
       221.000         166.000
 01 12 19 21 27 59.9970000  0  8G27G 2G26G 4G28G 7G 8G11
   5570589.80149   4340370.57046  22407743.283    22407742.478    22407759.545
       214.000         165.000
    440507.35149    344034.55147  21760186.203    21760185.590    21760199.388
       231.000         189.000
 -13615006.42749 -10587554.90047  21714421.795    21714422.385    21714435.684
       232.000         189.000
  -1648429.05549   -921706.56845  23860371.213    23860371.252    23860399.243
       199.000         148.000
  -5150455.84749  -4005918.18747  20098653.096    20098652.979    20098663.067
       239.000         207.000
 -16435107.10749 -12791792.82447  19608733.271    19608733.074    19608744.506
       237.000         208.000
   -728196.15149   -560529.86247  20146453.675    20146453.271    20146464.918
       239.000         206.000
  -7989796.55149  -6211631.82846  22735304.050    22735303.558    22735318.382
       225.000         165.000
 01 12 19 21 28 29.9970000  0  8G27G 2G26G 4G28G 7G 8G11
   5632355.06749   4388499.14646  22419497.198    22419496.234    22419513.209
       222.000         164.000
    452648.55449    353495.18446  21762496.760    21762496.065    21762509.856
       231.000         187.000
 -13650386.48749 -10615123.73747  21707689.181    21707689.756    21707703.028
       233.000         189.000
  -1786582.37549  -1029357.52945  23834080.929    23834081.291    23834109.269
       196.000         145.000
  -5163586.88449  -4016150.19647  20096154.369    20096154.224    20096164.324
       239.000         207.000
 -16497648.56249 -12840526.37747  19596832.039    19596831.788    19596843.190
       236.000         207.000
   -695635.11149   -535157.67347  20152649.912    20152649.487    20152661.142
       239.000         206.000
  -7995629.51349  -6216177.07146  22734194.308    22734193.757    22734208.429
       222.000         165.000
 01 12 19 21 28 59.9970000  0  8G27G 2G26G 4G28G 7G 8G11
   5694388.43349   4436836.63846  22431301.874    22431300.919    22431317.960
       207.000         165.000
    464902.98449    363044.05047  21764828.703    21764828.075    21764841.853
       231.000         188.000
 -13685200.39949 -10642251.42247  21701064.279    21701064.843    21701078.139
       232.000         190.000
  -1924835.40049  -1137086.16445  23807771.836    23807772.183    23807800.216
       195.000         143.000
  -5176535.69749  -4026240.21947  20093690.331    20093690.177    20093700.266
       240.000         207.000
 -16559736.08549 -12888906.21947  19585017.078    19585016.905    19585028.258
       236.000         207.000
   -662659.73749   -509462.62647  20158924.959    20158924.550    20158936.224
       239.000         206.000
  -8000947.26249  -6220320.94946  22733181.965    22733181.689    22733196.717
       217.000         167.000
 01 12 19 21 29 29.9970000  0  8G27G 2G26G 4G28G 7G 8G11
   5756691.63149   4485384.33646  22443157.638    22443156.989    22443174.066
       220.000         165.000
    477274.38549    372684.05547  21767182.933    21767182.330    21767196.117
       234.000         188.000
 -13719445.19849 -10668935.63947  21694547.727    21694548.253    21694561.552
       234.000         190.000
  -2063182.38249  -1244887.98245  23781444.579    23781445.227    23781473.277
       195.000         140.000
  -5189298.97849  -4036185.67047  20091261.583    20091261.422    20091271.481
       241.000         207.000
 -16621366.36949 -12936929.77447  19573289.182    19573289.004    19573300.328
       238.000         207.000
   -629267.35049   -483442.62947  20165279.336    20165278.950    20165290.659
       240.000         206.000
  -8005746.84249  -6224061.01646  22732268.635    22732268.430    22732283.462
       223.000         163.000
 01 12 19 21 29 59.9970000  0  8G27G 2G26G 4G28G 7G 8G11
   5819262.02249   4534140.25746  22455064.764    22455063.900    22455081.049
       217.000         163.000
    489761.98949    382414.60347  21769559.288    21769558.719    21769572.499
       230.000         188.000
 -13753122.50649 -10695177.66647  21688139.190    21688139.648    21688152.907
       234.000         190.000
  -2201621.33649  -1352761.54945  23755099.469    23755100.739    23755128.732
       195.000         147.000
  -5201877.79449  -4045987.38147  20088867.945    20088867.773    20088877.832
       240.000         207.000
 -16682540.66049 -12984598.00647  19561648.070    19561647.896    19561659.183
       236.000         207.000
   -595459.76649   -457099.10247  20171712.795    20171712.369    20171724.104
       239.000         206.000
  -8010029.85549  -6227398.53745  22731453.430    22731453.279    22731468.287
       218.000         160.000
 01 12 19 21 30 29.9970000  0  8G27G 2G26G 4G28G 7G 8G11
   5882091.23449   4583097.88846  22467020.766    22467020.051    22467037.312
       211.000         164.000
    502359.55149    392230.84646  21771956.584    21771955.999    21771969.797
       233.000         187.000
 -13786239.27649 -10720982.90447  21681837.233    21681837.711    21681850.989
       233.000         190.000
  -2340156.10249  -1460709.71545  23728736.220    23728737.845    23728765.897
       199.000         146.000
  -5214278.81349  -4055650.55047  20086508.129    20086507.952    20086517.998
       241.000         207.000
 -16743265.63149 -13031916.11847  19550092.468    19550092.280    19550103.544
       237.000         207.000
   -561244.69249   -430438.04947  20178223.765    20178223.324    20178235.080
       239.000         206.000
  -8013803.29449  -6230338.96846  22730735.235    22730735.177    22730750.280
       219.000         165.000
 01 12 19 21 30 59.9970000  0  8G27G 2G26G 4G28G 7G 8G11
   5945164.01449   4632245.28646  22479023.276    22479022.582    22479039.829
       213.000         166.000
    515053.37349    402122.08646  21774372.083    21774371.595    21774385.406
       231.000         187.000
 -13818809.92849 -10746362.59347  21675639.183    21675639.661    21675653.009
       231.000         189.000
  -2478797.92349  -1568741.40645  23702352.751    23702354.700    23702382.642
       201.000         151.000
  -5226515.97549  -4065186.03147  20084179.497    20084179.320    20084189.352
       241.000         207.000
 -16803555.40249 -13078895.11547  19538619.670    19538619.488    19538630.730
       236.000         207.000
   -526636.89449   -403470.97747  20184809.440    20184809.017    20184820.806
       239.000         206.000
  -8017081.50349  -6232893.51346  22730111.098    22730111.281    22730126.805
       215.000         166.000
 01 12 19 21 31 29.9960000  0  8G27G 2G26G 4G28G 7G 8G11
   6008499.46849   4681597.31746  22491075.708    22491075.072    22491092.481
       223.000         167.000
    527866.30149    412106.13146  21776810.308    21776809.855    21776823.683
       232.000         186.000
 -13850810.87849 -10771298.37946  21669549.493    21669550.022    21669563.358
       233.000         187.000
  -2617516.51849  -1676832.93545  23675954.654    23675956.829    23675984.710
       212.000         150.000
  -5238566.20949  -4074575.86147  20081886.438    20081886.256    20081896.291
       243.000         206.000
 -16863384.98749 -13125515.53247  19527234.445    19527234.269    19527245.488
       237.000         206.000
   -491615.31949   -376181.49147  20191473.883    20191473.445    20191485.251
       241.000         205.000
  -8019842.37249  -6235044.94646  22729585.948    22729585.979    22729601.782
       222.000         168.000
 01 12 19 21 31 59.9960000  0  8G27G 2G26G 4G28G 7G 8G11
   6072080.29649   4731140.62446  22503174.953    22503174.320    22503191.690
       219.000         168.000
    540779.75049    422168.52646  21779267.682    21779267.253    21779281.109
       232.000         187.000
 -13882264.84749 -10795807.92547  21663564.042    21663564.535    21663577.825
       231.000         188.000
  -2756338.58549  -1785005.12545  23649537.041    23649539.327    23649567.001
       214.000         150.000
  -5250450.28749  -4083836.19847  20079624.966    20079624.805    20079634.850
       240.000         207.000
 -16922778.71249 -13171796.30347  19515932.207    19515931.990    19515943.194
       236.000         207.000
   -456198.90649   -348584.32047  20198213.442    20198213.010    20198224.826
       239.000         206.000
  -8022106.66749  -6236809.40446  22729155.517    22729155.257    22729171.145
       225.000         168.000
 01 12 19 21 32 29.9960000  0  8G27G 2G26G 4G28G 7G 8G11
   6135921.77949   4780886.97446  22515323.848    22515323.117    22515340.571
       218.000         166.000
    553812.73849    432324.04446  21781747.739    21781747.377    21781761.260
       229.000         187.000
 -13913152.28149 -10819876.02647  21657686.232    21657686.772    21657700.123
       232.000         188.000
  -2895237.23049  -1893237.01945  23623104.988    23623107.172    23623134.776
       211.000         148.000
  -5262148.78949  -4092951.93747  20077398.832    20077398.654    20077408.725
       240.000         206.000
 -16981715.65949 -13217721.15747  19504716.913    19504716.637    19504727.823
       236.000         207.000
   -420370.43249   -320666.07747  20205031.389    20205030.976    20205042.802
       238.000         205.000
  -8023855.79249  -6238172.40046  22728822.728    22728822.537    22728838.308
       216.000         163.000
 01 12 19 21 32 59.9960000  0  8G27G 2G26G 4G28G 7G 8G11
   6200000.07049   4830817.91346  22527517.858    22527516.964    22527534.418
       214.000         163.000
    566943.02549    442555.37947  21784246.403    21784246.017    21784259.951
       231.000         188.000
 -13943496.10949 -10843520.53647  21651911.970    21651912.487    21651925.835
       232.000         189.000
  -3034232.35549  -2001544.15745  23596654.331    23596656.713    23596684.140
       213.000         149.000
  -5273684.18849  -4101940.57847  20075203.727    20075203.541    20075213.640
       240.000         206.000
 -17040218.42349 -13263307.68647  19493584.151    19493583.901    19493595.061
       236.000         208.000
   -384153.21149   -292444.91747  20211923.312    20211922.937    20211934.748
       239.000         205.000
  -8025112.83249  -6239151.95446  22728583.482    22728583.349    22728599.157
       225.000         168.000
 01 12 19 21 33 29.9960000  0  8G27G 2G26G 4G28G 7G 8G11
   6264322.00649   4880938.67646  22539758.060    22539757.200    22539774.757
       213.000         165.000
    580179.46349    452869.44846  21786765.226    21786764.872    21786778.804
       229.000         186.000
 -13973288.42849 -10866735.31947  21646242.641    21646243.176    21646256.507
       232.000         188.000
  -3173312.76349  -2109917.74445  23570188.048    23570190.065    23570217.312
       217.000         146.000
  -5285047.95549  -4110795.47947  20073041.241    20073041.117    20073051.210
       240.000         206.000
 -17098278.70749 -13308549.43247  19482535.659    19482535.391    19482546.501
       237.000         207.000
   -347540.02249   -263915.22747  20218890.662    20218890.237    20218902.060
       238.000         205.000
  -8025869.81749  -6239741.84145  22728439.568    22728439.365    22728455.223
       220.000         160.000
 01 12 19 21 33 59.9960000  0  8G27G 2G26G 4G28G 7G 8G11
   6328920.12949   4931274.62546  22552050.877    22552049.992    22552067.602
       215.000         164.000
    593556.71449    463293.24846  21789311.006    21789310.537    21789324.484
       233.000         187.000
 -14002495.63549 -10889494.14347  21640684.658    21640685.190    21640698.540
       231.000         189.000
  -3312441.33349  -2218328.92445  23543712.198    23543714.194    23543741.227
       218.000         142.000
  -5296206.02849  -4119490.07547  20070917.949    20070917.818    20070927.916
       240.000         206.000
 -17155862.47049 -13353419.84847  19471577.812    19471577.541    19471588.628
       235.000         207.000
   -310497.30049   -235050.81747  20225939.702    20225939.293    20225951.117
       238.000         205.000
  -8026093.60849  -6239916.24946  22728397.014    22728396.845    22728412.549
       222.000         167.000
 01 12 19 21 34 29.9960000  0  8G27G 2G26G 4G28G 7G 8G11
   6393751.02949   4981791.99346  22564387.992    22564387.080    22564404.703
       215.000         166.000
    607033.58149    473794.62146  21791875.571    21791875.134    21791889.094
       233.000         186.000
 -14031159.96449 -10911829.96547  21635229.993    21635230.518    21635243.839
       235.000         188.000
  -3451656.65949  -2326807.71545  23517219.877    23517221.790    23517248.191
       218.000         139.000
  -5307200.05049  -4128056.84647  20068825.898    20068825.738    20068835.847
       242.000         206.000
 -17213011.69349 -13397951.66747  19460702.608    19460702.368    19460713.435
       237.000         205.000
   -273067.84049   -205885.08247  20233062.341    20233061.920    20233073.764
       240.000         204.000
  -8025826.21649  -6239707.90246  22728448.012    22728447.841    22728463.629
       225.000         168.000
 01 12 19 21 34 59.9960000  0  8G27G 2G26G 4G28G 7G 8G11
   6458830.81849   5032503.25946  22576772.225    22576771.494    22576789.226
       216.000         169.000
    620627.93149    484387.55946  21794462.610    21794462.075    21794476.064
       229.000         185.000
 -14059264.41149 -10933729.50847  21629881.941    21629882.412    21629895.727
       232.000         189.000
  -3590938.34949  -2435338.17745  23490715.047    23490716.959    23490742.926
       212.000         142.000
  -5318012.42849  -4136482.06947  20066768.388    20066768.232    20066778.313
       241.000         206.000
 -17269708.80149 -13442131.18947  19449913.464    19449913.230    19449924.266
       236.000         206.000
   -235234.91349   -176404.95247  20240261.722    20240261.339    20240273.184
       239.000         205.000
  -8025050.78149  -6239103.67546  22728595.878    22728595.546    22728611.401
       225.000         171.000
 01 12 19 21 35 29.9960000  0  8G27G 2G26G 4G28G 7G 8G11
   6524156.06049   5083405.78946  22589203.390    22589202.633    22589220.462
       219.000         170.000
    634338.50449    495071.09546  21797071.776    21797071.134    21797085.162
       229.000         185.000
 -14086811.33049 -10955194.60946  21624639.869    21624640.362    21624653.691
       231.000         187.000
  -3730285.25149  -2543919.58145  23464197.805    23464199.606    23464225.333
       207.000         142.000
  -5328644.71749  -4144766.95147  20064745.163    20064744.979    20064755.065
       240.000         206.000
 -17325955.79549 -13485959.96647  19439209.950    19439209.746    19439220.756
       235.000         206.000
   -197001.11249   -146612.45847  20247537.416    20247537.030    20247548.900
       238.000         204.000
  -8023769.59949  -6238105.38246  22728839.715    22728839.495    22728855.398
       223.000         166.000
 01 12 19 21 35 59.9960000  0  8G27G 2G26G 4G28G 7G 8G11
   6589722.88449   5134496.58046  22601680.376    22601679.740    22601697.662
       218.000         170.000
    648163.60949    505843.81046  21799702.561    21799702.016    21799716.055
       232.000         185.000
 -14113803.67849 -10976227.59746  21619503.327    21619503.864    21619517.132
       234.000         186.000
  -3869696.80349  -2652551.28045  23437667.701    23437669.984    23437695.330
       211.000         139.000
  -5339099.40549  -4152913.44947  20062755.710    20062755.521    20062765.611
       242.000         206.000
 -17381755.17149 -13529439.95947  19428591.633    19428591.445    19428602.430
       237.000         205.000
   -158369.60249   -116510.06747  20254888.818    20254888.421    20254900.266
       241.000         203.000
  -8021986.02049  -6236715.58345  22729179.203    22729178.950    22729194.672
       224.000         157.000
 01 12 19 21 36 29.9960000  0  8G27G 2G26G 4G28G 7G 8G11
   6655529.11949   5185773.94046  22614203.216    22614202.424    22614220.414
       218.000         171.000
    662103.12749    516705.70346  21802355.223    21802354.664    21802368.725
       230.000         185.000
 -14140242.73749 -10996829.41747  21614472.121    21614472.659    21614485.893
       232.000         188.000
  -4009170.73449  -2761231.64645  23411126.317    23411128.494    23411153.550
       209.000         144.000
  -5349376.92649  -4160921.88047  20060799.971    20060799.786    20060809.869
       241.000         206.000
 -17437107.75749 -13572571.78747  19418058.379    19418058.161    19418069.129
       235.000         206.000
   -119342.29849    -86099.24347  20262315.543    20262315.131    20262326.984
       238.000         204.000
  -8019701.04849  -6234935.10346  22729614.002    22729613.791    22729629.443
       222.000         165.000
 01 12 19 21 36 59.9960000  0  8G27G 2G26G 4G28G 7G 8G11
   6721582.43949   5237243.80646  22626772.811    22626772.080    22626790.194
       223.000         171.000
    676166.63149    527664.21546  21805031.415    21805030.906    21805044.950
       226.000         184.000
 -14166119.94949 -11016993.45846  21609547.893    21609548.356    21609561.591
       233.000         187.000
  -4148694.95849  -2869951.22645  23384575.234    23384577.470    23384602.268
       211.000         144.000
  -5359467.77249  -4168784.85247  20058879.745    20058879.559    20058889.642
       241.000         206.000
 -17492004.71349 -13615348.58347  19407611.842    19407611.586    19407622.540
       235.000         205.000
    -79910.81349    -55373.48947  20269819.179    20269818.738    20269830.593
       238.000         203.000
  -8016906.40949  -6232757.48745  22730145.515    22730145.541    22730161.272
       221.000         161.000
 01 12 19 21 37 29.9960000  0  8G27G 2G26G 4G28G 7G 8G11
   6787876.79649   5288901.52446  22639388.185    22639387.658    22639405.846
       218.000         170.000
    690350.27849    538716.32746  21807730.603    21807730.015    21807744.078
       230.000         185.000
 -14191440.54549 -11036723.77046  21604729.531    21604730.005    21604743.216
       232.000         187.000
  -4288270.71749  -2978710.95745  23358014.409    23358016.556    23358041.232
       203.000         145.000
  -5369376.20049  -4176505.69147  20056994.232    20056994.053    20057004.122
       241.000         206.000
 -17546450.64749 -13657773.94147  19397251.051    19397250.822    19397261.761
       234.000         205.000
    -40080.59349    -24337.04147  20277398.643    20277398.222    20277410.093
       238.000         203.000
  -8013607.31849  -6230186.76446  22730773.471    22730773.386    22730789.132
       223.000         166.000
 01 12 19 21 37 59.9960000  0  8G27G 2G26G 4G28G 7G 8G11
   6854416.67749   5340750.55346  22652050.513    22652049.965    22652068.190
       217.000         170.000
    704660.85749    549867.31446  21810453.707    21810453.261    21810467.374
       226.000         185.000
 -14216198.94749 -11056016.01446  21600018.094    21600018.584    21600031.755
       232.000         186.000
  -4427889.13749  -3087503.90445  23331445.524    23331447.526    23331472.046
       207.000         147.000
  -5379096.26949  -4184079.74947  20055144.580    20055144.386    20055154.454
       241.000         206.000
 -17600439.60749 -13699843.20747  19386977.219    19386977.022    19386987.949
       234.000         205.000
       153.68449      7014.25747  20285054.989    20285054.610    20285066.486
       238.000         203.000
  -8009798.11249  -6227218.59746  22731498.154    22731498.159    22731514.151
       220.000         163.000
 01 12 19 21 38 29.9960000  0  8G27G 2G26G 4G28G 7G 8G11
   6921165.35449   5392762.24646  22664752.548    22664751.962    22664770.265
       218.000         168.000
    719063.33249    561089.95346  21813194.561    21813194.031    21813208.121
       229.000         182.000
 -14240431.07749 -11074898.17046  21595406.856    21595407.330    21595420.459
       232.000         185.000
  -4567582.07449  -3196354.90145  23304862.377    23304864.278    23304888.698
       213.000         148.000
  -5388663.17449  -4191534.45947  20053324.034    20053323.853    20053333.941
       241.000         206.000
 -17654007.10649 -13741584.06747  19376783.578    19376783.417    19376794.343
       234.000         203.000
     40755.63849     38652.05447  20292781.399    20292780.950    20292792.841
       238.000         202.000
  -8005514.92049  -6223881.07445  22732313.299    22732313.261    22732329.259
       226.000         162.000
 01 12 19 21 38 59.9960000  0  8G27G 2G26G 4G28G 7G 8G11
   6988156.99149   5444963.28345  22677500.637    22677500.200    22677518.575
       211.000         162.000
    733594.11449    572412.52546  21815959.533    21815959.166    21815973.280
       227.000         184.000
 -14264102.14149 -11093343.13046  21590902.401    21590902.855    21590915.981
       232.000         187.000
  -4707311.25849  -3305234.15045  23278272.410    23278274.215    23278298.499
       211.000         147.000
  -5398041.08249  -4198841.90347  20051539.441    20051539.288    20051549.388
       241.000         206.000
 -17707117.52849 -13782968.76347  19366676.927    19366676.790    19366687.709
       233.000         204.000
     81760.08349     70603.48247  20300584.366    20300583.905    20300595.791
       238.000         202.000
  -8000722.85749  -6220147.02545  22733225.356    22733225.246    22733241.137
       221.000         159.000
 01 12 19 21 39 29.9960000  0  8G27G 2G26G 4G28G 7G 8G11
   7055389.12449   5497351.68345  22690294.562    22690294.241    22690312.647
       212.000         157.000
    748252.81849    583834.79046  21818749.161    21818748.679    21818762.807
       228.000         183.000
 -14287213.51249 -11111351.97946  21586504.468    21586504.908    21586517.986
       232.000         187.000
  -4847073.99649  -3414139.54045  23251676.185    23251677.701    23251701.923
       211.000         151.000
  -5407230.61249  -4206002.56547  20049790.731    20049790.558    20049800.674
       241.000         206.000
 -17759772.10349 -13823998.25647  19356657.049    19356656.912    19356667.819
       233.000         204.000
    123165.23849    102867.15247  20308463.555    20308463.097    20308474.986
       237.000         202.000
  -7995423.58949  -6216017.71845  22734233.996    22734233.823    22734249.167
       227.000         160.000
 01 12 19 21 39 59.9960000  0  8G27G 2G26G 4G28G 7G 8G11
   7122854.01049   5549921.44545  22703132.732    22703132.510    22703150.961
       205.000         149.000
    763033.91249    595352.42146  21821562.034    21821561.478    21821575.608
       227.000         183.000
 -14309772.28549 -11128930.23046  21582211.627    21582212.090    21582225.138
       232.000         186.000
  -4986873.71349  -3523073.70945  23225072.675    23225074.308    23225098.357
       215.000         153.000
  -5416237.60749  -4213020.99747  20048076.707    20048076.560    20048086.692
       241.000         206.000
 -17811977.28949 -13864677.57947  19346722.715    19346722.554    19346733.456
       234.000         204.000
    164963.89549    135437.44647  20316417.646    20316417.174    20316429.077
       238.000         202.000
  -7989624.08449  -6211498.58145  22735337.777    22735337.572    22735352.677
       215.000         157.000
 01 12 19 21 40 29.9960000  0  8G27G 2G26G 4G28G 7G 8G11
   7190551.75049   5602672.68145  22716015.445    22716015.172    22716033.531
       215.000         149.000
    777939.67349    606967.18346  21824398.612    21824398.027    21824412.169
       232.000         183.000
 -14331777.32749 -11146077.00646  21578024.170    21578024.643    21578037.676
       235.000         187.000
  -5126705.53849  -3632032.88945  23198462.936    23198464.817    23198488.608
       204.000         150.000
  -5425060.34549  -4219895.85947  20046397.769    20046397.646    20046407.767
       243.000         206.000
 -17863731.44449 -13905005.45647  19336874.191    19336874.027    19336884.913
       236.000         204.000
    207157.07849    168315.16047  20324446.747    20324446.336    20324458.245
       240.000         202.000
  -7983323.11549  -6206588.80845  22736536.397    22736536.392    22736551.977
       222.000         161.000
 01 12 19 21 40 59.9960000  0  8G27G 2G26G 4G28G 7G 8G11
   7258462.60849   5655590.00745  22728938.756    22728938.347    22728956.699
       203.000         143.000
    792952.37749    618665.29246  21827255.523    21827254.917    21827269.073
       227.000         182.000
 -14353247.54949 -11162807.02746  21573938.498    21573938.962    21573952.002
       233.000         186.000
  -5266584.61449  -3741028.92645  23171844.198    23171846.170    23171869.811
       208.000         154.000
  -5433716.89449  -4226641.22447  20044750.486    20044750.352    20044760.477
       241.000         206.000
 -17915053.14049 -13944996.34747  19327108.010    19327107.801    19327118.671
       234.000         204.000
    249725.27849    201485.09447  20332547.269    20332546.863    20332558.785
       237.000         202.000
  -7976539.77149  -6201303.11845  22737827.000    22737827.130    22737842.884
       211.000         153.000
 01 12 19 21 41 29.9960000  0  8G27G 2G26G 4G28G 7G 8G11
   7326610.59749   5708692.06545  22741906.950    22741906.676    22741925.001
       209.000         140.000
    808098.33349    630467.21546  21830137.663    21830137.174    21830151.297
       229.000         181.000
 -14374158.21949 -11179101.03446  21569959.316    21569959.782    21569972.798
       233.000         187.000
  -5406482.03649  -3850039.23045  23145222.476    23145224.016    23145247.670
       211.000         158.000
  -5442181.42049  -4233236.97047  20043139.755    20043139.621    20043149.716
       241.000         206.000
 -17965917.15349 -13984630.60847  19317428.863    19317428.664    19317439.525
       233.000         204.000
    292693.25349    234966.54647  20340723.891    20340723.459    20340735.422
       237.000         202.000
  -7969249.39149  -6195622.29245  22739214.431    22739214.502    22739230.142
       220.000         160.000
 01 12 19 21 41 59.9960000  0  8G27G 2G26G 4G28G 7G 8G11
   7394981.09049   5761967.54345  22754917.640    22754917.370    22754935.537
       211.000         143.000
    823364.94649    642363.18046  21833042.948    21833042.369    21833056.542
       225.000         181.000
 -14394523.32049 -11194969.94246  21566083.957    21566084.420    21566097.435
       234.000         187.000
  -5546407.98949  -3959071.79745  23118594.923    23118596.492    23118620.083
       209.000         159.000
  -5450466.71749  -4239693.07747  20041563.145    20041562.996    20041573.080
       243.000         206.000
 -18016336.69649 -14023918.53347  19307834.290    19307834.116    19307844.959
       234.000         203.000
    336046.65249    268748.31547  20348973.874    20348973.398    20348985.396
       239.000         202.000
  -7961465.91049  -6189557.27345  22740695.676    22740695.681    22740711.419
       218.000         161.000
 01 12 19 21 42 29.9960000  0  8G27G 2G26G 4G28G 7G 8G11
   7463560.95949   5815406.10545  22767968.100    22767967.899    22767986.086
       215.000         142.000
    838741.27049    654344.62246  21835969.028    21835968.486    21835982.678
       230.000         181.000
 -14414355.28849 -11210423.41447  21562310.050    21562310.510    21562323.546
       233.000         188.000
  -5686371.05749  -4068133.31245  23091960.206    23091961.898    23091985.370
       215.000         160.000
  -5458583.94849  -4246018.21547  20040018.487    20040018.345    20040028.415
       242.000         206.000
 -18066323.64349 -14062869.36847  19298322.067    19298321.884    19298332.704
       233.000         204.000
    379773.12049    302820.80047  20357294.778    20357294.341    20357306.358
       237.000         202.000
  -7953201.67049  -6183117.63146  22742268.666    22742268.500    22742284.270
       222.000         166.000
 01 12 19 21 42 59.9960000  0  8G27G 2G26G 4G28G 7G 8G11
   7532347.99549   5869006.20245  22781058.528    22781057.873    22781076.029
       219.000         151.000
    854227.62249    666411.76046  21838916.025    21838915.467    21838929.709
       227.000         181.000
 -14433655.25649 -11225462.34247  21558637.392    21558637.853    21558650.894
       235.000         188.000
  -5826368.40049  -4177221.51045  23065319.067    23065320.783    23065344.176
       215.000         160.000
  -5466533.46349  -4252212.66347  20038505.757    20038505.603    20038515.681
       241.000         206.000
 -18115878.72749 -14101483.70147  19288891.997    19288891.835    19288902.642
       234.000         204.000
    423871.25149    337182.88747  20365686.392    20365686.003    20365698.074
       238.000         202.000
  -7944457.95549  -6176304.41246  22743932.648    22743932.438    22743948.374
       223.000         164.000
 01 12 19 21 43 29.9960000  0  8G27G 2G26G 4G28G 7G 8G11
   7601348.27849   5922772.40245  22794189.036    22794188.335    22794206.582
       218.000         156.000
    869832.05449    678570.98946  21841885.643    21841884.986    21841899.211
       228.000         181.000
 -14452416.56649 -11240081.53946  21555067.306    21555067.723    21555080.703
       234.000         187.000
  -5966389.27149  -4286328.02945  23038673.334    23038675.172    23038698.415
       216.000         159.000
  -5474307.48549  -4258270.37447  20037026.422    20037026.252    20037036.330
       242.000         206.000
 -18164994.70449 -14139755.85947  19279545.527    19279545.355    19279556.132
       234.000         204.000
    468347.50949    371839.62247  20374150.084    20374149.623    20374161.704
       237.000         202.000
  -7935228.13149  -6169112.34045  22745688.871    22745688.704    22745704.668
       215.000         153.000
 01 12 19 21 43 59.9960000  0  8G27G 2G26G 4G28G 7G 8G11
   7670568.73349   5976710.17145  22807361.243    22807360.746    22807379.078
       220.000         155.000
    885563.53749    690829.15946  21844879.293    21844878.643    21844892.936
       226.000         180.000
 -14470631.84049 -11254275.26247  21551601.087    21551601.502    21551614.470
       233.000         188.000
  -6106422.05549  -4395443.83045  23012025.400    23012027.338    23012050.432
       215.000         161.000
  -5481897.35449  -4264184.59047  20035582.117    20035581.966    20035592.025
       241.000         206.000
 -18213663.56849 -14177679.63047  19270284.172    19270283.961    19270294.705
       233.000         204.000
    513209.18949    406796.68247  20382687.116    20382686.592    20382698.695
       238.000         202.000
  -7925504.80849  -6161535.72545  22747539.186    22747539.039    22747554.905
       219.000         160.000
 01 12 19 21 44 29.9960000  0  8G27G 2G26G 4G28G 7G 8G11
   7740013.51349   6030822.71045  22820576.506    22820575.789    22820594.295
       219.000         156.000
    901428.45849    703191.32546  21847898.292    21847897.668    21847912.044
       225.000         181.000
 -14488295.93549 -11268039.48647  21548239.685    21548240.132    21548253.123
       233.000         188.000
  -6246457.80249  -4504561.95045  22985376.919    22985378.900    22985401.911
       213.000         160.000
  -5489296.87949  -4269950.49047  20034174.067    20034173.899    20034183.962
       241.000         206.000
 -18261879.86149 -14215250.74547  19261108.916    19261108.677    19261119.423
       233.000         204.000
    558461.18149    442057.88547  20391298.381    20391297.845    20391309.961
       237.000         202.000
  -7915282.78049  -6153570.61645  22749484.057    22749484.106    22749500.279
       214.000         156.000
 01 12 19 21 44 59.9960000  0  8G27G 2G26G 4G28G 7G 8G11
   7809660.12149   6085092.58146  22833829.953    22833829.278    22833847.836
       216.000         163.000
    917406.58149    715641.67646  21850938.717    21850938.276    21850952.722
       227.000         182.000
 -14505430.89849 -11281391.41646  21544979.023    21544979.484    21544992.421
       233.000         187.000
  -6386514.40249  -4613696.32645  22958724.457    22958726.523    22958749.427
       216.000         160.000
  -5496526.88449  -4275584.29647  20032798.269    20032798.094    20032808.141
       241.000         206.000
 -18309664.79949 -14252485.74247  19252015.713    19252015.471    19252026.224
       233.000         203.000
    604081.38049    477605.99947  20399979.654    20399979.151    20399991.288
       237.000         202.000
  -7904584.06049  -6145233.98645  22751520.365    22751520.250    22751536.121
       220.000         158.000
 01 12 19 21 45 29.9960000  0  8G27G 2G26G 4G28G 7G 8G11
   7879499.13849   6139512.31445  22847120.112    22847119.367    22847138.072
       220.000         162.000
    933490.79449    728174.72646  21853999.574    21853999.081    21854013.547
       225.000         180.000
 -14522045.32349 -11294337.71446  21541817.452    21541817.846    21541830.831
       232.000         187.000
  -6526596.15549  -4722850.31445  22932067.271    22932069.328    22932092.151
       221.000         157.000
  -5503594.83249  -4281091.82147  20031453.312    20031453.117    20031463.161
       241.000         206.000
 -18357026.38449 -14289390.84747  19243003.070    19243002.823    19243013.591
       232.000         203.000
    650061.17549    513434.32647  20408729.468    20408728.883    20408741.046
       237.000         201.000
  -7893417.28949  -6136532.66645  22753645.274    22753645.242    22753660.951
       220.000         158.000
 01 12 19 21 45 59.9960000  0  8G27G 2G26G 4G28G 7G 8G11
   7949561.77649   6194106.24146  22860452.782    22860452.039    22860470.873
       220.000         166.000
    949714.42349    740816.40846  21857086.948    21857086.419    21857100.891
       224.000         181.000
 -14538107.36749 -11306853.60246  21538760.935    21538761.327    21538774.326
       233.000         186.000
  -6666667.39849  -4831996.15045  22905412.276    22905414.145    22905436.865
       214.000         158.000
  -5510467.52249  -4286447.21047  20030145.521    20030145.329    20030155.352
       241.000         206.000
 -18403932.16049 -14325940.79747  19234077.186    19234076.907    19234087.683
       232.000         203.000
    696432.08349    549567.40147  20417553.604    20417553.047    20417565.238
       236.000         202.000
  -7881750.38449  -6127441.65545  22755865.249    22755865.286    22755880.950
       218.000         153.000
 01 12 19 21 46 29.9960000  0  8G27G 2G26G 4G28G 7G 8G11
   8019808.70249   6248843.84946  22873820.333    22873819.779    22873838.743
       221.000         166.000
    966040.39949    753537.83846  21860193.787    21860193.260    21860207.738
       226.000         182.000
 -14553655.73349 -11318969.21746  21535802.096    21535802.557    21535815.544
       233.000         187.000
  -6806762.32349  -4941160.42145  22878752.545    22878754.489    22878777.017
       216.000         157.000
  -5517182.32549  -4291679.56547  20028867.787    20028867.575    20028877.592
       241.000         206.000
 -18450420.37549 -14362165.36447  19225230.724    19225230.463    19225241.242
       232.000         203.000
    743155.44049    585975.11347  20426444.830    20426444.277    20426456.491
       237.000         201.000
  -7869622.56449  -6117991.41246  22758173.452    22758173.386    22758189.000
       216.000         164.000
 01 12 19 21 46 59.9960000  0  9G27G 2G26G 4G 9G28G 7G 8G11
   8090251.18649   6303733.76445  22887225.147    22887224.746    22887243.837
       217.000         161.000
    982482.49449    766349.77046  21863322.791    21863322.177    21863336.663
       221.000         179.000
 -14568678.60249 -11330675.35546  21532943.353    21532943.769    21532956.781
       233.000         186.000
  -6946865.10349  -5050330.83145  22852091.402    22852093.330    22852115.734
       218.000         155.000
   -266244.50555                  23613633.282
       213.000         149.000
  -5523726.24249  -4296778.75347  20027622.559    20027622.333    20027632.349
       241.000         206.000
 -18496478.49649 -14398054.79247  19216466.157    19216465.878    19216476.655
       232.000         202.000
    790243.07649    622666.68147  20435405.358    20435404.832    20435417.056
       237.000         201.000
  -7857021.62149  -6108172.69045  22760571.071    22760571.112    22760587.142
       218.000         148.000
 01 12 19 21 47 29.9960000  0  9G27G 2G26G 4G 9G28G 7G 8G11
   8160890.40449   6358777.02546  22900667.606    22900667.141    22900686.302
       215.000         164.000
    999043.89649    779254.66846  21866474.452    21866473.818    21866488.277
       225.000         179.000
 -14583174.19149 -11341970.62546  21530184.942    21530185.358    21530198.381
       233.000         187.000
  -7086969.54149  -5159502.54845  22825429.915    22825431.849    22825454.078
       214.000         153.000
    -42622.63043                  23587231.560
       213.000          74.000
  -5530096.09249  -4301742.30747  20026410.429    20026410.210    20026420.242
       241.000         206.000
 -18542104.15849 -14433607.23947  19207783.847    19207783.580    19207794.366
       231.000         203.000
    837696.66349    659643.40447  20444435.582    20444435.028    20444447.282
       236.000         201.000
  -7843945.63249  -6097983.52145  22763059.721    22763059.608    22763075.005
       219.000         159.000
 01 12 19 21 47 59.9960000  0  9G27G 2G26G 4G 9G28G 7G 8G11
   8231722.36149   6413970.41745  22914146.811    22914146.221    22914165.539
       216.000         162.000
   1015722.89949    792251.16946  21869648.442    21869647.801    21869662.332
       225.000         181.000
 -14597145.90749 -11352857.69246  21527526.257    21527526.632    21527539.616
       234.000         186.000
  -7227074.81449  -5268674.92845  22798768.152    22798770.274    22798792.288
       209.000         152.000
   -150687.04145                  23560841.227
       217.000         150.000
  -5536293.99249  -4306571.88047  20025231.004    20025230.805    20025240.848
       243.000         206.000
 -18587300.12849 -14468824.86347  19199183.264    19199183.052    19199193.844
       233.000         203.000
    885512.45149    696902.34847  20453534.645    20453534.141    20453546.421
       237.000         201.000
  -7830398.19249  -6087427.29946  22765637.349    22765637.430    22765653.417
       221.000         166.000
 01 12 19 21 48 29.9960000  0  9G27G 2G26G 4G 9G28G 7G 8G11
   8302752.74049   6469318.51945  22927663.395    22927663.067    22927682.442
       207.000         153.000
   1032527.45449    805345.55046  21872846.441    21872845.740    21872860.263
       234.000         182.000
 -14610587.41049 -11363331.60746  21524968.446    21524968.798    21524981.765
       235.000         186.000
  -7367170.39949  -5377839.77845  22772108.177    22772110.517    22772132.320
       213.000         151.000
   -782673.38349   -258696.92045  23534463.735    23534462.329    23534483.587
       213.000         150.000
  -5542312.15549  -4311261.39447  20024085.798    20024085.606    20024095.658
       243.000         206.000
 -18632059.42449 -14503702.22047  19190665.831    19190665.625    19190676.417
       232.000         203.000
    933696.94549    734448.59147  20462703.901    20462703.414    20462715.747
       237.000         201.000
  -7816373.13949  -6076498.74045  22768306.769    22768306.614    22768322.423
       214.000         146.000
 01 12 19 21 48 59.9960000  0  9G27G 2G26G 4G 9G28G 7G 8G11
   8373979.08749   6524819.24145  22941217.716    22941217.174    22941236.714
       200.000         154.000
   1049457.55649    818537.75446  21876068.303    21876067.535    21876082.086
       224.000         178.000
 -14623500.76549 -11373393.98346  21522511.100    21522511.482    21522524.436
       233.000         184.000
  -7507253.88449  -5486995.22745  22745450.668    22745453.048    22745474.691
       212.000         150.000
   -921215.36449   -366651.50945  23508099.899    23508098.841    23508120.748
       212.000         142.000
  -5548151.27449  -4315811.38847  20022974.698    20022974.476    20022984.529
       242.000         206.000
 -18676383.41949 -14538240.38047  19182231.202    19182231.019    19182241.821
       231.000         202.000
    982247.92949    772280.40247  20471942.949    20471942.423    20471954.797
       236.000         200.000
  -7801871.94749  -6065199.19446  22771065.653    22771065.768    22771081.696
       223.000         169.000
 01 12 19 21 49 29.9960000  0  9G27G 2G26G 4G 9G28G 7G 8G11
   8445401.58349   6580472.82145  22954809.164    22954808.575    22954828.251
       206.000         155.000
   1066515.35849    831829.41746  21879314.234    21879313.580    21879328.191
       223.000         181.000
 -14635885.42749 -11383044.38646  21520154.344    21520154.774    21520167.677
       232.000         186.000
  -7647320.35849  -5596137.45845  22718796.540    22718798.869    22718820.291
       209.000         151.000
  -1059682.30559   -474547.60055  23481750.496    23481749.789    23481769.321
       217.000         146.000
  -5553809.43649  -4320220.37647  20021898.011    20021897.788    20021907.846
       242.000         206.000
 -18720270.88949 -14572438.38447  19173879.688    19173879.481    19173890.293
       232.000         203.000
   1031166.07349    810398.31547  20481251.830    20481251.317    20481263.708
       235.000         200.000
  -7786894.54949  -6053528.66745  22773916.282    22773916.116    22773932.314
       214.000         154.000
 01 12 19 21 49 59.9960000  0  9G27G 2G26G 4G 9G28G 7G 8G11
   8517006.12449   6636268.22645  22968435.261    22968434.687    22968454.483
       208.000         158.000
   1083689.11449    845211.48846  21882582.398    21882581.744    21882596.333
       225.000         181.000
 -14647754.68449 -11392293.17446  21517895.746    21517896.137    21517909.024
       233.000         186.000
  -7787378.74049  -5705273.40245  22692143.917    22692146.213    22692167.510
       204.000         151.000
  -1198083.83049   -582392.73345  23455413.439    23455413.363    23455433.294
       217.000         154.000
  -5559298.28449  -4324497.42947  20020853.554    20020853.329    20020863.378
       242.000         205.000
 -18763734.53149 -14606306.12647  19165608.891    19165608.619    19165619.435
       232.000         203.000
   1080437.98649    848791.88147  20490627.963    20490627.520    20490639.957
       236.000         199.000
  -7771453.66649  -6041496.87945  22776854.261    22776854.283    22776870.344
       222.000         162.000
 01 12 19 21 50 29.9960000  0  9G27G 2G26G 4G 9G28G 7G 8G11
   8588796.22749   6692208.21845  22982096.583    22982096.068    22982115.985
       212.000         157.000
   1100984.69949    858688.45846  21885873.764    21885873.069    21885887.695
       224.000         182.000
 -14659104.73749 -11401137.39346  21515735.960    21515736.322    21515749.198
       232.000         186.000
  -7927420.91449  -5814396.71745  22665494.477    22665496.607    22665517.755
       212.000         152.000
  -1336412.66249   -690181.14945  23429090.271    23429090.228    23429110.631
       212.000         145.000
  -5564612.83749  -4328638.66847  20019842.247    20019842.022    20019852.065
       241.000         206.000
 -18806769.91949 -14639840.16647  19157419.478    19157419.228    19157430.045
       231.000         203.000
   1130067.40449    887464.02747  20500072.265    20500071.764    20500084.214
       234.000         199.000
  -7755545.79449  -6029101.25345  22779881.782    22779881.672    22779897.752
       214.000         157.000
 01 12 19 21 50 59.9960000  0  9G27G 2G26G 4G 9G28G 7G 8G11
   8660770.52949   6748291.75045  22995792.981    22995792.544    22995812.517
       212.000         154.000
   1118403.18549    872261.18946  21889188.349    21889187.779    21889202.441
       228.000         180.000
 -14669936.40049 -11409577.67746  21513674.790    21513675.150    21513687.969
       234.000         185.000
  -8067443.13249  -5923504.49045  22638848.932    22638850.872    22638871.907
       213.000         154.000
  -1474666.17649   -797910.92345  23402781.298    23402781.258    23402801.738
       209.000         143.000
  -5569752.22249  -4332643.41247  20018864.284    20018864.057    20018874.112
       242.000         206.000
 -18849377.06649 -14673040.50647  19149311.565    19149311.343    19149322.162
       232.000         202.000
   1180053.56549    926414.15247  20509584.399    20509583.881    20509596.381
       236.000         199.000
  -7739171.59349  -6016342.26045  22782997.720    22782997.600    22783013.667
       222.000         157.000
 01 12 19 21 51 29.9960000  0  9G27G 2G26G 4G 9G28G 7G 8G11
   8732946.68149   6804532.56945  23009528.139    23009527.453    23009547.457
       214.000         148.000
   1135964.33449    885945.12446  21892530.369    21892529.666    21892544.362
       225.000         178.000
 -14680231.46649 -11417599.83546  21511715.698    21511716.071    21511728.921
       234.000         185.000
  -8207422.78449  -6032579.08745  22612211.414    22612213.275    22612234.133
       217.000         156.000
  -1612822.65849   -905565.07545  23376490.815    23376490.856    23376511.365
       211.000         150.000
  -5574696.63649  -4336496.22847  20017923.404    20017923.184    20017933.259
       244.000         205.000
 -18891537.25749 -14705892.57247  19141288.729    19141288.512    19141299.324
       232.000         202.000
   1230414.66149    965656.41947  20519167.862    20519167.357    20519179.894
       235.000         197.000
  -7722312.86349  -6003205.69745  22786205.676    22786205.691    22786221.862
       217.000         157.000
 01 12 19 21 51 59.9960000  0  9G27G 2G26G 4G 9G28G 7G 8G11
   8805304.49949   6860914.98045  23023297.793    23023296.947    23023316.907
       206.000         148.000
   1153650.20649    899726.21846  21895895.921    21895895.265    21895909.987
       225.000         178.000
 -14690009.70249 -11425219.23646  21509854.900    21509855.325    21509868.249
       232.000         187.000
  -8347375.18549  -6141632.47145  22585579.014    22585580.841    22585601.564
       216.000         161.000
  -1750898.28649  -1013156.19645  23350215.688    23350215.776    23350236.443
       208.000         149.000
  -5579464.46349  -4340211.43147  20017016.129    20017015.925    20017025.993
       241.000         205.000
 -18933269.44049 -14738411.10847  19133347.258    19133347.116    19133357.941
       230.000         203.000
   1281130.85849   1005175.40447  20528818.908    20528818.416    20528830.989
       235.000         199.000
  -7704989.16849  -5989706.84445  22789502.693    22789502.446    22789518.634
       219.000         158.000
 01 12 19 21 52 29.9960000  0  9G27G 2G26G 4G 9G28G 7G 8G11
   8877830.98249   6917428.74745  23037099.090    23037098.447    23037118.572
       214.000         149.000
   1171450.33649    913596.33746  21899283.112    21899282.545    21899297.346
       222.000         178.000
 -14699283.91449 -11432445.91746  21508090.161    21508090.548    21508103.464
       233.000         187.000
  -8487308.26549  -6250670.80146  22558950.174    22558952.108    22558972.705
       216.000         163.000
  -1888902.21649  -1120691.51845  23323954.213    23323954.382    23323975.140
       207.000         153.000
  -5584066.72449  -4343797.63047  20016140.365    20016140.161    20016150.254
       241.000         205.000
 -18974585.61349 -14770605.48547  19125484.878    19125484.869    19125495.711
       230.000         202.000
   1332189.53649   1044961.24647  20538535.197    20538534.654    20538547.269
       235.000         199.000
  -7687213.28349  -5975855.63045  22792885.056    22792885.047    22792901.304
       214.000         160.000
 01 12 19 21 52 59.9960000  0  9G27G 2G26G 4G 9G28G 7G 8G11
   8950546.22349   6974089.64945  23050936.541    23050935.922    23050956.016
       216.000         148.000
   1189386.98349    927572.83046  21902696.533    21902695.891    21902710.635
       228.000         179.000
 -14708033.34749 -11439263.67446  21506425.202    21506425.584    21506438.550
       234.000         187.000
  -8627197.07049  -6359674.64446  22532329.907    22532331.789    22532352.264
       217.000         166.000
  -2026810.03849  -1228151.90645  23297711.147    23297711.284    23297732.047
       214.000         160.000
  -5588481.34649  -4347237.62147  20015300.297    20015300.112    20015310.201
       243.000         205.000
 -19015464.47749 -14802459.10947  19117705.808    19117705.849    19117716.700
       232.000         202.000
   1383611.46649   1085030.13847  20548320.561    20548320.014    20548332.673
       236.000         199.000
  -7668964.64949  -5961636.06545  22796358.014    22796357.795    22796374.132
       221.000         159.000
 01 12 19 21 53 29.9960000  0  9G27G 2G26G 4G 9G28G 7G 8G11
   9023425.93549   7030878.70545  23064805.618    23064804.750    23064824.876
       215.000         144.000
   1207438.09149    941638.50646  21906131.573    21906130.953    21906145.789
       221.000         177.000
 -14716282.13549 -11445691.32546  21504855.567    21504855.903    21504868.899
       231.000         186.000
  -8767061.03949  -6468659.14846  22505714.411    22505716.197    22505736.550
       217.000         167.000
  -2164641.90949  -1335553.07746  23271482.527    23271482.663    23271503.418
       218.000         167.000
  -5592730.45049  -4350548.63147  20014491.747    20014491.550    20014501.639
       241.000         204.000
 -19055929.33749 -14833990.13547  19110005.684    19110005.621    19110016.457
       231.000         203.000
   1435372.52149   1125363.28147  20558170.427    20558169.913    20558182.623
       234.000         198.000
  -7650266.94049  -5947066.53445  22799915.966    22799915.815    22799932.220
       218.000         162.000
 01 12 19 21 53 59.9950000  0  9G27G 2G26G 4G 9G28G 7G 8G11
   9096486.99849   7087809.09445  23078708.842    23078708.044    23078728.167
       218.000         138.000
   1225624.87649    955809.90346  21909592.359    21909591.847    21909606.751
       220.000         176.000
 -14724010.12649 -11451713.15146  21503384.922    21503385.300    21503398.371
       230.000         186.000
  -8906871.01549  -6577601.57746  22479109.262    22479110.925    22479131.120
       217.000         170.000
  -2302369.95149  -1442873.42546  23245273.519    23245273.807    23245294.545
       215.000         165.000
  -5596792.62549  -4353713.98147  20013718.740    20013718.562    20013728.650
       241.000         205.000
 -19095958.31649 -14865181.51147  19102388.534    19102388.342    19102399.185
       231.000         203.000
   1487490.81449   1165974.79847  20568088.379    20568087.796    20568100.529
       234.000         197.000
  -7631101.09549  -5932132.26145  22803563.367    22803563.120    22803579.532
       217.000         159.000
 01 12 19 21 54 29.9950000  0  9G27G 2G26G 4G 9G28G 7G 8G11
   9169720.50349   7144873.89345  23092644.805    23092644.271    23092664.242
       215.000         138.000
   1243937.00449    970078.99146  21913077.079    21913076.591    21913091.468
       222.000         177.000
 -14731231.27249 -11457340.05446  21502010.799    21502011.179    21502024.258
       232.000         186.000
  -9046645.23549  -6686516.13646  22452510.820    22452512.434    22452532.529
       222.000         170.000
  -2440012.77849  -1550127.29246  23219080.754    23219081.082    23219101.847
       214.000         171.000
  -5600679.78049  -4356742.95747  20012979.077    20012978.873    20012988.965
       241.000         204.000
 -19135566.81149 -14896045.23847  19094851.333    19094851.073    19094861.920
       230.000         202.000
   1539956.32449   1206856.86747  20578072.360    20578071.748    20578084.504
       235.000         198.000
  -7611479.00649  -5916842.43646  22807297.469    22807297.169    22807313.582
       222.000         164.000
 01 12 19 21 54 59.9950000  0  9G27G 2G26G 4G 9G28G 7G 8G11
   9243113.88449   7202063.25745  23106611.446    23106610.817    23106630.821
       214.000         143.000
   1262366.00849    984439.12946  21916584.091    21916583.599    21916598.518
       225.000         179.000
 -14737955.16249 -11462579.46846  21500731.279    21500731.680    21500744.788
       232.000         186.000
  -9186384.02549  -6795403.08446  22425919.190    22425920.704    22425940.685
       220.000         171.000
  -2577572.04549  -1657316.03946  23192903.928    23192904.317    23192925.046
       219.000         170.000
  -5604399.96249  -4359641.82247  20012271.165    20012270.964    20012281.036
       241.000         204.000
 -19174762.52049 -14926587.31947  19087392.716    19087392.340    19087403.194
       230.000         202.000
   1592757.87649   1248000.79747  20588120.297    20588119.657    20588132.434
       234.000         197.000
  -7591411.04949  -5901205.23545  22811116.273    22811116.074    22811132.530
       215.000         161.000
 01 12 19 21 55 29.9950000  0  9G27G 2G26G 4G 9G28G 7G 8G11
   9316675.80049   7259383.88045  23120610.201    23120609.440    23120629.611
       213.000         150.000
   1280922.98949    998899.00046  21920115.603    21920115.000    21920129.901
       225.000         176.000
 -14744172.61649 -11467424.26746  21499548.182    21499548.546    21499561.653
       232.000         185.000
  -9326073.57849  -6904251.65246  22399336.803    22399338.317    22399358.229
       217.000         168.000
  -2715034.82949  -1764429.65146  23166745.411    23166745.880    23166766.519
       218.000         163.000
  -5607942.22449  -4362402.05447  20011597.108    20011596.918    20011606.985
       241.000         204.000
 -19213535.61949 -14956800.09847  19080014.520    19080014.044    19080024.891
       231.000         202.000
   1645904.55849   1289413.65647  20598233.874    20598233.247    20598246.024
       234.000         196.000
  -7570888.12249  -5885213.48045  22815021.848    22815021.575    22815037.942
       222.000         162.000
 01 12 19 21 55 59.9950000  0  9G27G 2G26G 4G 9G28G 7G 8G11
   9390405.88449   7316835.55445  23134640.679    23134640.020    23134660.319
       210.000         153.000
   1299610.04249   1013460.23746  21923671.875    21923671.148    21923686.095
       221.000         174.000
 -14749883.74549 -11471874.52346  21498461.483    21498461.788    21498474.896
       231.000         185.000
  -9465709.20849  -7013058.19646  22372764.543    22372766.189    22372785.993
       217.000         168.000
  -2852397.22449  -1871465.01446  23140606.178    23140606.593    23140627.151
       217.000         167.000
  -5611304.86849  -4365022.32947  20010957.233    20010957.048    20010967.111
       241.000         204.000
 -19251885.23749 -14986682.89947  19072716.925    19072716.326    19072727.169
       231.000         202.000
   1699396.42849   1331095.47847  20608413.141    20608412.518    20608425.304
       234.000         197.000
  -7549910.01449  -5868867.05945  22819013.989    22819013.650    22819030.104
       220.000         162.000
 01 12 19 21 56 29.9950000  0  9G27G 2G26G 4G 9G28G 7G 8G11
   9464313.79249   7374425.84345  23148705.351    23148704.520    23148724.876
       208.000         152.000
   1318439.37149   1028132.31246  21927255.012    21927254.389    21927269.291
       232.000         178.000
 -14755078.54949 -11475922.44746  21497472.950    21497473.271    21497486.361
       233.000         184.000
  -9605276.18449  -7121811.23946  22346205.469    22346207.128    22346226.855
       216.000         166.000
  -2989645.57149  -1978411.46946  23114488.407    23114488.907    23114509.442
       216.000         163.000
  -5614476.15849  -4367493.49447  20010353.774    20010353.594    20010363.665
       244.000         204.000
 -19289800.76149 -15016227.44747  19065501.831    19065501.216    19065512.056
       231.000         201.000
   1753243.61049   1373054.16147  20618660.034    20618659.417    20618672.200
       236.000         195.000
  -7528466.86049  -5852158.25245  22823094.632    22823094.266    22823110.714
       221.000         162.000
 01 12 19 21 56 59.9950000  0  9G27G 2G26G 4G 9G28G 7G 8G11
   9538362.97749   7432126.11945  23162796.722    23162795.869    23162816.352
       196.000         146.000
   1337376.76549   1042888.61146  21930859.137    21930858.220    21930873.123
       218.000         175.000
 -14759793.16449 -11479596.18046  21496575.719    21496576.099    21496589.219
       231.000         184.000
  -9744806.01149  -7230535.30546  22319653.518    22319655.104    22319674.746
       220.000         165.000
  -3126812.12049  -2085294.20946  23088386.300    23088386.799    23088407.303
       219.000         164.000
  -5617490.70149  -4369842.51047  20009780.151    20009779.961    20009790.057
       241.000         204.000
 -19327317.56949 -15045461.29947  19058362.577    19058361.972    19058372.807
       230.000         201.000
   1807409.79749   1415261.43247  20628967.704    20628967.003    20628979.833
       235.000         195.000
  -7506594.39749  -5835114.91646  22827256.964    22827256.546    22827273.022
       221.000         163.000
 01 12 19 21 57 29.9950000  0  9G27G 2G26G 4G 9G28G 7G 8G11
   9612572.98149   7489951.70545  23176918.241    23176917.770    23176938.405
       200.000         155.000
   1356443.90349   1057745.99246  21934487.485    21934486.698    21934501.611
       230.000         179.000
 -14764008.05449 -11482880.52846  21495773.654    21495774.041    21495787.217
       230.000         185.000
  -9884274.41949  -7339211.53346  22293113.298    22293114.777    22293134.332
       216.000         166.000
  -3263873.55249  -2192095.01946  23062304.261    23062304.736    23062325.151
       219.000         163.000
  -5620327.03049  -4372052.66447  20009240.417    20009240.236    20009250.363
       241.000         204.000
 -19364415.37949 -15074368.66547  19051303.046    19051302.494    19051313.301
       231.000         202.000
   1861914.87949   1457732.76747  20639339.724    20639339.080    20639351.932
       234.000         195.000
  -7484273.31449  -5817722.04546  22831504.650    22831504.256    22831520.737
       220.000         163.000
 01 12 19 21 57 59.9950000  0  9G27G 2G26G 4G 9G28G 7G 8G11
   9686945.54159   7547903.88455  23191070.903    23191070.585    23191091.415
       203.000         141.000
   1375644.88249   1072707.67646  21938141.403    21938140.604    21938155.513
       226.000         174.000
 -14767721.35049 -11485774.02246  21495066.987    21495067.406    21495080.599
       233.000         185.000
 -10023674.55849  -7447834.54246  22266585.949    22266587.454    22266606.926
       223.000         163.000
  -3400823.92449  -2298809.31945  23036243.312    23036243.834    23036264.163
       219.000         160.000
  -5622981.23849  -4374120.91047  20008735.338    20008735.172    20008745.303
       241.000         204.000
 -19401091.30349 -15102947.29747  19044323.939    19044323.278    19044334.080
       232.000         202.000
   1916760.91549   1500469.78947  20649776.718    20649776.065    20649788.909
       235.000         195.000
  -7461501.51949  -5799977.95145  22835838.115    22835837.743    22835854.191
       221.000         161.000
 01 12 19 21 58 29.9950000  0  9G27G 2G26G 4G 9G28G 7G 8G11
   9761482.33248   7605984.25645  23205255.150    23205254.650    23205275.584
       182.000         136.000
   1394983.85749   1087776.86146  21941821.429    21941820.754    21941835.667
       223.000         175.000
 -14770930.86749 -11488274.94846  21494456.237    21494456.665    21494469.892
       230.000         185.000
 -10162999.40649  -7556398.90146  22240072.982    22240074.461    22240093.841
       212.000         163.000
  -3537656.92349  -2405432.12546  23010204.633    23010205.197    23010225.414
       222.000         166.000
  -5625449.22249  -4376044.04047  20008265.702    20008265.545    20008275.692
       240.000         204.000
 -19437342.57949 -15131195.02947  19037425.699    19037424.892    19037435.660
       231.000         203.000
   1971950.08049   1543474.18247  20660278.961    20660278.331    20660291.199
       233.000         195.000
  -7438276.67349  -5781880.80846  22840257.812    22840257.389    22840273.842
       221.000         164.000
 01 12 19 21 58 59.9950000  0  9G27G 2G26G 4G 9G28G 7G 8G11
   9836169.03449   7664181.21845  23219468.133    23219469.108    23219490.740
       205.000         151.000
   1414448.85149   1102944.33546  21945525.972    21945525.060    21945539.822
       229.000         173.000
 -14773650.42049 -11490394.09646  21493938.793    21493939.192    21493952.414
       232.000         185.000
 -10302258.09649  -7664911.67745  22213572.480    22213574.049    22213593.335
       216.000         162.000
  -3674382.58449  -2511971.28746  22984186.431    22984187.035    22984207.204
       221.000         166.000
  -5627742.68049  -4377831.17047  20007829.282    20007829.111    20007839.275
       242.000         203.000
 -19473182.21449 -15159122.00147  19030605.614    19030604.838    19030615.579
       230.000         201.000
   2027468.71049   1586735.30947  20670843.909    20670843.283    20670856.174
       235.000         193.000
  -7414612.25049  -5763441.17846  22844761.122    22844760.710    22844777.245
       221.000         163.000
 01 12 19 21 59 29.9950000  0  9G27G 2G26G 4G 9G28G 7G 8G11
   9910986.53949   7722480.34445  23233705.180    23233706.289    23233727.864
       195.000         145.000
   1434023.18649   1118196.88546  21949250.590    21949249.915    21949264.706
       224.000         175.000
 -14775899.43849 -11492146.57546  21493510.719    21493511.190    21493524.464
       231.000         185.000
 -10441464.96349  -7773384.07246  22187081.826    22187083.532    22187102.681
       217.000         164.000
  -3811016.07049  -2618438.59745  22958185.657    22958186.351    22958206.470
       217.000         161.000
  -5629879.40549  -4379496.18147  20007422.669    20007422.532    20007432.695
       241.000         204.000
 -19508628.71449 -15186742.64447  19023860.122    19023859.585    19023870.310
       228.000         203.000
   2083297.65749   1630238.23447  20681467.864    20681467.282    20681480.204
       232.000         194.000
  -7390527.47549  -5744673.97245  22849344.340    22849344.004    22849360.506
       220.000         160.000
 01 12 19 21 59 59.9950000  0  9G27G 2G26G 4G 9G28G 7G 8G11
   9985947.40449   7780890.96345  23247970.032    23247971.205    23247993.187
       212.000         159.000
   1453721.62849   1133546.21446  21952999.087    21952998.472    21953013.310
       225.000         174.000
 -14777664.96549 -11493522.33046  21493174.844    21493175.255    21493188.496
       232.000         184.000
 -10580602.09549  -7881802.12246  22160604.607    22160606.262    22160625.287
       217.000         164.000
  -3947540.42449  -2724820.82245  22932205.674    22932206.403    22932226.499
       217.000         154.000
  -5631844.47149  -4381027.42447  20007048.745    20007048.583    20007058.781
       241.000         203.000
 -19543668.33149 -15214046.22947  19017191.863    19017191.753    19017202.476
       228.000         201.000
   2139449.96249   1673993.12247  20692153.454    20692152.825    20692165.775
       235.000         193.000
  -7366009.59749  -5725569.28345  22854010.076    22854009.729    22854026.264
       219.000         160.000
 01 12 19 22  0 29.9950000  0  9G27G 2G26G 4G 9G28G 7G 8G11
  10061072.73349   7839429.86046  23262266.387    23262267.217    23262289.207
       214.000         163.000
   1473568.04049   1149010.83846  21956775.704    21956775.183    21956790.020
       228.000         173.000
 -14778925.49449 -11494504.57446  21492934.986    21492935.370    21492948.600
       231.000         183.000
 -10719643.31149  -7990145.40346  22134145.524    22134147.205    22134166.152
       222.000         165.000
  -4083930.13349  -2831098.22445  22906251.367    22906252.108    22906271.910
       216.000         152.000
  -5633614.42949  -4382406.63747  20006711.945    20006711.778    20006722.008
       241.000         203.000
 -19578278.65549 -15241015.30847  19010605.406    19010605.615    19010616.337
       229.000         201.000
   2195947.43049   1718016.98447  20702904.664    20702904.043    20702917.040
       232.000         193.000
  -7341036.98149  -5706110.22445  22858762.322    22858761.971    22858778.542
       220.000         158.000
 01 12 19 22  0 59.9950000  0  9G27G 2G26G 4G 9G28G 7G 8G11
  10136343.71249   7898082.25445  23276590.500    23276590.918    23276612.953
       210.000         154.000
   1493545.66149   1164577.71746  21960577.583    21960576.888    21960591.732
       228.000         173.000
 -14779699.94449 -11495108.07146  21492787.565    21492787.998    21492801.251
       234.000         183.000
 -10858602.35049  -8098424.65646  22107702.215    22107703.797    22107722.651
       223.000         165.000
  -4220199.77849  -2937281.98545  22880319.858    22880320.629    22880340.417
       217.000         156.000
  -5635206.34249  -4383647.11647  20006408.995    20006408.867    20006419.113
       243.000         203.000
 -19612477.85149 -15267664.02447  19004097.567    19004097.728    19004108.436
       233.000         201.000
   2252771.04549   1762294.98347  20713718.010    20713717.334    20713730.371
       235.000         192.000
  -7315628.13549  -5686311.25145  22863597.660    22863597.192    22863613.842
       220.000         159.000
 01 12 19 22  1 29.9950000  0  9G27G 2G26G 4G 9G28G 7G 8G11
  10211765.06249   7956851.81445  23290943.225    23290943.240    23290965.331
       200.000         136.000
   1513661.71049   1180252.43546  21964405.526    21964404.899    21964419.813
       226.000         175.000
 -14779983.39049 -11495328.95046  21492733.647    21492734.063    21492747.304
       230.000         183.000
 -10997469.46649  -8206632.28946  22081276.371    22081277.896    22081296.623
       218.000         167.000
  -4356340.60549  -3043365.38045  22854412.811    22854413.605    22854433.314
       217.000         153.000
  -5636613.21049  -4384743.39447  20006141.315    20006141.169    20006151.426
       241.000         203.000
 -19646260.00549 -15293987.76347  18997669.313    18997669.189    18997679.893
       232.000         202.000
   2309926.24249   1806831.36247  20724594.320    20724593.712    20724606.789
       233.000         193.000
  -7289778.03449  -5666168.46545  22868516.837    22868516.407    22868533.143
       219.000         159.000
 01 12 19 22  1 59.9950000  0  9G27G 2G26G 4G 9G28G 7G 8G11
  10287353.99248   8015752.00544  23305327.594    23305327.551    23305349.344
       188.000         120.000
   1533935.65849   1196050.19746  21968263.623    21968262.982    21968277.965
       226.000         174.000
 -14779758.43449 -11495153.69646  21492776.532    21492776.895    21492790.079
       233.000         183.000
 -11136222.26049  -8314750.84346  22054872.181    22054873.724    22054892.342
       224.000         168.000
  -4492331.17049  -3149331.71345  22828534.396    22828535.181    22828554.722
       218.000         154.000
  -5637815.59149  -4385680.34147  20005912.544    20005912.379    20005922.644
       243.000         203.000
 -19679607.19849 -15319972.58647  18991323.836    18991323.434    18991334.118
       233.000         202.000
   2367430.31949   1851639.58447  20735537.100    20735536.472    20735549.600
       233.000         193.000
  -7263469.20349  -5645668.19745  22873523.365    22873522.977    22873539.668
       220.000         157.000
 01 12 19 22  2 29.9950000  0  9G27G 2G26G 4G 9G28G 7G 8G11
                   8074757.38754  23319737.155
       178.000         104.000
   1554337.19349   1211947.38846  21972145.817    21972145.309    21972160.309
       227.000         174.000
 -14779057.78049 -11494607.75446  21492909.870    21492910.238    21492923.379
       230.000         183.000
 -11274888.29149  -8422801.79546  22028484.369    22028486.062    22028504.568
       219.000         168.000
  -4628199.93449  -3255203.15745  22802679.144    22802680.006    22802699.364
       218.000         152.000
  -5638844.06249  -4386481.75647  20005716.869    20005716.671    20005726.960
       241.000         203.000
 -19712550.85349 -15345642.94247  18985054.898    18985054.461    18985065.130
       229.000         202.000
   2425251.10349   1896694.59947  20746540.182    20746539.503    20746552.699
       233.000         194.000
  -7236734.32349  -5624835.96345  22878610.982    22878610.562    22878627.316
       217.000         157.000
 01 12 19 22  2 59.9950000  0  9G27G 2G26G 4G 9G28G 7G 8G11
                   8133873.77853  23334173.847
       161.000          83.000
   1574876.16849   1227951.67746  21976054.604    21976053.885    21976068.873
       224.000         173.000
 -14777873.99249 -11493685.36246  21493135.143    21493135.518    21493148.629
       230.000         183.000
 -11413454.93549  -8530775.31046  22002115.734    22002117.324    22002135.729
       220.000         169.000
  -4763935.22449  -3360970.57045  22776849.280    22776850.117    22776869.603
       215.000         156.000
  -5639688.97049  -4387140.14947  20005556.106    20005555.911    20005566.190
       241.000         203.000
 -19745082.77149 -15370992.47047  18978864.017    18978863.822    18978874.492
       229.000         202.000
   2483396.18249   1942002.31347  20757604.871    20757604.270    20757617.489
       232.000         194.000
  -7209565.40849  -5603665.53545  22883781.058    22883780.683    22883797.481
       214.000         153.000
 01 12 19 22  3 29.9950000  0  8G 2G26G 4G 9G28G 7G 8G11
   1595549.27549   1244060.45046  21979988.671    21979987.924    21980003.039
       230.000         174.000
 -14776212.57549 -11492390.79246  21493451.271    21493451.663    21493464.802
       231.000         181.000
 -11551922.96049  -8638671.99046  21975765.797    21975767.352    21975785.688
       224.000         170.000
  -4899538.21549  -3466634.90445  22751044.680    22751045.536    22751064.952
       215.000         159.000
  -5640354.04949  -4387658.41547  20005429.572    20005429.373    20005439.640
       240.000         202.000
 -19777207.71849 -15396024.87847  18972750.687    18972750.629    18972761.309
       230.000         201.000
   2541860.00449   1987558.39447  20768730.276    20768729.695    20768742.960
       233.000         194.000
  -7181968.06649  -5582161.23045  22889032.760    22889032.411    22889049.231
       215.000         155.000
 01 12 19 22  3 59.9950000  0  8G 2G26G 4G 9G28G 7G 8G11
   1616351.65049   1260269.97446  21983947.326    21983946.601    21983961.763
       225.000         172.000
 -14774080.85749 -11490729.77446  21493857.040    21493857.355    21493870.462
       230.000         183.000
 -11690294.56249  -8746493.56946  21949434.072    21949435.742    21949453.947
       222.000         171.000
  -5035012.39949  -3572198.88045  22725264.359    22725265.328    22725284.780
       218.000         158.000
  -5640844.24849  -4388040.41047  20005336.351    20005336.127    20005346.367
       242.000         203.000
 -19808932.20849 -15420745.24147  18966713.860    18966713.666    18966724.312
       231.000         202.000
   2600635.62949   2033357.44147  20779914.976    20779914.428    20779927.751
       233.000         194.000
  -7153949.35349  -5560328.64545  22894364.509    22894364.183    22894381.204
       215.000         148.000
 01 12 19 22  4 29.9950000  0  8G 2G26G 4G 9G28G 7G 8G11
   1637289.36849   1276584.95246  21987931.604    21987930.975    21987946.129
       221.000         171.000
 -14771475.00849 -11488699.30146  21494352.843    21494353.227    21494366.390
       231.000         182.000
 -11828560.85649  -8854233.09846  21923122.608    21923124.157    21923142.255
       221.000         170.000
  -5170349.60149  -3677656.16145  22699510.284    22699511.287    22699530.607
       220.000         159.000
  -5641153.89749  -4388281.72347  20005277.431    20005277.226    20005287.449
       241.000         203.000
 -19840251.38449 -15445149.77347  18960754.101    18960753.819    18960764.455
       230.000         201.000
   2659727.10149   2079402.59147  20791159.830    20791159.282    20791172.650
       232.000         194.000
  -7125505.44249  -5538164.59845  22899777.332    22899776.979    22899793.999
       212.000         147.000
 01 12 19 22  4 59.9950000  0  8G 2G26G 4G 9G28G 7G 8G11
   1658365.46649   1293007.78946  21991942.304    21991941.714    21991956.961
       223.000         174.000
 -14768394.51149 -11486298.97046  21494939.106    21494939.463    21494952.613
       231.000         184.000
 -11966716.04949  -8961886.08246  21896832.249    21896833.745    21896851.699
       220.000         171.000
  -5305544.79549  -3783002.82046  22673783.386    22673784.313    22673803.502
       221.000         168.000
  -5641280.00349  -4388380.00447  20005253.445    20005253.248    20005263.463
       243.000         202.000
 -19871163.90749 -15469237.42647  18954871.543    18954871.355    18954881.974
       230.000         203.000
   2719135.32249   2125694.57047  20802465.005    20802464.403    20802477.804
       232.000         194.000
  -7096635.42649  -5515668.67645  22905271.109    22905270.806    22905287.969
       211.000         147.000
 01 12 19 22  5 29.9950000  0  8G 2G26G 4G 9G28G 7G 8G11
   1679590.68049   1309546.77846  21995981.447    21995980.804    21995996.042
       221.000         171.000
 -14764830.85349 -11483522.15146  21495617.344    21495617.642    21495630.813
       230.000         182.000
 -12104746.53649  -9069441.89546  21870565.508    21870567.075    21870584.896
       223.000         172.000
  -5440585.09349  -3888228.70646  22648085.909    22648086.771    22648105.906
       223.000         165.000
  -5641211.84049  -4388326.89647  20005266.424    20005266.232    20005276.434
       240.000         203.000
 -19901660.25149 -15493000.78547  18949068.308    18949068.070    18949078.714
       230.000         203.000
   2778868.91949   2172240.07947  20813832.046    20813831.429    20813844.883
       231.000         193.000
  -7067330.62049  -5492833.77545  22910847.839    22910847.446    22910864.475
       210.000         140.000
 01 12 19 22  5 59.9950000  0  8G 2G26G 4G 9G28G 7G 8G11
   1700935.39849   1326178.90746  22000043.323    22000042.671    22000057.889
       225.000         170.000
 -14760815.88049 -11480393.65746  21496381.383    21496381.689    21496394.921
       230.000         183.000
 -12242678.82649  -9176921.22746  21844317.601    21844319.064    21844336.803
       221.000         173.000
  -5575497.97949  -3993355.39246  22622412.669    22622413.510    22622432.444
       221.000         164.000
  -5640979.39249  -4388145.78547  20005310.637    20005310.480    20005320.677
       241.000         203.000
 -19931771.47149 -15516464.04947  18943338.387    18943338.091    18943348.715
       230.000         203.000
   2838896.43449   2219014.60947  20825255.051    20825254.399    20825267.887
       230.000         193.000
  -7037622.89549  -5469685.05145  22916500.942    22916500.645    22916517.758
       213.000         146.000
 01 12 19 22  6 29.9950000  0  8G 2G26G 4G 9G28G 7G 8G11
   1722418.17749   1342918.59246  22004131.488    22004130.788    22004146.106
       222.000         170.000
 -14756333.67049 -11476901.08446  21497234.278    21497234.628    21497247.856
       230.000         181.000
 -12380491.94249  -9284307.72146  21818092.434    21818093.785    21818111.406
       221.000         173.000
  -5710263.30449  -4098367.07146  22596767.410    22596768.304    22596787.152
       219.000         166.000
  -5640564.08349  -4387822.16847  20005389.693    20005389.514    20005399.727
       240.000         203.000
 -19961480.60149 -15539614.00147  18937684.738    18937684.614    18937695.260
       228.000         203.000
   2899233.97449   2266030.72547  20836737.058    20836736.374    20836749.871
       231.000         192.000
  -7007495.90149  -5446209.56345  22922234.030    22922233.729    22922250.878
       211.000         142.000
 01 12 19 22  6 59.9950000  0  8G 2G26G 4G 9G28G 7G 8G11
   1744022.03049   1359752.61546  22008242.522    22008241.914    22008257.185
       221.000         167.000
 -14751403.53149 -11473059.47646  21498172.537    21498172.822    21498186.093
       230.000         182.000
 -12518200.02049  -9391612.39446  21791887.133    21791888.476    21791905.964
       222.000         172.000
  -5844895.99049  -4203275.39946  22571147.560    22571148.355    22571167.216
       219.000         171.000
  -5639983.23549  -4387369.56747  20005500.242    20005500.058    20005510.283
       241.000         203.000
 -19990806.14449 -15562465.05247  18932104.360    18932104.140    18932114.776
       232.000         202.000
   2959862.54349   2313273.58847  20848274.445    20848273.725    20848287.248
       232.000         191.000
  -6976968.86649  -5422422.30745  22928043.171    22928042.886    22928059.955
       213.000         138.000
 01 12 19 22  7 29.9950000  0  8G 2G26G 4G 9G28G 7G 8G11
   1765752.59349   1376685.40846  22012377.876    22012377.218    22012392.406
       220.000         169.000
 -14746022.48149 -11468866.51946  21499196.637    21499196.866    21499210.068
       229.000         181.000
 -12655794.79449  -9498828.79946  21765703.426    21765704.733    21765722.141
       225.000         174.000
  -5979388.62649  -4308074.58446  22545554.205    22545555.049    22545573.889
       217.000         165.000
  -5639231.56149  -4386783.85547  20005643.286    20005643.094    20005653.340
       241.000         203.000
 -20019744.03349 -15585014.04447  18926597.712    18926597.440    18926608.073
       230.000         203.000
   3020785.53549   2360745.88547  20859867.761    20859867.128    20859880.659
       231.000         191.000
  -6946038.47249  -5398320.78745  22933929.187    22933928.895    22933945.898
       214.000         149.000
 01 12 19 22  7 59.9950000  0  8G 2G26G 4G 9G28G 7G 8G11
   1787616.29649   1393721.94246  22016538.577    22016537.846    22016553.023
       225.000         169.000
 -14740186.45049 -11464319.01246  21500307.168    21500307.453    21500320.695
       231.000         181.000
 -12793266.95749  -9605949.70446  21739543.135    21739544.348    21739561.630
       223.000         172.000
  -6113732.66749  -4412757.98046  22519989.096    22519989.975    22520008.753
       221.000         168.000
  -5638302.79349  -4386060.13847  20005820.027    20005819.850    20005830.127
       243.000         203.000
 -20048289.49649 -15607257.24947  18921165.630    18921165.402    18921176.040
       232.000         202.000
   3082007.18249   2408450.90647  20871518.054    20871517.337    20871530.895
       235.000         190.000
  -6914700.59749  -5373901.76345  22939892.871    22939892.433    22939909.408
       213.000         140.000
 01 12 19 22  8 29.9950000  0  8G 2G26G 4G 9G28G 7G 8G11
   1809637.87449   1410881.50246  22020729.596    22020728.663    22020743.807
       225.000         172.000
 -14733873.25149 -11459399.69346  21501508.551    21501508.850    21501522.077
       230.000         181.000
 -12930588.93149  -9712953.58646  21713411.496    21713412.567    21713429.703
       223.000         174.000
  -6247901.55549  -4517304.92946  22494457.421    22494458.308    22494476.983
       218.000         165.000
  -5637172.26049  -4385179.20547  20006035.144    20006034.986    20006045.299
       240.000         203.000
 -20076419.18849 -15629176.47647  18915812.729    18915812.501    18915823.133
       230.000         202.000
   3143550.03749   2456406.22947  20883229.335    20883228.680    20883242.275
       230.000         190.000
  -6882932.54349  -5349147.42945  22945938.126    22945937.820    22945954.671
       218.000         143.000
 01 12 19 22  8 59.9950000  0  8G 2G26G 4G 9G28G 7G 8G11
   1831795.70549   1428147.19946  22024945.880    22024945.163    22024960.472
       215.000         167.000
 -14727106.79549 -11454127.18246  21502796.200    21502796.508    21502809.747
       231.000         181.000
 -13067779.60349  -9819855.18146  21687304.720    21687305.783    21687322.819
       225.000         174.000
  -6381914.74749  -4621730.52246  22468955.385    22468956.218    22468974.881
       218.000         166.000
  -5635861.85749  -4384158.11547  20006284.500    20006284.364    20006294.688
       242.000         203.000
 -20104156.20249 -15650789.72647  18910534.527    18910534.307    18910544.961
       233.000         202.000
   3205390.33849   2504593.31047  20894997.254    20894996.620    20895010.247
       233.000         190.000
  -6850758.40949  -5324076.77645  22952060.784    22952060.448    22952077.443
       213.000         146.000
 01 12 19 22  9 29.9950000  0  8G 2G26G 4G 9G28G 7G 8G11
   1854092.96949   1445521.61146  22029189.197    22029188.385    22029203.649
       225.000         173.000
 -14719886.68249 -11448501.18946  21504170.253    21504170.507    21504183.727
       229.000         179.000
 -13204832.96849  -9926649.80146  21661224.008    21661225.158    21661242.054
       221.000         175.000
  -6515767.10249  -4726030.78546  22443483.893    22443484.726    22443503.388
       220.000         164.000
  -5634368.43649  -4382994.41647  20006568.736    20006568.569    20006578.883
       241.000         203.000
 -20131499.00749 -15672095.80247  18905331.364    18905331.130    18905341.787
       229.000         203.000
   3267528.99349   2553012.88247  20906822.028    20906821.359    20906835.006
       230.000         190.000
  -6818177.50749  -5298689.22245  22958260.752    22958260.419    22958277.452
       216.000         141.000
 01 12 19 22  9 59.9950000  0  8G 2G26G 4G 9G28G 7G 8G11
   1876517.52849   1462995.11346  22033456.385    22033455.655    22033471.099
       217.000         169.000
 -14712227.40649 -11442532.97246  21505627.772    21505628.066    21505641.264
       229.000         180.000
 -13341758.23049 -10033344.60346  21635167.715    21635168.918    21635185.709
       225.000         174.000
  -6649468.66049  -4830213.57946  22418041.235    22418041.967    22418060.539
       219.000         163.000
  -5632704.44849  -4381697.81447  20006885.390    20006885.227    20006895.526
       241.000         203.000
 -20158461.26749 -15693105.34847  18900200.612    18900200.381    18900211.032
       230.000         203.000
   3329951.88149   2601653.93847  20918700.782    20918700.154    20918713.841
       230.000         190.000
  -6785203.94649  -5272995.50045  22964535.520    22964535.176    22964551.999
       217.000         144.000
 01 12 19 22 10 29.9950000  0  8G 2G26G 4G 9G28G 7G 8G11
   1899079.79849   1480575.97146  22037750.012    22037749.224    22037764.711
       222.000         172.000
 -14704121.04149 -11436216.38146  21507170.434    21507170.694    21507183.869
       230.000         180.000
 -13478542.28449 -10139929.39746  21609138.392    21609139.565    21609156.213
       224.000         175.000
  -6783006.94049  -4934269.13246  22392629.524    22392630.267    22392648.689
       212.000         163.000
  -5630859.56849  -4380260.25747  20007236.502    20007236.314    20007246.587
       241.000         203.000
 -20185033.97449 -15713811.35247  18895144.049    18895143.751    18895154.395
       230.000         203.000
   3392667.23349   2650522.88947  20930635.161    20930634.598    20930648.356
       229.000         189.000
  -6751829.48649  -5246989.60645  22970886.501    22970886.178    22970903.110
       218.000         148.000
 01 12 19 22 10 59.9950000  0  8G 2G26G 4G 9G28G 7G 8G11
   1921777.51149   1498262.38346  22042069.424    22042068.585    22042084.087
       223.000         171.000
 -14695572.43849 -11429555.18646  21508797.162    21508797.460    21508810.661
       229.000         179.000
 -13615184.31449 -10246403.51446  21583136.179    21583137.223    21583153.774
       228.000         176.000
  -6916382.20649  -5038197.57846  22367248.749    22367249.554    22367268.021
       224.000         164.000
  -5628836.16949  -4378683.60547  20007621.544    20007621.356    20007631.653
       242.000         203.000
 -20211221.09349 -15734216.89747  18890160.745    18890160.492    18890171.136
       232.000         203.000
   3455670.56849   2699616.23347  20942624.430    20942623.842    20942637.648
       231.000         188.000
  -6718058.93149  -5220674.92845  22977312.923    22977312.673    22977329.419
       217.000         141.000
 01 12 19 22 11 29.9950000  0  8G 2G26G 4G 9G28G 7G 8G11
   1944606.15149   1516050.75446  22046413.589    22046412.799    22046428.414
       221.000         167.000
 -14686588.66349 -11422554.90346  21510506.787    21510507.085    21510520.226
       230.000         179.000
 -13751686.23649 -10352768.45446  21557160.502    21557161.593    21557178.029
       224.000         175.000
  -7049596.88049  -5142000.98446  22341898.934    22341899.532    22341917.781
       221.000         163.000
  -5626638.83149  -4376971.41447  20008039.693    20008039.514    20008049.806
       240.000         203.000
 -20237028.60549 -15754326.64047  18885249.885    18885249.506    18885260.114
       230.000         203.000
   3518955.02549   2748928.63446  20954667.200    20954666.591    20954680.429
       229.000         187.000
  -6683899.05949  -5194056.90945  22983813.409    22983813.171    22983829.866
       215.000         147.000
 01 12 19 22 11 59.9950000  0  8G 2G26G 4G 9G28G 7G 8G11
   1967568.01749   1533943.01146  22050783.399    22050782.451    22050797.954
       223.000         168.000
 -14677170.08249 -11415215.80546  21512299.096    21512299.417    21512312.540
       230.000         179.000
 -13888042.70849 -10459020.04746  21531212.610    21531213.640    21531230.008
       224.000         176.000
  -7182646.93549  -5245676.02745  22316580.075    22316580.749    22316598.874
       222.000         160.000
  -5624265.48349  -4375122.08747  20008491.308    20008491.145    20008501.456
       241.000         203.000
 -20262455.86949 -15774140.08947  18880411.118    18880410.868    18880421.459
       230.000         203.000
   3582520.92749   2798460.34646  20966763.326    20966762.890    20966776.770
       229.000         187.000
  -6649350.01649  -5167135.72945  22990388.036    22990387.687    22990404.520
       219.000         153.000
 01 12 19 22 12 29.9950000  0  8G 2G26G 4G 9G28G 7G 8G11
   1990668.71549   1551943.41846  22055179.289    22055178.415    22055193.909
       222.000         167.000
 -14667313.65649 -11407535.53246  21514174.726    21514175.063    21514188.180
       230.000         178.000
 -14024245.61349 -10565151.95546  21505293.710    21505294.885    21505311.187
       224.000         176.000
  -7315524.58249  -5349216.80746  22291294.408    22291294.815    22291312.838
       213.000         163.000
  -5621710.76449  -4373131.43347  20008977.501    20008977.327    20008987.600
       241.000         202.000
 -20287498.99249 -15793654.20947  18875645.575    18875645.294    18875655.883
       231.000         203.000
   3646371.26249   2848213.69546  20978913.874    20978913.315    20978927.218
       227.000         186.000
  -6614408.53149  -5139908.68945  22997037.306    22997036.880    22997053.708
       216.000         144.000
 01 12 19 22 12 59.9950000  0  8G 2G26G 4G 9G28G 7G 8G11
   2013924.58149   1570064.74546  22059604.784    22059604.006    22059619.383
       221.000         164.000
 -14657005.51349 -11399503.27546  21516136.382    21516136.669    21516149.803
       227.000         178.000
 -14160275.32349 -10671148.89746  21479407.953    21479409.097    21479425.318
       228.000         175.000
  -7448211.31449  -5452608.73546  22266044.757    22266045.133    22266063.133
       227.000         163.000
  -5618958.11449  -4370986.56347  20009501.303    20009501.145    20009511.443
       241.000         202.000
 -20312142.97049 -15812857.31147  18870956.041    18870955.703    18870966.277
       230.000         201.000
   3710520.44349   2898199.90346  20991121.149    20991120.604    20991134.560
       229.000         185.000
  -6579060.30949  -5112364.73945  23003764.014    23003763.574    23003780.334
       219.000         157.000
 01 12 19 22 13 29.9950000  0  8G 2G26G 4G 9G28G 7G 8G11
   2037302.44949   1588281.14146  22064053.484    22064052.782    22064068.245
       221.000         169.000
 -14646281.38649 -11391146.87946  21518177.202    21518177.441    21518190.617
       228.000         180.000
 -14296162.43249 -10777034.69946  21453549.377    21453550.462    21453566.611
       226.000         178.000
  -7580738.32649  -5555876.29146  22240825.406    22240825.886    22240843.686
       225.000         164.000
  -5616041.06749  -4368713.57547  20010056.509    20010056.273    20010066.519
       240.000         202.000
 -20336422.64549 -15831776.53447  18866335.818    18866335.447    18866346.001
       230.000         202.000
   3774933.30249   2948391.57646  21003378.602    21003378.081    21003392.054
       228.000         186.000
  -6543340.94049  -5084531.65445  23010561.297    23010560.868    23010577.691
       215.000         152.000
 01 12 19 22 13 59.9950000  0  8G 2G26G 4G 9G28G 7G 8G11
   2060833.34349   1606616.76446  22068531.309    22068530.639    22068546.192
       220.000         168.000
 -14635113.09949 -11382444.38146  21520302.520    21520302.751    21520315.937
       229.000         180.000
 -14431872.90649 -10882782.86546  21427724.382    21427725.411    21427741.540
       227.000         180.000
  -7713072.55749  -5658993.61046  22215642.740    22215643.285    22215661.136
       225.000         167.000
  -5612928.66049  -4366288.38547  20010648.795    20010648.575    20010658.824
       242.000         202.000
 -20360308.56349 -15850388.93447  18861790.424    18861790.091    18861800.648
       230.000         203.000
   3839638.12349   2998810.76046  21015691.726    21015691.116    21015705.127
       231.000         186.000
  -6507222.07749  -5056387.21545  23017434.604    23017434.257    23017450.954
       222.000         153.000
 01 12 19 22 14 29.9950000  0  8G 2G26G 4G 9G28G 7G 8G11
   2084517.60249   1625071.84046  22073038.247    22073037.615    22073053.432
       218.000         168.000
 -14623503.05449 -11373397.65246  21522511.874    21522512.112    21522525.340
       229.000         180.000
 -14567403.89149 -10988391.12746  21401933.449    21401934.538    21401950.602
       228.000         178.000
  -7845211.56049  -5761958.77746  22190497.271    22190497.869    22190515.606
       224.000         165.000
  -5609620.86749  -4363710.94547  20011278.254    20011278.049    20011288.275
       241.000         201.000
 -20383802.15749 -15868695.62647  18857319.690    18857319.406    18857329.938
       232.000         202.000
   3904633.25749   3049456.15646  21028059.907    21028059.386    21028073.430
       231.000         185.000
  -6470705.59349  -5027932.92945  23024383.611    23024383.206    23024399.986
       218.000         157.000
 01 12 19 22 14 59.9950000  0  8G 2G26G 4G 9G28G 7G 8G11
   2108343.17549   1643637.11546  22077572.160    22077571.577    22077587.413
       223.000         172.000
 -14611465.69049 -11364017.94546  21524802.505    21524802.769    21524816.064
       229.000         181.000
 -14702764.34249 -11093866.52546  21376174.916    21376176.100    21376192.081
       227.000         179.000
  -7977165.25849  -5864779.56646  22165387.078    22165387.694    22165405.344
       227.000         167.000
  -5606129.72549  -4360990.63647  20011942.640    20011942.419    20011952.656
       241.000         202.000
 -20406917.07049 -15886707.23947  18852921.093    18852920.798    18852931.313
       231.000         203.000
   3969904.32549   3100316.58746  21040480.850    21040480.178    21040494.264
       228.000         186.000
  -6433805.94649  -4999180.16245  23031405.418    23031405.060    23031421.917
       217.000         156.000
 01 12 19 22 15 29.9950000  0  8G 2G26G 4G 9G28G 7G 8G11
   2132306.62049   1662309.83346  22082132.366    22082131.763    22082147.612
       218.000         172.000
 -14599007.33649 -11354310.19546  21527173.289    21527173.565    21527186.894
       228.000         180.000
 -14837954.96049 -11199209.54946  21350448.861    21350449.956    21350465.930
       226.000         179.000
  -8108935.21449  -5967457.18446  22140311.834    22140312.488    22140330.089
       226.000         171.000
  -5602458.87749  -4358130.29847  20012641.189    20012640.975    20012651.222
       240.000         202.000
 -20429658.37749 -15904427.73147  18848593.546    18848593.274    18848603.770
       231.000         203.000
   4035445.59049   3151387.54446  21052952.939    21052952.400    21052966.517
       231.000         186.000
  -6396529.09149  -4970133.37445  23038499.138    23038498.684    23038515.607
       218.000         155.000
 01 12 19 22 15 59.9950000  0  8G 2G26G 4G 9G28G 7G 8G11
   2156397.41049   1681081.75946  22086716.637    22086716.097    22086732.044
       214.000         169.000
 -14586141.36849 -11344284.81646  21529621.683    21529621.911    21529635.290
       228.000         180.000
 -14972983.52049 -11304426.31746  21324753.627    21324754.666    21324770.564
       227.000         179.000
  -8240530.06149  -6069998.36446  22115270.038    22115270.639    22115288.164
       227.000         172.000
  -5598619.05349  -4355138.28947  20013371.877    20013371.712    20013381.958
       240.000         202.000
 -20452038.37949 -15921866.68447  18844334.841    18844334.497    18844345.002
       231.000         203.000
   4101244.20849   3202659.03446  21065474.194    21065473.580    21065487.734
       230.000         186.000
  -6358887.90549  -4940802.72745  23045662.145    23045661.654    23045678.648
       216.000         155.000
 01 12 19 22 16 29.9950000  0  8G 2G26G 4G 9G28G 7G 8G11
   2180628.30849   1699962.80146  22091327.570    22091327.121    22091343.201
       221.000         173.000
 -14572857.35549 -11333933.70846  21532149.578    21532149.822    21532163.210
       229.000         179.000
 -15107834.28849 -11409504.52746  21299092.087    21299093.200    21299109.061
       226.000         181.000
  -8371934.55849  -6172391.23246  22090264.389    22090265.026    22090282.447
       223.000         171.000
  -5594597.39949  -4352004.59347  20014137.225    20014137.032    20014147.303
       240.000         201.000
 -20474045.66349 -15939015.20847  18840147.015    18840146.673    18840157.139
       231.000         203.000
   4167310.79149   3254139.33846  21078046.447    21078045.771    21078059.953
       229.000         186.000
  -6320871.86849  -4911180.02445  23052896.470    23052896.009    23052913.072
       218.000         158.000
 01 12 19 22 16 59.9940000  0  8G 2G26G 4G 9G28G 7G 8G11
   2204999.18849   1718952.99646  22095965.511    22095964.882    22095980.944
       222.000         173.000
 -14559157.94349 -11323258.90646  21534756.501    21534756.762    21534770.205
       228.000         179.000
 -15242499.28849 -11514438.00246  21273465.959    21273467.101    21273482.882
       227.000         181.000
  -8503141.57049  -6274630.22546  22065296.206    22065296.931    22065314.291
       223.000         170.000
  -5590393.44449  -4348728.84747  20014937.275    20014937.060    20014947.307
       241.000         201.000
 -20495680.65449 -15955873.63547  18836030.007    18836029.665    18836040.134
       232.000         203.000
   4233641.63449   3305825.54046  21090668.895    21090668.221    21090682.443
       229.000         186.000
  -6282484.06649  -4881267.54745  23060201.564    23060201.094    23060218.207
       215.000         154.000
 01 12 19 22 17 29.9940000  0  8G 2G26G 4G 9G28G 7G 8G11
   2229510.39749   1738052.53946  22100629.991    22100629.369    22100645.363
       222.000         169.000
 -14545046.17349 -11312262.79246  21537441.931    21537442.214    21537455.624
       230.000         178.000
 -15376985.89149 -11619232.47546  21247873.885    21247874.947    21247890.648
       229.000         181.000
  -8634159.02349  -6376721.49546  22040364.278    22040364.943    22040382.272
       223.000         171.000
  -5586008.28049  -4345311.90247  20015771.816    20015771.563    20015781.832
       243.000         202.000
 -20516947.63449 -15972445.30247  18831983.004    18831982.696    18831993.148
       232.000         202.000
   4300237.41749   3357718.18946  21103341.879    21103341.114    21103355.374
       230.000         185.000
  -6243725.70249  -4851066.35745  23067577.145    23067576.721    23067593.862
       214.000         153.000
 01 12 19 22 17 59.9940000  0  8G 2G26G 4G 9G28G 7G 8G11
   2254164.15449   1757263.17046  22105321.603    22105320.972    22105336.920
       222.000         170.000
 -14530522.21049 -11300945.45546  21540205.850    21540206.086    21540219.491
       229.000         178.000
 -15511283.67749 -11723879.82646  21222317.757    21222318.742    21222334.358
       227.000         181.000
  -8764977.64349  -6478657.80946  22015470.102    22015470.814    22015488.028
       224.000         169.000
  -5581439.31149  -4341751.71247  20016641.317    20016641.058    20016651.315
       242.000         201.000
 -20537844.57549 -15988728.61647  18828006.476    18828006.142    18828016.601
       233.000         203.000
   4367096.68249   3409816.18446  21116064.888    21116064.153    21116078.435
       230.000         186.000
  -6204597.42849  -4820576.91045  23075023.070    23075022.669    23075039.853
       213.000         155.000
 01 12 19 22 18 29.9940000  0  8G 2G26G 4G 9G28G 7G 8G11
   2278961.17149   1776585.44246  22110040.597    22110039.885    22110055.669
       222.000         169.000
 -14515588.03249 -11289308.49246  21543047.758    21543048.010    21543061.455
       229.000         179.000
 -15645389.19349 -11828377.36946  21196798.090    21196799.084    21196814.610
       227.000         182.000
  -8895594.25449  -6580436.73246  21990614.356    21990615.099    21990632.237
       223.000         174.000
  -5576685.65849  -4338047.61147  20017545.939    20017545.681    20017555.972
       240.000         202.000
 -20558372.35649 -16004724.27947  18824100.133    18824099.819    18824110.278
       231.000         203.000
   4434218.15249   3462118.47846  21128837.793    21128837.093    21128851.390
       228.000         187.000
  -6165100.91049  -4789800.54845  23082539.032    23082538.672    23082555.932
       202.000         146.000
 01 12 19 22 18 59.9940000  0  8G 2G26G 4G 9G28G 7G 8G11
   2303878.77649   1796001.56945  22114782.111    22114781.591    22114797.565
       214.000         161.000
 -14500269.19449 -11277371.79546  21545962.903    21545963.145    21545976.570
       228.000         178.000
 -15779322.01749 -11932740.37946  21171311.339    21171312.319    21171327.768
       226.000         182.000
  -9026029.39549  -6682074.25446  21965793.177    21965793.930    21965811.031
       221.000         174.000
  -5571770.11549  -4334217.37747  20018481.327    20018481.123    20018491.423
       240.000         201.000
 -20578555.44949 -16020451.35847  18820259.400    18820259.107    18820269.561
       231.000         203.000
   4501576.50249   3514605.35246  21141655.850    21141655.093    21141669.416
       229.000         185.000
  -6125261.35749  -4758756.88445  23090120.306    23090119.965    23090137.221
       207.000         148.000
 01 12 19 22 19 29.9940000  0  8G 2G26G 4G 9G28G 7G 8G11
   2328950.68449   1815537.97545  22119553.415    22119552.754    22119568.796
       210.000         160.000
 -14484534.60349 -11265111.12546  21548957.165    21548957.392    21548970.817
       228.000         178.000
 -15913045.71549 -12036940.43746  21145864.301    21145865.335    21145880.742
       227.000         184.000
  -9156247.24749  -6783542.44546  21941013.376    21941014.133    21941031.141
       222.000         174.000
  -5566659.07249  -4330234.77647  20019453.990    20019453.751    20019464.096
       241.000         202.000
 -20598361.56349 -16035884.68647  18816490.453    18816490.115    18816500.573
       232.000         203.000
   4569203.42049   3567301.49546  21154524.950    21154524.211    21154538.570
       231.000         185.000
  -6085047.50249  -4727421.51845  23097772.886    23097772.489    23097789.794
       206.000         149.000
 01 12 19 22 19 59.9940000  0  8G 2G26G 4G 9G28G 7G 8G11
   2354185.04049   1835200.95445  22124355.467    22124354.765    22124370.942
       210.000         158.000
 -14468379.06349 -11252522.44546  21552031.546    21552031.734    21552045.135
       229.000         177.000
 -16046549.39049 -12140969.07746  21120459.148    21120460.244    21120475.575
       227.000         184.000
  -9286237.93249  -6884833.64546  21916276.676    21916277.481    21916294.481
       223.000         172.000
  -5561344.51549  -4326093.61147  20020465.325    20020465.124    20020475.485
       241.000         202.000
 -20617784.49249 -16051019.43347  18812794.350    18812794.055    18812804.504
       233.000         203.000
   4637104.51149   3620211.28846  21167446.272    21167445.460    21167459.887
       230.000         183.000
  -6044453.82149  -4695790.25145  23105497.653    23105497.281    23105514.682
       204.000         146.000
 01 12 19 22 20 29.9940000  0  8G 2G26G 4G 9G28G 7G 8G11
   2379557.27849   1854971.36346  22129183.734    22129183.027    22129199.288
       217.000         164.000
 -14451829.78749 -11239626.95146  21555180.791    21555180.990    21555194.427
       228.000         177.000
 -16179854.52049 -12244843.02046  21095091.786    21095092.936    21095108.189
       228.000         184.000
  -9416023.73849  -6985965.20646  21891579.091    21891579.868    21891596.753
       223.000         173.000
  -5555851.11849  -4321813.07547  20021510.754    20021510.517    20021520.899
       241.000         202.000
 -20636850.34249 -16065875.93147  18809166.315    18809165.941    18809176.398
       231.000         203.000
   4705253.01349   3673313.86846  21180414.523    21180413.786    21180428.287
       225.000         183.000
  -6003506.02849  -4663882.78045  23113289.794    23113289.433    23113306.923
       206.000         146.000
 01 12 19 22 20 59.9940000  0  8G 2G26G 4G 9G28G 7G 8G11
   2405075.73149   1874855.76846  22134039.824    22134039.094    22134055.416
       221.000         163.000
 -14434881.44849 -11226420.50746  21558406.013    21558406.205    21558419.627
       227.000         176.000
 -16312950.07449 -12348553.66646  21069764.381    21069765.496    21069780.699
       228.000         183.000
  -9545594.09649  -7086928.86446  21866922.464    21866923.242    21866940.162
       224.000         174.000
  -5550170.87349  -4317386.94547  20022591.726    20022591.454    20022601.874
       241.000         201.000
 -20655552.54949 -16080449.07647  18805607.386    18805607.018    18805617.466
       232.000         203.000
   4773654.95649   3726613.93346  21193431.057    21193430.352    21193444.902
       228.000         183.000
  -5962200.60149  -4631696.86945  23121149.882    23121149.648    23121167.303
       209.000         143.000
 01 12 19 22 21 29.9940000  0  8G 2G26G 4G 9G28G 7G 8G11
   2430746.24949   1894858.67546  22138924.723    22138924.069    22138940.393
       222.000         166.000
 -14417530.90349 -11212900.66346  21561707.754    21561707.989    21561721.369
       228.000         176.000
 -16445827.24949 -12452094.15646  21044478.599    21044479.633    21044494.755
       227.000         183.000
  -9674940.90349  -7187718.38846  21842308.379    21842309.153    21842325.961
       222.000         172.000
  -5544297.71649  -4312810.49447  20023709.405    20023709.108    20023719.541
       239.000         201.000
 -20673886.88749 -16094735.56947  18802118.476    18802118.120    18802128.534
       231.000         202.000
   4842313.69149   3780114.10146  21206496.517    21206495.782    21206510.402
       224.000         182.000
  -5920532.98649  -4599228.75745  23129078.960    23129078.761    23129096.473
       207.000         143.000
 01 12 19 22 21 59.9940000  0  8G 2G26G 4G 9G28G 7G 8G11
   2456558.83149   1914972.24946  22143836.645    22143836.127    22143852.355
       221.000         163.000
 -14399790.75949 -11199077.22346  21565083.615    21565083.865    21565097.252
       228.000         176.000
 -16578492.86549 -12555469.80546  21019233.093    21019234.052    21019249.091
       228.000         184.000
  -9804071.93849  -7288339.72946  21817735.431    21817736.148    21817752.930
       224.000         175.000
  -5538241.36049  -4308091.29147  20024861.919    20024861.633    20024872.071
       240.000         201.000
 -20691865.01849 -16108744.50047  18798697.377    18798697.023    18798707.395
       232.000         203.000
   4911217.22249   3833805.01046  21219608.491    21219607.810    21219622.455
       229.000         181.000
  -5878515.44149  -4566487.98445  23137074.800    23137074.549    23137092.238
       215.000         147.000
 01 12 19 22 22 29.9940000  0  8G 2G26G 4G 9G28G 7G 8G11
   2482537.75849   1935215.43045  22148780.119    22148779.764    22148796.081
       216.000         158.000
 -14381639.66949 -11184933.59446  21568537.703    21568537.932    21568551.345
       227.000         175.000
 -16710919.86149 -12658659.51946  20994032.854    20994033.872    20994048.857
       227.000         184.000
  -9932960.87149  -7388772.45546  21793208.483    21793209.234    21793225.957
       223.000         174.000
  -5531978.01349  -4303210.78947  20026053.876    20026053.542    20026063.967
       240.000         201.000
 -20709464.25649 -16122458.18947  18795348.273    18795347.982    18795358.343
       232.000         202.000
   4980387.39049   3887703.70746  21232771.259    21232770.561    21232785.238
       222.000         179.000
  -5836126.39749  -4533457.67045  23145141.258    23145140.971    23145158.717
       216.000         143.000
 01 12 19 22 22 59.9940000  0  8G 2G26G 4G 9G28G 7G 8G11
   2508671.68949   1955579.36746  22153753.403    22153752.937    22153769.354
       224.000         164.000
 -14363091.95249 -11170480.88446  21572067.257    21572067.474    21572080.897
       225.000         175.000
 -16843116.94049 -12761670.05346  20968876.511    20968877.458    20968892.360
       229.000         185.000
 -10061617.13549  -7489023.87346  21768725.812    21768726.584    21768743.165
       225.000         173.000
  -5525519.12649  -4298177.92047  20027282.942    20027282.671    20027293.083
       241.000         200.000
 -20726697.91549 -16135887.00547  18792068.907    18792068.542    18792078.870
       233.000         203.000
   5049810.45149   3941799.44746  21245982.085    21245981.420    21245996.151
       226.000         180.000
  -5793379.63549  -4500148.57045  23153275.897    23153275.504    23153293.236
       214.000         136.000
 01 12 19 22 23 29.9940000  0  8G 2G26G 4G 9G28G 7G 8G11
   2534928.19749   1976038.88146  22158750.324    22158749.628    22158765.842
       224.000         165.000
 -14344182.76249 -11155746.51546  21575665.612    21575665.831    21575679.246
       227.000         173.000
 -16975113.54049 -12864524.38446  20943758.266    20943759.191    20943774.022
       230.000         184.000
 -10190070.55249  -7589117.22746  21744281.799    21744282.548    21744299.151
       227.000         175.000
  -5518896.91649  -4293017.78247  20028543.153    20028542.880    20028553.262
       240.000         200.000
 -20743599.89049 -16149057.37247  18788852.530    18788852.184    18788862.539
       232.000         202.000
   5119451.73449   3996065.22246  21259234.465    21259233.835    21259248.563
       226.000         178.000
  -5750310.04849  -4466587.95245  23161471.834    23161471.518    23161489.133
       215.000         137.000
 01 12 19 22 23 59.9940000  0  8G 2G26G 4G 9G28G 7G 8G11
   2561332.36149   1996613.43445  22163775.237    22163774.359    22163790.585
       221.000         161.000
 -14324889.69849 -11140713.03846  21579337.019    21579337.229    21579350.659
       225.000         175.000
 -17106881.40849 -12967200.46646  20918683.485    20918684.464    20918699.236
       228.000         185.000
 -10318293.74649  -7689031.19746  21719881.593    21719882.282    21719898.860
       227.000         175.000
  -5512086.34549  -4287710.86547  20029839.238    20029838.929    20029849.319
       241.000         201.000
 -20760146.71649 -16161950.99447  18785703.764    18785703.441    18785713.776
       232.000         203.000
   5189334.32349   4050519.02846  21272532.780    21272532.138    21272546.905
       226.000         179.000
  -5706895.10249  -4432758.24345  23169733.515    23169733.167    23169750.810
       219.000         144.000
 01 12 19 22 24 29.9940000  0  8G 2G26G 4G 9G28G 7G 8G11
   2587906.10149   2017320.06245  22168832.125    22168831.317    22168847.688
       222.000         162.000
 -14305193.92149 -11125365.75146  21583085.058    21583085.257    21583098.681
       227.000         174.000
 -17238395.88649 -13069679.09146  20893656.909    20893657.946    20893672.672
       229.000         184.000
 -10446262.80449  -7788747.18146  21695529.859    21695530.455    21695546.879
       226.000         175.000
  -5505065.52449  -4282240.12047  20031175.231    20031174.972    20031185.372
       240.000         200.000
 -20776318.32849 -16174552.24747  18782626.437    18782626.097    18782636.418
       232.000         203.000
   5259477.33749   4105175.77046  21285880.845    21285880.017    21285894.821
       223.000         178.000
  -5663115.44249  -4398644.35845  23178064.586    23178064.285    23178081.838
       219.000         139.000
 01 12 19 22 24 59.9940000  0  8G 2G26G 4G 9G28G 7G 8G11
   2614636.65949   2038148.95946  22173918.718    22173918.007    22173934.447
       224.000         167.000
 -14285110.82749 -11109716.67446  21586906.744    21586906.991    21586920.426
       224.000         175.000
 -17369666.75249 -13171967.88146  20868676.673    20868677.792    20868692.464
       229.000         186.000
 -10573988.36649  -7888273.37646  21671224.237    21671224.866    21671241.339
       227.000         176.000
  -5497847.12049  -4276615.40747  20032548.881    20032548.620    20032559.025
       240.000         200.000
 -20792129.09049 -16186872.31947  18779617.759    18779617.414    18779627.717
       233.000         204.000
   5329866.03649   4160023.91646  21299275.306    21299274.638    21299289.496
       225.000         177.000
  -5618986.14949  -4364258.01944  23186462.186    23186461.969    23186479.246
       215.000         127.000
 01 12 19 22 25 29.9940000  0  8G 2G26G 4G 9G28G 7G 8G11
   2641532.74649   2059106.88546  22179037.077    22179036.287    22179052.577
       216.000         164.000
 -14264634.78349 -11093761.39646  21590803.364    21590803.515    21590816.957
       226.000         175.000
 -17500682.39549 -13274057.77746  20843745.063    20843746.187    20843760.812
       229.000         185.000
 -10701459.35649  -7987601.22046  21646967.203    21646967.803    21646984.226
       227.000         177.000
  -5490422.75749  -4270830.20847  20033961.722    20033961.452    20033971.881
       240.000         200.000
 -20807572.09849 -16198905.82847  18776679.054    18776678.713    18776689.005
       232.000         204.000
   5400506.58949   4215068.35946  21312717.957    21312717.194    21312732.071
       226.000         179.000
  -5574501.19649  -4329594.44445  23194927.411    23194927.312    23194944.455
       216.000         132.000
 01 12 19 22 25 59.9940000  0  8G 2G26G 4G 9G28G 7G 8G11
   2668577.65049   2080180.68846  22184183.640    22184182.840    22184199.236
       219.000         168.000
 -14243785.53549 -11077515.30546  21594770.862    21594771.018    21594784.514
       225.000         174.000
 -17631456.93649 -13375959.78946  20818859.395    20818860.476    20818875.046
       228.000         186.000
 -10828690.35949  -8086742.06346  21622755.753    21622756.360    21622772.688
       226.000         177.000
  -5482809.11549  -4264897.51447  20035410.547    20035410.289    20035420.736
       239.000         200.000
 -20822665.98349 -16210667.29247  18773806.755    18773806.433    18773816.736
       233.000         204.000
   5471379.92149   4270294.16546  21326204.893    21326204.057    21326218.960
       228.000         177.000
  -5529679.86549  -4294668.83045  23203456.881    23203456.616    23203473.745
       218.000         140.000
 01 12 19 22 26 29.9940000  0  8G 2G26G 4G 9G28G 7G 8G11
   2695776.34449   2101374.32545  22189359.399    22189358.629    22189374.993
       212.000         159.000
 -14222560.71649 -11060976.57446  21598809.823    21598810.025    21598823.541
       224.000         174.000
 -17761982.23449 -13477667.57446  20794021.102    20794022.179    20794036.704
       229.000         186.000
 -10955674.14049  -8185690.23246  21598591.505    21598592.032    21598608.281
       227.000         177.000
  -5475001.12849  -4258813.39247  20036896.395    20036896.123    20036906.594
       240.000         200.000
 -20837407.17049 -16222153.92447  18771001.672    18771001.296    18771011.559
       233.000         204.000
   5542488.64149   4325703.40846  21339736.643    21339735.700    21339750.669
       227.000         177.000
  -5484519.45649  -4259479.00345  23212050.641    23212050.473    23212067.533
       214.000         138.000
 01 12 19 22 26 59.9940000  0  8G 2G26G 4G 9G28G 7G 8G11
   2723118.74949   2122679.93346  22194562.607    22194561.825    22194578.214
       226.000         168.000
 -14200973.48049 -11044155.44846  21602917.812    21602918.023    21602931.541
       227.000         174.000
 -17892265.59349 -13579186.82446  20769228.967    20769229.919    20769244.394
       230.000         186.000
 -11082418.55449  -8284451.89346  21574472.550    21574473.167    21574489.383
       229.000         174.000
  -5467008.97049  -4252585.76147  20038417.249    20038416.985    20038427.469
       239.000         199.000
 -20851807.49249 -16233374.95547  18768261.399    18768261.019    18768271.268
       234.000         204.000
   5613820.59349   4381286.59046  21353310.857    21353309.860    21353324.845
       225.000         176.000
  -5439032.62449  -4224034.81844  23220706.487    23220706.303    23220723.541
       210.000         130.000
 01 12 19 22 27 29.9940000  0  9G 2G26G 4G 9G28G 7G 8G24G11
   2750593.85049   2144088.95346  22199791.048    22199790.286    22199806.800
       217.000         169.000
 -14179037.77549 -11027062.77746  21607092.085    21607092.306    21607105.878
       224.000         174.000
 -18022315.08149 -13680523.83746  20744481.298    20744482.154    20744496.583
       229.000         186.000
 -11208932.39249  -8383033.87346  21550397.615    21550398.230    21550414.384
       228.000         179.000
  -5458843.92349  -4246223.41947  20039971.077    20039970.791    20039981.251
       239.000         200.000
 -20865879.91749 -16244340.49047  18765583.492    18765583.135    18765593.372
       233.000         205.000
   5685361.97749   4437032.95946  21366924.655    21366923.850    21366938.901
       224.000         177.000
   -380637.69359   -272037.16355  23302211.794    23302209.780    23302238.144
       211.000         149.000
  -5393233.24449  -4188347.04345  23229422.042    23229421.828    23229439.113
       211.000         135.000
 01 12 19 22 27 59.9940000  0  9G 2G26G 4G 9G28G 7G 8G24G11
   2778225.48149   2165619.98046  22205049.146    22205048.500    22205064.964
       223.000         172.000
 -14156732.53649 -11009682.16546  21611336.722    21611336.885    21611350.523
       224.000         172.000
 -18152103.84149 -13781657.67746  20719783.146    20719783.989    20719798.381
       230.000         186.000
 -11335189.51549  -8481415.83746  21526371.621    21526372.154    21526388.208
       229.000         175.000
  -5450481.61249  -4239707.36647  20041562.333    20041562.092    20041572.573
       240.000         199.000
 -20879602.05549 -16255033.07547  18762972.277    18762971.931    18762982.133
       236.000         205.000
   5757134.58349   4492959.51446  21380582.639    21380581.861    21380596.935
       225.000         177.000
   -522635.45959   -382683.96255  23275190.209    23275188.972    23275215.914
       206.000         146.000
  -5347099.71549  -4152398.91645  23238200.972    23238200.836    23238218.199
       215.000         144.000
 01 12 19 22 28 29.9940000  0  9G 2G26G 4G 9G28G 7G 8G24G11
   2805996.39349   2187259.51546  22210333.908    22210333.246    22210349.631
       225.000         173.000
 -14134077.85649 -10992029.27946  21615647.804    21615647.980    21615661.661
       226.000         172.000
 -18281646.28149 -13882599.58146  20695131.813    20695132.707    20695147.047
       232.000         186.000
 -11461205.01249  -8579609.51146  21502391.437    21502392.042    21502408.032
       230.000         179.000
  -5441939.51049  -4233051.21047  20043187.901    20043187.626    20043198.075
       242.000         199.000
 -20892992.97549 -16265467.56847  18760424.108    18760423.741    18760433.924
       237.000         204.000
   5829118.83149   4549050.97246  21394280.774    21394280.141    21394295.282
       226.000         176.000
   -664712.61849   -493392.62945  23248153.488    23248151.999    23248179.375
       206.000         146.000
  -5300651.92349  -4116205.89945  23247039.811    23247039.645    23247057.082
       211.000         148.000
 01 12 19 22 28 59.9940000  0  9G 2G26G 4G 9G28G 7G 8G24G11
   2833920.41649   2209018.39646  22215647.815    22215647.137    22215663.551
       218.000         169.000
 -14111063.07649 -10974095.78246  21620027.361    21620027.622    21620041.316
       225.000         173.000
 -18410925.71949 -13983336.53547  20670530.560    20670531.471    20670545.759
       229.000         188.000
 -11586962.66349  -8677602.24446  21478460.343    21478460.974    21478476.960
       226.000         176.000
  -5433203.89749  -4226244.27047  20044850.199    20044849.957    20044860.440
       239.000         199.000
 -20906040.61249 -16275634.56147  18757941.257    18757940.869    18757951.042
       234.000         205.000
   5901326.10549   4605316.24246  21408021.529    21408020.833    21408036.061
       221.000         177.000
   -806853.07749   -604150.65245  23221104.600    23221103.402    23221130.585
       201.000         146.000
  -5253878.65349  -4079759.26445  23255940.727    23255940.379    23255957.852
       202.000         143.000
 01 12 19 22 29 29.9940000  0  9G 2G26G 4G 9G28G 7G 8G24G11
   2861997.88949   2230896.78446  22220990.959    22220990.223    22221006.738
       224.000         172.000
 -14087690.41649 -10955883.42946  21624475.123    21624475.356    21624489.044
       225.000         170.000
 -18539938.47049 -14083865.69346  20645980.065    20645980.990    20645995.211
       231.000         187.000
 -11712459.84549  -8775392.04246  21454578.843    21454579.492    21454595.382
       229.000         177.000
  -5424274.12249  -4219286.03747  20046549.510    20046549.276    20046559.732
       241.000         198.000
 -20918746.05249 -16285534.91547  18755523.476    18755523.132    18755533.266
       235.000         204.000
   5973754.71649   4661753.95046  21421804.344    21421803.681    21421818.953
       226.000         176.000
   -949054.03049   -714955.82845  23194043.975    23194043.385    23194070.387
       204.000         147.000
  -5206781.62349  -4043060.40245  23264902.955    23264902.729    23264920.227
       197.000         136.000
 01 12 19 22 29 59.9940000  0  9G 2G26G 4G 9G28G 7G 8G24G11
   2890247.59249   2252909.39246  22226366.785    22226366.064    22226382.625
       223.000         177.000
 -14063944.28149 -10937380.03246  21628993.976    21628994.126    21629007.854
       222.000         171.000
 -18668663.40449 -14184170.57247  20621484.282    20621485.258    20621499.446
       231.000         189.000
 -11837675.67449  -8872962.60146  21430750.888    21430751.562    21430767.356
       227.000         179.000
  -5415131.49649  -4212161.94347  20048289.310    20048289.059    20048299.526
       239.000         199.000
 -20931092.51449 -16295155.54347  18753174.060    18753173.706    18753183.816
       235.000         205.000
   6046420.71749   4718376.66046  21435632.352    21435631.687    21435647.004
       227.000         176.000
  -1091294.81949   -825792.10645  23166975.762    23166975.644    23167002.651
       198.000         145.000
  -5159344.94249  -4006096.85845  23273929.696    23273929.562    23273947.182
       198.000         134.000
 01 12 19 22 30 29.9940000  0  9G 2G26G 4G 9G28G 7G 8G24G11
   2918646.00049   2275037.88746  22231771.040    22231770.211    22231786.813
       225.000         176.000
 -14039851.16749 -10918606.28646  21633578.767    21633578.973    21633592.714
       223.000         171.000
 -18797121.05849 -14284267.18847  20597039.385    20597040.396    20597054.523
       231.000         189.000
 -11962631.31849  -8970330.40646  21406972.415    21406973.088    21406988.886
       228.000         178.000
  -5405799.53149  -4204890.32947  20050065.123    20050064.914    20050075.385
       239.000         198.000
 -20943105.19949 -16304516.08647  18750888.142    18750887.765    18750897.868
       234.000         205.000
   6119298.42349   4775164.33146  21449500.785    21449499.965    21449515.350
       223.000         176.000
  -1233595.99349   -936675.40745  23139896.468    23139896.280    23139923.292
       200.000         144.000
  -5111594.62149  -3968888.85045  23283016.181    23283016.044    23283033.943
       202.000         136.000
 01 12 19 22 30 59.9940000  0  9G 2G26G 4G 9G28G 7G 8G24G11
   2947203.40849   2297290.25946  22237205.277    22237204.579    22237221.327
       223.000         172.000
 -14015403.69749 -10899556.41046  21638231.051    21638231.248    21638245.002
       222.000         171.000
 -18925298.03449 -14384145.09147  20572647.974    20572648.938    20572663.014
       231.000         190.000
 -12087314.42749  -9067485.85646  21383245.796    21383246.492    21383262.186
       229.000         179.000
  -5396268.06149  -4197463.25547  20051878.884    20051878.705    20051889.177
       239.000         199.000
 -20954775.67349 -16313609.97147  18748667.327    18748666.941    18748677.049
       234.000         205.000
   6192395.57949   4832122.99646  21463410.717    21463410.020    21463425.440
       225.000         177.000
  -1375945.00349  -1047596.03145  23112807.870    23112807.882    23112834.941
       206.000         145.000
  -5063523.04149  -3931430.55245  23292163.907    23292164.567    23292182.685
       199.000         138.000
 01 12 19 22 31 29.9940000  0  9G 2G26G 4G 9G28G 7G 8G24G11
   2975913.42749   2319661.54446  22242668.488    22242667.990    22242684.782
       220.000         174.000
 -13990611.15849 -10880237.65646  21642948.947    21642949.179    21642962.964
       222.000         170.000
 -19053197.81349 -14483807.01747  20548309.349    20548310.238    20548324.271
       232.000         190.000
 -12211728.87449  -9164431.96746  21359570.377    21359571.045    21359586.679
       230.000         180.000
  -5386543.35249  -4189885.61547  20053729.471    20053729.285    20053739.769
       241.000         199.000
 -20966111.82949 -16322443.35847  18746510.123    18746509.758    18746519.867
       235.000         205.000
   6265703.59549   4889245.97746  21477360.968    21477360.181    21477375.671
       222.000         175.000
  -1518346.50349  -1158557.56945  23085709.069    23085709.565    23085736.451
       201.000         141.000
  -5015139.30248  -3893729.02745  23301371.168    23301371.643    23301389.986
       188.000         132.000
 01 12 19 22 31 59.9940000  0  9G 2G26G 4G 9G28G 7G 8G24G11
   3004769.91849   2342147.03146  22248159.641    22248159.280    22248176.032
       216.000         163.000
 -13965482.84149 -10860657.23246  21647730.834    21647731.014    21647744.823
       222.000         171.000
 -19180823.84449 -14583255.61747  20524022.652    20524023.619    20524037.615
       230.000         191.000
 -12335878.56249  -9261171.75946  21335945.359    21335946.020    21335961.513
       229.000         181.000
  -5376631.88849  -4182162.43347  20055615.637    20055615.402    20055625.885
       239.000         199.000
 -20977121.76549 -16331022.52447  18744415.039    18744414.630    18744424.758
       234.000         205.000
   6339213.82849   4946526.52746  21491349.814    21491348.834    21491364.388
       222.000         178.000
  -1660803.76249  -1269562.43545  23058599.790    23058600.540    23058627.357
       199.000         143.000
  -4966451.71748  -3855790.79844  23310635.920    23310636.323    23310655.743
       186.000         131.000
 01 12 19 22 32 29.9940000  0  9G 2G26G 4G 9G28G 7G 8G24G11
   3033793.03149   2364762.28245  22253682.747    22253682.232    22253699.091
       216.000         152.000
 -13940001.37649 -10840801.66246  21652579.856    21652580.034    21652593.920
       223.000         172.000
 -19308152.96849 -14682472.88847  20499792.409    20499793.507    20499807.447
       230.000         192.000
 -12459740.92349  -9357687.66646  21312374.953    21312375.638    21312391.029
       231.000         180.000
  -5366512.96849  -4174277.61147  20057541.265    20057541.004    20057551.498
       238.000         199.000
 -20987786.95449 -16339333.07047  18742385.468    18742385.110    18742395.248
       234.000         205.000
   6412944.19849   5003978.61246  21505380.342    21505379.378    21505394.956
       221.000         177.000
  -1803294.36449  -1380593.19245  23031483.986    23031485.034    23031511.795
       201.000         141.000
  -4917443.04249  -3817602.39245  23319962.412    23319962.118    23319981.704
       200.000         138.000
 01 12 19 22 32 59.9940000  0  9G 2G26G 4G 9G28G 7G 8G24G11
   3062948.53549   2387480.71846  22259231.075    22259230.473    22259247.419
       220.000         170.000
 -13914203.96449 -10820699.87546  21657489.032    21657489.179    21657503.137
       225.000         171.000
 -19435216.34949 -14781483.08747  20475612.917    20475613.963    20475627.851
       234.000         192.000
 -12583347.97149  -9454004.60646  21288853.189    21288853.858    21288869.221
       233.000         182.000
  -5356220.97649  -4166257.92947  20059499.701    20059499.529    20059510.053
       241.000         198.000
 -20998143.09749 -16347402.79947  18740414.789    18740414.413    18740424.563
       237.000         205.000
   6486858.20549   5061573.79846  21519445.805    21519444.888    21519460.491
       223.000         177.000
  -1945849.82649  -1491674.45445  23004355.874    23004357.186    23004383.952
       204.000         143.000
  -4868149.67249  -3779192.05445  23329342.596    23329342.471    23329361.734
       210.000         146.000
 01 12 19 22 33 29.9940000  0  9G 2G26G 4G 9G28G 7G 8G24G11
   3092265.63949   2410325.19846  22264810.017    22264809.430    22264826.299
       215.000         170.000
 -13888064.57949 -10800331.61646  21662463.256    21662463.416    21662477.422
       222.000         172.000
 -19561982.12849 -14880261.41047  20451490.063    20451491.066    20451504.887
       231.000         192.000
 -12706668.41949  -9550098.25446  21265385.943    21265386.599    21265401.882
       227.000         181.000
  -5345726.45249  -4158080.41147  20061496.796    20061496.615    20061507.116
       239.000         198.000
 -21008163.02149 -16355210.53347  18738508.086    18738507.710    18738517.829
       235.000         206.000
   6560982.38449   5119332.73946  21533551.380    21533550.379    21533566.030
       223.000         176.000
  -2088439.22249  -1602782.13045  22977221.827    22977222.918    22977249.631
       207.000         145.000
  -4818545.17349  -3740539.27545  23338781.984    23338781.958    23338801.144
       213.000         152.000
 01 12 19 22 33 59.9940000  0  9G 2G26G 4G 9G28G 7G 8G24G11
   3121723.44149   2433279.19745  22270415.836    22270415.164    22270432.061
       218.000         157.000
 -13861606.97549 -10779715.39346  21667498.082    21667498.182    21667512.260
       223.000         170.000
 -19688468.13249 -14978821.72547  20427420.323    20427421.399    20427435.181
       234.000         192.000
 -12829720.82849  -9645983.02546  21241969.681    21241970.329    21241985.578
       231.000         179.000
  -5335050.56349  -4149761.58247  20063528.378    20063528.197    20063538.714
       240.000         198.000
 -21017869.30849 -16362773.87347  18736661.099    18736660.675    18736670.802
       237.000         205.000
   6635293.83149   5177237.60146  21547692.487    21547691.512    21547707.188
       224.000         174.000
  -2231080.46249  -1713930.15845  22950077.666    22950078.710    22950105.421
       210.000         144.000
  -4768652.95649  -3701662.27745  23348276.340    23348276.290    23348295.255
       216.000         153.000
 01 12 19 22 34 29.9940000  0  9G 2G26G 4G 9G28G 7G 8G24G11
   3151336.79049   2456354.39346  22276051.283    22276050.460    22276067.479
       213.000         165.000
 -13834819.08049 -10758841.82046  21672595.714    21672595.818    21672609.912
       220.000         171.000
 -19814656.45149 -15077150.09847  20403407.407    20403408.392    20403422.102
       232.000         193.000
 -12952487.93949  -9741645.49646  21218607.725    21218608.348    21218623.558
       228.000         183.000
  -5324178.24749  -4141289.67747  20065597.398    20065597.179    20065607.679
       238.000         198.000
 -21027248.57349 -16370082.39047  18734876.274    18734875.865    18734885.998
       235.000         206.000
   6709805.01649   5235298.09246  21561871.470    21561870.649    21561886.355
       225.000         173.000
  -2373756.15949  -1825104.99545  22922926.456    22922927.921    22922954.508
       208.000         144.000
  -4718460.53249  -3662551.32145  23357827.905    23357827.675    23357846.523
       216.000         152.000
 01 12 19 22 34 59.9940000  0  9G 2G26G 4G 9G28G 7G 8G24G11
   3181103.66549   2479549.26645  22281715.848    22281714.978    22281731.933
       212.000         153.000
 -13807705.98449 -10737714.82946  21677755.266    21677755.367    21677769.439
       223.000         171.000
 -19940546.24049 -15175245.86347  20379451.192    20379452.199    20379465.838
       232.000         192.000
 -13074969.40349  -9837085.37646  21195300.113    21195300.751    21195315.909
       230.000         179.000
  -5313111.31949  -4132666.14247  20067703.439    20067703.177    20067713.681
       239.000         198.000
 -21036304.78149 -16377139.17647  18733152.917    18733152.525    18733162.675
       235.000         206.000
   6784511.46849   5293510.75846  21576087.743    21576086.937    21576102.663
       224.000         173.000
  -2516466.12649  -1936306.51345  22895768.654    22895770.605    22895797.049
       207.000         142.000
  -4667972.62049  -3623210.10145  23367435.544    23367435.273    23367453.979
       214.000         149.000
 01 12 19 22 35 29.9940000  0  9G 2G26G 4G 9G28G 7G 8G24G11
   3211025.37849   2502864.67745  22287409.889    22287408.883    22287426.066
       213.000         149.000
 -13780269.61149 -10716335.94446  21682976.266    21682976.422    21682990.464
       222.000         170.000
 -20066133.37849 -15273105.80247  20355552.597    20355553.601    20355567.179
       231.000         193.000
 -13197161.45449  -9932299.76746  21172047.601    21172048.213    21172063.280
       229.000         182.000
  -5301848.41649  -4123889.89047  20069846.742    20069846.487    20069856.981
       239.000         198.000
 -21045038.30749 -16383944.51947  18731491.003    18731490.600    18731500.754
       234.000         207.000
   6859412.08749   5351874.70046  21590340.975    21590340.162    21590355.912
       222.000         172.000
  -2659206.95149  -2047532.10545  22868605.218    22868607.341    22868633.546
       210.000         142.000
  -4617190.51949  -3583639.62145  23377099.035    23377098.821    23377117.509
       215.000         144.000
 01 12 19 22 35 59.9940000  0  9G 2G26G 4G 9G28G 7G 8G24G11
   3241100.63849   2526299.79545  22293132.964    22293132.033    22293149.260
       204.000         140.000
 -13752514.26649 -10694708.49046  21688258.090    21688258.182    21688272.213
       221.000         170.000
 -20191416.60149 -15370728.92947  20331711.770    20331712.850    20331726.340
       232.000         192.000
 -13319063.39149 -10027288.07946  21148850.340    21148850.912    21148865.863
       230.000         180.000
  -5290391.21549  -4114962.23547  20072027.033    20072026.754    20072037.250
       238.000         198.000
 -21053452.41949 -16390500.97147  18729889.829    18729889.441    18729899.616
       236.000         207.000
   6934503.01149   5410386.94546  21604630.526    21604629.661    21604645.384
       223.000         171.000
  -2801977.59949  -2158780.95145  22841436.314    22841438.359    22841464.376
       213.000         145.000
  -4566118.24949  -3543843.02145  23386817.762    23386817.571    23386836.170
       211.000         138.000
 01 12 19 22 36 29.9940000  0  9G 2G26G 4G 9G28G 7G 8G24G11
   3271343.97249   2549865.93644  22298887.992    22298887.183    22298904.430
       204.000         131.000
 -13724428.16749 -10672823.33746  21693602.826    21693602.895    21693616.908
       222.000         169.000
 -20316377.93549 -15468101.24747  20307932.236    20307933.337    20307946.773
       232.000         192.000
 -13440658.20649 -10122037.08846  21125711.378    21125712.021    21125726.859
       230.000         179.000
  -5278724.78149  -4105871.53647  20074247.161    20074246.836    20074257.331
       239.000         197.000
 -21061534.03749 -16396798.34347  18728351.967    18728351.577    18728361.745
       236.000         206.000
   7009796.72449   5469057.19046  21618958.584    21618957.707    21618973.420
       223.000         170.000
  -2944760.82249  -2270039.59145  22814264.740    22814266.975    22814292.801
       214.000         144.000
  -4514743.68349  -3503810.86845  23396594.152    23396593.850    23396612.502
       208.000         133.000
 01 12 19 22 36 59.9940000  0  9G 2G26G 4G 9G28G 7G 8G24G11
   3301746.29349   2573555.95045  22304673.736    22304672.689    22304689.937
       210.000         150.000
 -13696023.66249 -10650690.04246  21699008.144    21699008.189    21699022.148
       222.000         169.000
 -20441023.74249 -15565227.67947  20284212.870    20284213.879    20284227.267
       233.000         193.000
 -13561952.74249 -10216552.10746  21102629.610    21102630.254    21102645.082
       229.000         181.000
  -5266858.10549  -4096624.79747  20076505.374    20076505.014    20076515.508
       240.000         198.000
 -21069293.94949 -16402845.02547  18726875.295    18726874.916    18726885.089
       236.000         207.000
   7085281.69249   5527876.48046  21633322.975    21633322.141    21633337.870
       221.000         169.000
  -3087563.56449  -2381313.48845  22787089.625    22787091.874    22787117.504
       215.000         143.000
  -4463078.30549  -3463552.09644  23406425.848    23406425.492    23406444.317
       208.000         127.000
 01 12 19 22 37 29.9940000  0  9G 2G26G 4G 9G28G 7G 8G24G11
   3332307.51849   2597369.91445  22310489.518    22310488.430    22310505.420
       212.000         149.000
 -13667303.53249 -10628310.84446  21704473.397    21704473.531    21704487.461
       219.000         169.000
 -20565351.13749 -15662106.02747  20260554.036    20260555.028    20260568.355
       232.000         193.000
 -13682944.67149 -10310831.33346  21079605.404    21079606.081    21079620.852
       230.000         180.000
  -5254791.12949  -4087221.98047  20078801.616    20078801.310    20078811.826
       239.000         197.000
 -21076734.04549 -16408642.51047  18725459.479    18725459.112    18725469.278
       235.000         206.000
   7160955.65949   5586843.03446  21647723.389    21647722.549    21647738.257
       217.000         167.000
  -3230383.20349  -2492600.58345  22759911.444    22759913.511    22759939.016
       209.000         139.000
  -4411124.82049  -3423068.85144  23416312.181    23416312.129    23416330.704
       201.000         119.000
 01 12 19 22 37 59.9940000  0  9G 2G26G 4G 9G28G 7G 8G24G11
   3363024.79449   2621305.14644  22316334.966    22316333.760    22316350.878
       209.000         126.000
 -13638273.67149 -10605690.27646  21709997.740    21709997.832    21710011.746
       223.000         168.000
 -20689360.13049 -15758736.28147  20236955.805    20236956.758    20236970.026
       234.000         193.000
 -13803634.34349 -10404875.05546  21056638.782    21056639.453    21056654.171
       230.000         182.000
  -5242526.69249  -4077665.31047  20081135.467    20081135.180    20081145.679
       240.000         196.000
 -21083858.80549 -16414194.28547  18724103.711    18724103.316    18724113.484
       237.000         205.000
   7236813.34949   5645952.73546  21662158.700    21662157.909    21662173.618
       220.000         165.000
  -3373220.09849  -2603901.22045  22732729.809    22732731.903    22732757.173
       209.000         141.000
  -4358888.62949  -3382365.32044  23426252.343    23426252.391    23426270.889
       197.000         113.000
 01 12 19 22 38 29.9940000  0  9G 2G26G 4G 9G28G 7G 8G24G11
   3393893.22649   2645358.31645  22322209.141    22322207.909    22322225.202
       198.000         145.000
 -13608942.19149 -10582834.67646  21715579.483    21715579.495    21715593.416
       222.000         168.000
 -20813052.58549 -15855119.86747  20213417.779    20213418.732    20213431.935
       234.000         195.000
 -13924024.54649 -10498685.38146  21033729.159    21033729.816    21033744.527
       232.000         184.000
  -5230069.72249  -4067958.61247  20083505.974    20083505.684    20083516.167
       239.000         196.000
 -21090674.90949 -16419505.53947  18722806.576    18722806.251    18722816.431
       236.000         207.000
   7312847.37749   5705199.86546  21676627.756    21676626.838    21676642.589
       219.000         166.000
  -3516076.83749  -2715217.36145  22705544.210    22705546.500    22705571.514
       209.000         143.000
                  -3341447.39044  23436244.776
       190.000         106.000
 01 12 19 22 38 59.9940000  0  9G 2G26G 4G 9G28G 7G 8G24G11
   3424924.34549   2669537.35045  22328114.059    22328113.895    22328127.952
       211.000         142.000
 -13579300.36849 -10559737.26146  21721220.191    21721220.209    21721234.169
       222.000         166.000
 -20936414.09349 -15951245.58047  20189942.779    20189943.700    20189956.840
       236.000         194.000
 -14044101.27949 -10592251.49346  21010879.211    21010879.825    21010894.453
       232.000         183.000
  -5217408.41749  -4058092.70647  20085915.383    20085915.082    20085925.547
       241.000         196.000
 -21097172.40449 -16424568.53247  18721570.148    18721569.822    18721580.016
       238.000         207.000
   7389066.92149   5764591.53546  21691131.812    21691131.089    21691146.846
       220.000         164.000
  -3658938.93649  -2826537.70045  22678357.754    22678360.113    22678384.909
       206.000         145.000
                  -3300307.97244  23446291.785
       195.000         104.000
 01 12 19 22 39 29.9940000  0  8G 2G26G 4G 9G28G 7G 8G24
   3456096.58349   2693827.17344  22334045.847    22334044.864    22334063.885
       213.000         130.000
 -13549373.00749 -10536417.32946  21726915.251    21726915.299    21726929.273
       222.000         168.000
 -21059463.38049 -16047127.99547  20166527.152    20166528.088    20166541.154
       235.000         195.000
 -14163883.75449 -10685588.28446  20988085.182    20988085.818    20988100.439
       228.000         183.000
  -5204564.44849  -4048084.43647  20088359.541    20088359.244    20088369.655
       239.000         195.000
 -21103374.70649 -16429401.50347  18720389.909    18720389.567    18720399.766
       237.000         207.000
   7465448.13349   5824109.17746  21705666.835    21705666.086    21705681.853
       221.000         165.000
  -3801825.97149  -2937877.46245  22651166.748    22651168.887    22651193.525
       206.000         145.000
 01 12 19 22 39 59.9930000  0  8G 2G26G 4G 9G28G 7G 8G24
   3487438.59349   2718249.56045  22340009.951    22340009.228    22340027.735
       213.000         143.000
 -13519134.26249 -10512854.76646  21732669.658    21732669.596    21732683.624
       222.000         169.000
 -21182163.76449 -16142738.54247  20143177.940    20143178.861    20143191.879
       235.000         194.000
 -14283335.90849 -10778667.71246  20965354.072    20965354.672    20965369.226
       230.000         181.000
  -5191508.28349  -4037910.85547  20090844.033    20090843.756    20090854.194
       238.000         195.000
 -21109253.41649 -16433982.33447  18719271.226    18719270.899    18719281.119
       236.000         206.000
   7542015.82649   5883772.15545  21720237.364    21720236.569    21720252.366
       216.000         162.000
  -3944700.71649  -3049207.76345  22623978.021    22623980.030    22624004.542
       205.000         146.000
 01 12 19 22 40 29.9930000  0  8G 2G26G 4G 9G28G 7G 8G24
   3518953.75749   2742806.85545  22346007.391    22346006.730    22346024.319
       221.000         150.000
 -13488583.84249 -10489049.35946  21738483.267    21738483.247    21738497.298
       220.000         170.000
 -21304519.19649 -16238080.29447  20119894.453    20119895.271    20119908.224
       234.000         195.000
 -14402462.04749 -10871493.07046  20942684.880    20942685.525    20942700.090
       228.000         183.000
  -5178237.69549  -4027570.16447  20093369.432    20093369.105    20093379.518
       238.000         196.000
 -21114809.51049 -16438311.76747  18718213.944    18718213.596    18718223.853
       237.000         207.000
   7618774.09849   5943583.60046  21734844.140    21734843.323    21734859.117
       221.000         164.000
  -4087568.82349  -3160532.94145  22596790.228    22596792.499    22596816.779
       203.000         148.000
 01 12 19 22 40 59.9930000  0  8G 2G26G 4G 9G28G 7G 8G24
   3550627.88649   2767487.78345  22352034.632    22352034.019    22352052.188
       219.000         148.000
 -13457739.16949 -10465014.66046  21744352.883    21744352.873    21744366.953
       221.000         170.000
 -21426535.92049 -16333158.11747  20096675.238    20096676.135    20096689.020
       235.000         195.000
 -14521269.26149 -10964069.94246  20920076.493    20920077.108    20920091.611
       231.000         185.000
  -5164766.26349  -4017072.98247  20095932.940    20095932.646    20095943.062
       239.000         196.000
 -21120057.90149 -16442401.43347  18717215.227    18717214.871    18717225.140
       237.000         208.000
   7695704.61649   6003529.28046  21749483.508    21749482.823    21749498.642
       219.000         163.000
  -4230436.39949  -3271857.69945  22569602.516    22569605.092    22569629.195
       202.000         149.000
 01 12 19 22 41 29.9930000  0  8G 2G26G 4G 9G28G 7G 8G24
   3582464.52749   2792295.50545  22358092.867    22358092.441    22358110.485
       214.000         154.000
 -13426599.43149 -10440750.01246  21750278.699    21750278.638    21750292.787
       221.000         170.000
 -21548207.31849 -16427966.85047  20073521.754    20073522.720    20073535.556
       235.000         195.000
 -14639751.43049 -11056393.50146  20897529.957    20897530.570    20897545.013
       231.000         185.000
  -5151090.25049  -4006416.40147  20098535.413    20098535.137    20098545.597
       236.000         197.000
 -21124996.24449 -16446249.50347  18716275.455    18716275.135    18716285.424
       236.000         208.000
   7772808.76949   6063610.25946  21764156.162    21764155.386    21764171.273
       216.000         166.000
  -4373297.28249  -3383177.27345  22542416.202    22542418.968    22542442.877
       205.000         150.000
 01 12 19 22 41 59.9930000  0  8G 2G26G 4G 9G28G 7G 8G24
   3614443.22349   2817213.83845  22364178.115    22364177.848    22364195.921
       217.000         162.000
 -13395188.39849 -10416273.99646  21756256.041    21756256.031    21756270.248
       222.000         171.000
 -21669551.11449 -16522520.31247  20050430.667    20050431.649    20050444.434
       235.000         196.000
 -14757926.87849 -11148478.07346  20875041.783    20875042.404    20875056.807
       229.000         185.000
  -5137229.97649  -3995616.25047  20101172.884    20101172.682    20101183.165
       235.000         195.000
 -21129647.10949 -16449873.56147  18715390.439    18715390.110    18715400.429
       236.000         208.000
   7850063.79949   6123808.78746  21778857.568    21778856.637    21778872.601
       212.000         166.000
  -4516169.33349  -3494505.62345  22515228.128    22515230.790    22515254.455
       208.000         152.000
